[[{"header":{"parameterUnit":"m.s-1","parameterCategory":1,"la1":30.6,"la2":29.2853,"lo1":-89.7004,"lo2":-87.6739,"dy":0.0162,"dx":0.0183,"nx":112,"ny":82,"refTime":"2024-06-02T00:00:00:Z","depth":0,"parameterNumber":2,"parameterNumberName":"U-component_of_WINDS"},"data":[0.0,0.0,0.0,0.0,0.0,0.0,0.0,0.0,0.0,0.0,0.0,0.0,0.0,0.0,0.0,0.0,0.0,0.0,0.0,0.0,0.0,0.0,0.0,0.0,0.0,0.0,0.0,0.0,0.0,0.0,0.0,0.0,0.0,0.0,0.0,0.0,0.0,0.0,0.0,0.0,0.0,0.0,0.0,0.0,0.0,0.0,0.0,0.0,0.0,0.0,0.0,0.0,0.0,0.0,0.0,0.0,0.0,0.0,0.0,0.0,0.0,0.0,0.0,0.0,0.0,0.0,0.0,0.0,0.0,0.0,0.0,0.0,0.0,0.0,0.0,0.0,0.0,0.0,0.0,0.0,0.0,0.0,0.0,0.0,0.0,0.0,0.0,0.0,0.0,0.0,-2.5736,-2.9492,-3.3049,-3.4729,-3.3696,-3.2728,-3.0381,-2.616,0.0,0.0,0.0,0.0,0.0,0.0,0.0,0.0,0.0,0.0,0.0,0.0,0.0,0.0,0.0,0.0,0.0,0.0,0.0,0.0,0.0,0.0,0.0,0.0,0.0,0.0,0.0,0.0,0.0,0.0,0.0,0.0,0.0,0.0,0.0,0.0,0.0,0.0,0.0,0.0,0.0,0.0,0.0,0.0,0.0,0.0,0.0,0.0,0.0,0.0,0.0,0.0,0.0,0.0,0.0,0.0,0.0,0.0,0.0,0.0,0.0,0.0,0.0,0.0,0.0,0.0,0.0,0.0,0.0,0.0,0.0,0.0,0.0,0.0,0.0,0.0,0.0,0.0,0.0,0.0,0.0,0.0,0.0,0.0,0.0,0.0,0.0,0.0,0.0,0.0,0.0,0.0,0.0,0.0,0.0,0.0,0.0,0.0,0.0,0.0,0.0,0.0,0.0,0.0,-2.7306,-3.2846,-3.4634,-3.5192,-3.4555,-3.2477,-2.9932,-2.6903,0.0,0.0,0.0,0.0,0.0,0.0,0.0,0.0,0.0,0.0,0.0,0.0,0.0,0.0,0.0,0.0,0.0,0.0,0.0,0.0,0.0,0.0,0.0,0.0,0.0,0.0,0.0,0.0,0.0,0.0,0.0,0.0,0.0,0.0,0.0,0.0,0.0,0.0,0.0,0.0,0.0,0.0,0.0,0.0,0.0,0.0,0.0,0.0,0.0,0.0,0.0,0.0,0.0,0.0,0.0,0.0,0.0,0.0,0.0,0.0,0.0,0.0,0.0,0.0,0.0,0.0,0.0,0.0,0.0,0.0,0.0,0.0,0.0,0.0,0.0,0.0,0.0,0.0,0.0,0.0,0.0,0.0,0.0,0.0,0.0,0.0,0.0,0.0,0.0,0.0,0.0,0.0,0.0,0.0,0.0,0.0,0.0,0.0,0.0,0.0,0.0,0.0,0.0,-2.5924,-2.9145,-3.3705,-3.4988,-3.5289,-3.4753,-3.2827,-3.0354,-2.7307,-2.3541,0.0,0.0,0.0,0.0,0.0,0.0,0.0,0.0,0.0,0.0,0.0,0.0,0.0,0.0,0.0,0.0,0.0,0.0,0.0,0.0,0.0,0.0,0.0,0.0,0.0,0.0,0.0,0.0,0.0,0.0,0.0,0.0,0.0,0.0,0.0,0.0,0.0,0.0,0.0,0.0,0.0,0.0,0.0,0.0,0.0,0.0,0.0,0.0,0.0,0.0,0.0,0.0,0.0,0.0,0.0,0.0,0.0,0.0,0.0,0.0,0.0,0.0,0.0,0.0,0.0,0.0,0.0,0.0,0.0,0.0,0.0,0.0,0.0,0.0,0.0,0.0,0.0,0.0,0.0,0.0,0.0,0.0,0.0,0.0,0.0,0.0,0.0,0.0,0.0,0.0,0.0,0.0,0.0,0.0,0.0,0.0,0.0,0.0,0.0,0.0,0.0,0.0,-2.8953,-3.0935,-3.416,-3.5103,-3.5304,-3.4822,-3.2845,-3.0348,-2.7333,-2.3043,0.0,0.0,0.0,0.0,0.0,0.0,0.0,0.0,0.0,0.0,0.0,0.0,0.0,0.0,0.0,0.0,0.0,0.0,0.0,0.0,0.0,0.0,0.0,0.0,0.0,0.0,0.0,0.0,0.0,0.0,0.0,0.0,0.0,0.0,0.0,0.0,0.0,0.0,0.0,0.0,0.0,0.0,0.0,0.0,0.0,0.0,0.0,0.0,0.0,0.0,0.0,0.0,0.0,0.0,0.0,0.0,0.0,0.0,0.0,0.0,0.0,0.0,0.0,0.0,0.0,0.0,0.0,0.0,0.0,0.0,0.0,0.0,0.0,0.0,0.0,0.0,0.0,0.0,0.0,0.0,0.0,0.0,0.0,0.0,0.0,0.0,0.0,0.0,0.0,0.0,0.0,0.0,0.0,0.0,0.0,0.0,0.0,0.0,0.0,0.0,0.0,0.0,-3.0025,-3.2526,-3.5135,-3.5462,-3.5383,-3.5096,-3.1935,-2.9012,-2.678,-2.1824,0.0,0.0,0.0,0.0,0.0,0.0,0.0,0.0,0.0,0.0,0.0,0.0,0.0,0.0,0.0,0.0,0.0,0.0,0.0,0.0,0.0,0.0,0.0,0.0,0.0,0.0,0.0,0.0,0.0,0.0,0.0,0.0,0.0,0.0,0.0,0.0,0.0,0.0,0.0,0.0,0.0,0.0,0.0,0.0,0.0,0.0,0.0,0.0,0.0,0.0,0.0,0.0,0.0,0.0,0.0,0.0,0.0,0.0,0.0,0.0,0.0,0.0,0.0,0.0,0.0,0.0,0.0,0.0,0.0,0.0,0.0,0.0,0.0,0.0,0.0,0.0,0.0,0.0,0.0,0.0,0.0,0.0,0.0,0.0,0.0,0.0,0.0,0.0,0.0,0.0,0.0,0.0,0.0,0.0,0.0,0.0,0.0,0.0,0.0,0.0,0.0,0.0,-2.966,-3.2077,-3.5173,-3.55,-3.5383,-3.5122,-3.2753,-3.0018,-2.7037,0.0,0.0,0.0,0.0,0.0,0.0,0.0,0.0,0.0,0.0,0.0,0.0,0.0,0.0,0.0,0.0,0.0,0.0,0.0,0.0,0.0,0.0,0.0,0.0,0.0,0.0,0.0,0.0,0.0,0.0,0.0,0.0,0.0,0.0,0.0,0.0,0.0,0.0,0.0,0.0,0.0,0.0,0.0,0.0,0.0,0.0,0.0,0.0,0.0,0.0,0.0,0.0,0.0,0.0,0.0,0.0,0.0,0.0,0.0,0.0,0.0,0.0,0.0,0.0,0.0,0.0,0.0,0.0,0.0,0.0,0.0,0.0,0.0,0.0,0.0,0.0,0.0,0.0,0.0,0.0,0.0,0.0,0.0,0.0,0.0,0.0,0.0,0.0,0.0,0.0,0.0,0.0,0.0,0.0,0.0,0.0,0.0,0.0,0.0,0.0,0.0,0.0,-2.7323,-2.9853,-3.2324,-3.5199,-3.55,-3.5316,-3.4856,-3.2551,-2.9883,-2.691,0.0,0.0,0.0,0.0,0.0,0.0,0.0,0.0,0.0,0.0,0.0,0.0,0.0,0.0,0.0,0.0,0.0,0.0,0.0,0.0,0.0,0.0,0.0,0.0,0.0,0.0,0.0,0.0,0.0,0.0,0.0,0.0,0.0,0.0,0.0,0.0,0.0,0.0,0.0,0.0,0.0,0.0,0.0,0.0,0.0,0.0,0.0,0.0,0.0,0.0,0.0,0.0,0.0,0.0,0.0,0.0,0.0,0.0,0.0,0.0,0.0,0.0,0.0,0.0,0.0,0.0,0.0,0.0,0.0,0.0,0.0,0.0,0.0,0.0,0.0,0.0,0.0,0.0,0.0,0.0,0.0,0.0,0.0,0.0,0.0,0.0,0.0,0.0,0.0,0.0,0.0,0.0,0.0,0.0,0.0,0.0,0.0,0.0,0.0,0.0,0.0,0.0,-2.7474,-3.0882,-3.3641,-3.5328,-3.55,-3.5154,-3.4282,-3.0963,-2.8114,0.0,0.0,0.0,0.0,0.0,0.0,0.0,0.0,0.0,0.0,0.0,0.0,0.0,0.0,0.0,0.0,0.0,0.0,0.0,0.0,0.0,0.0,0.0,0.0,0.0,0.0,0.0,0.0,0.0,0.0,0.0,0.0,0.0,0.0,0.0,0.0,0.0,0.0,0.0,0.0,0.0,0.0,0.0,0.0,0.0,0.0,0.0,0.0,0.0,0.0,0.0,0.0,0.0,0.0,0.0,0.0,0.0,0.0,0.0,0.0,0.0,0.0,0.0,0.0,0.0,0.0,0.0,0.0,0.0,0.0,0.0,0.0,0.0,0.0,0.0,0.0,0.0,0.0,0.0,0.0,0.0,0.0,0.0,0.0,0.0,0.0,0.0,0.0,0.0,0.0,0.0,0.0,0.0,0.0,0.0,0.0,0.0,0.0,0.0,0.0,0.0,0.0,0.0,-2.7539,-3.0902,-3.3664,-3.5392,-3.5534,-3.5404,-3.5135,-3.2347,-2.9615,-2.73,0.0,0.0,0.0,0.0,0.0,0.0,0.0,0.0,0.0,0.0,0.0,0.0,0.0,0.0,0.0,0.0,0.0,0.0,0.0,0.0,0.0,0.0,0.0,0.0,0.0,0.0,0.0,0.0,0.0,0.0,0.0,0.0,0.0,0.0,0.0,0.0,0.0,0.0,0.0,0.0,0.0,0.0,0.0,0.0,0.0,0.0,0.0,0.0,0.0,0.0,0.0,0.0,0.0,0.0,0.0,0.0,0.0,0.0,0.0,0.0,0.0,0.0,0.0,0.0,0.0,0.0,0.0,0.0,0.0,0.0,0.0,0.0,0.0,0.0,0.0,0.0,0.0,0.0,0.0,0.0,0.0,0.0,0.0,0.0,0.0,0.0,0.0,0.0,0.0,0.0,0.0,0.0,0.0,0.0,0.0,0.0,0.0,0.0,0.0,0.0,0.0,0.0,-2.7561,-3.0971,-3.3731,-3.5417,-3.5547,-3.5365,-3.5007,-3.2818,-3.0367,-2.7752,0.0,0.0,0.0,0.0,0.0,0.0,0.0,0.0,0.0,0.0,0.0,0.0,0.0,0.0,0.0,0.0,0.0,0.0,0.0,0.0,0.0,0.0,0.0,0.0,0.0,0.0,0.0,0.0,0.0,0.0,0.0,0.0,0.0,0.0,0.0,0.0,0.0,0.0,0.0,0.0,0.0,0.0,0.0,0.0,0.0,0.0,0.0,0.0,0.0,0.0,0.0,0.0,0.0,0.0,0.0,0.0,0.0,0.0,0.0,0.0,0.0,0.0,0.0,0.0,0.0,0.0,0.0,0.0,0.0,0.0,0.0,0.0,0.0,0.0,0.0,0.0,0.0,0.0,0.0,0.0,0.0,0.0,0.0,0.0,0.0,0.0,0.0,0.0,0.0,0.0,0.0,0.0,0.0,0.0,0.0,0.0,0.0,0.0,0.0,0.0,0.0,0.0,-2.7689,-3.1093,-3.3825,-3.5447,-3.554,-3.5173,-3.4398,-3.2718,-3.0579,-2.7911,0.0,0.0,0.0,0.0,0.0,0.0,0.0,0.0,0.0,0.0,0.0,0.0,0.0,0.0,0.0,0.0,0.0,0.0,0.0,0.0,0.0,0.0,0.0,0.0,0.0,0.0,0.0,0.0,0.0,0.0,0.0,0.0,0.0,0.0,0.0,0.0,0.0,0.0,0.0,0.0,0.0,0.0,0.0,0.0,0.0,0.0,0.0,0.0,0.0,0.0,0.0,0.0,0.0,0.0,0.0,0.0,0.0,0.0,0.0,0.0,-1.9206,-1.8165,0.0,0.0,0.0,0.0,0.0,0.0,0.0,0.0,0.0,0.0,0.0,0.0,0.0,0.0,0.0,0.0,0.0,0.0,0.0,0.0,0.0,0.0,0.0,0.0,0.0,0.0,0.0,0.0,0.0,0.0,0.0,0.0,0.0,0.0,0.0,0.0,0.0,0.0,0.0,0.0,-2.8588,-3.1501,-3.3835,-3.55,-3.5566,-3.5423,-3.5231,-3.3064,-3.0859,-2.89,-2.4678,0.0,0.0,0.0,0.0,0.0,0.0,0.0,0.0,0.0,0.0,0.0,0.0,0.0,0.0,0.0,0.0,0.0,0.0,0.0,0.0,0.0,0.0,0.0,0.0,0.0,0.0,0.0,0.0,0.0,0.0,0.0,0.0,0.0,0.0,0.0,0.0,0.0,0.0,0.0,0.0,0.0,0.0,0.0,0.0,0.0,0.0,0.0,0.0,0.0,0.0,0.0,0.0,0.0,0.0,0.0,0.0,0.0,0.0,0.0,-2.3226,-2.1866,0.0,0.0,0.0,0.0,0.0,0.0,0.0,0.0,0.0,0.0,0.0,0.0,0.0,0.0,0.0,0.0,0.0,0.0,0.0,0.0,0.0,0.0,0.0,0.0,0.0,0.0,0.0,0.0,0.0,0.0,0.0,0.0,0.0,0.0,0.0,0.0,0.0,0.0,0.0,0.0,-2.8902,-3.1971,-3.4294,-3.5519,-3.5562,-3.55,-3.55,-3.391,-3.216,-3.0467,-2.6755,0.0,0.0,0.0,0.0,0.0,0.0,0.0,0.0,0.0,0.0,0.0,0.0,0.0,0.0,0.0,0.0,0.0,0.0,0.0,0.0,0.0,0.0,0.0,0.0,0.0,0.0,0.0,0.0,0.0,0.0,0.0,0.0,0.0,0.0,0.0,0.0,0.0,0.0,0.0,0.0,0.0,0.0,0.0,0.0,0.0,0.0,0.0,0.0,0.0,0.0,0.0,0.0,0.0,-2.914,-3.0223,-3.0256,-3.1667,-3.2321,-3.2109,-2.7638,-2.6369,-2.7304,-2.4807,0.0,0.0,0.0,0.0,0.0,0.0,0.0,0.0,0.0,0.0,0.0,0.0,0.0,0.0,0.0,0.0,0.0,0.0,0.0,0.0,0.0,0.0,-2.74,-2.8676,-3.0177,-3.0096,-2.5736,0.0,0.0,0.0,0.0,0.0,0.0,0.0,0.0,0.0,0.0,0.0,-2.94,-3.2509,-3.4761,-3.5524,-3.5547,-3.55,-3.55,-3.4699,-3.3468,-3.1814,-2.8909,-2.6159,0.0,0.0,0.0,0.0,0.0,0.0,0.0,0.0,0.0,0.0,0.0,0.0,0.0,0.0,0.0,0.0,0.0,0.0,0.0,0.0,0.0,0.0,0.0,0.0,0.0,0.0,0.0,0.0,0.0,0.0,0.0,0.0,-1.5312,-1.603,0.0,0.0,0.0,0.0,0.0,0.0,0.0,0.0,0.0,0.0,0.0,0.0,0.0,-2.6866,-2.9192,-3.1006,-3.2275,-3.3051,-3.4141,-3.4654,-3.4654,-3.4657,-3.4787,-3.4955,-3.4014,0.0,-3.0845,-2.8345,0.0,0.0,0.0,0.0,0.0,0.0,0.0,0.0,0.0,0.0,0.0,0.0,0.0,0.0,0.0,0.0,0.0,0.0,0.0,0.0,0.0,0.0,-3.318,-3.2652,-3.3702,-3.4442,-3.3013,-2.9313,-2.5909,-2.4692,-2.2788,-2.1235,0.0,0.0,0.0,0.0,0.0,0.0,-3.1047,-3.3146,-3.4642,-3.5514,-3.5547,-3.55,-3.55,-3.4699,-3.3468,-3.1814,-3.0577,-2.8781,-2.6296,-2.458,0.0,0.0,0.0,0.0,0.0,0.0,0.0,0.0,0.0,0.0,0.0,0.0,0.0,0.0,0.0,0.0,0.0,0.0,0.0,0.0,0.0,0.0,0.0,0.0,0.0,0.0,0.0,0.0,0.0,-1.4852,-1.6783,-1.8232,-1.8172,-1.8052,0.0,0.0,0.0,0.0,0.0,0.0,0.0,0.0,0.0,-2.8638,-3.0049,-3.136,-3.2526,-3.4199,-3.5468,-3.6353,-3.768,-3.8565,-3.9058,-3.9429,-3.9668,-3.9731,-3.9141,-3.8342,-3.7189,-3.3268,-3.095,-2.9728,0.0,0.0,0.0,0.0,-2.7264,-2.8158,-2.9585,-3.0046,-2.9919,-2.949,0.0,0.0,0.0,0.0,0.0,0.0,0.0,-2.9492,-3.082,-3.3165,-3.5203,-3.532,-3.6151,-3.6796,-3.6411,-3.4199,-3.1462,-2.8692,-2.7654,-2.6467,-2.4058,-2.375,0.0,0.0,0.0,-2.97,-3.2113,-3.3953,-3.5162,-3.5507,-3.5528,-3.55,-3.55,-3.5154,-3.4199,-3.2487,-3.1602,-3.0221,-2.819,-2.6025,-2.4138,0.0,0.0,0.0,0.0,0.0,0.0,0.0,0.0,0.0,0.0,0.0,0.0,0.0,0.0,0.0,0.0,0.0,0.0,0.0,0.0,0.0,0.0,0.0,0.0,0.0,0.0,0.0,0.0,-1.6778,-1.8648,-2.0407,-2.0789,-2.0896,0.0,0.0,0.0,0.0,0.0,0.0,-2.7633,-2.9944,-3.1799,-3.3041,-3.444,-3.5494,-3.6142,-3.7392,-3.845,-3.9315,-4.0566,-4.1489,-4.2162,-4.2797,-4.3104,-4.3066,-4.2429,-4.2221,-4.2022,-3.763,-3.5204,-3.4153,-3.2704,-3.1457,-3.0597,-3.1418,-3.1893,-3.2434,-3.4561,-3.4899,-3.4336,-3.3965,-3.3105,-3.1836,-2.9883,0.0,0.0,0.0,0.0,-3.2539,-3.4023,-3.5547,-3.6856,-3.7518,-3.8169,-3.8642,-3.8642,-3.7969,-3.6295,-3.2712,-3.2199,-3.1256,-2.7827,-2.7615,0.0,-2.7909,-2.9921,-3.1955,-3.3385,-3.5115,-3.6104,-3.5841,-3.5808,-3.5712,-3.5519,-3.55,-3.475,-3.3006,-3.2333,-3.1256,-2.9605,-2.7504,-2.5897,-2.4872,0.0,0.0,0.0,0.0,0.0,0.0,0.0,0.0,0.0,0.0,0.0,0.0,0.0,0.0,0.0,0.0,0.0,0.0,0.0,0.0,0.0,0.0,0.0,0.0,0.0,0.0,0.0,0.0,0.0,-2.274,-2.3943,0.0,0.0,0.0,0.0,-2.6123,-2.823,-3.0273,-3.208,-3.3341,-3.5135,-3.7596,-3.7757,-3.8969,-4.1385,-4.15,-4.1989,-4.2835,-4.2931,-4.2989,-4.3047,-4.3085,-4.3104,-4.3094,-4.3123,-4.3206,-4.3128,-4.0439,-3.8416,-3.6923,-3.6072,-3.4707,-3.3301,-3.418,-3.5019,-3.5879,-3.6836,-3.7148,-3.7226,-3.8027,-3.7129,-3.5723,-3.5586,-3.4394,0.0,0.0,-3.5078,-3.5957,-3.6875,-3.8259,-3.9408,-3.9466,-3.9931,-4.0362,-4.0362,-3.9746,-3.8623,-3.675,-3.5122,-3.3744,-3.2699,0.0,-3.1448,-3.1448,-3.2904,-3.4347,-3.525,-3.6841,-3.7553,-3.6731,-3.6635,-3.6327,-3.5558,-3.55,-3.475,-3.3006,-3.2852,-3.211,-3.0494,-2.9517,-2.8268,-2.67,-2.4865,0.0,0.0,0.0,0.0,0.0,0.0,0.0,0.0,0.0,0.0,0.0,0.0,0.0,0.0,0.0,0.0,0.0,0.0,0.0,0.0,0.0,0.0,0.0,0.0,0.0,0.0,0.0,0.0,-2.527,-2.6823,0.0,-2.7622,-2.8445,-2.9457,-3.0609,-3.2213,-3.3906,-3.5632,-3.7325,-3.8931,-4.0412,-4.0989,-4.172,-4.2624,-4.2643,-4.3047,-4.3874,-4.3874,-4.4162,-4.471,-4.471,-4.471,-4.4718,-4.4831,-4.4924,-4.4954,-4.4121,-4.2502,-4.0524,-4.0234,-3.9414,-3.8516,-3.9355,-3.9844,-4.0234,-4.1113,-4.1055,-4.0469,-3.9687,-3.8633,-3.7676,-3.7676,-3.7246,-3.6816,-3.7129,-3.7832,-3.8574,-3.8887,-4.0095,-4.1061,-4.0501,-4.0866,-4.1181,-4.0631,-4.0265,-3.99,-3.9258,-3.7796,-3.6199,-3.4808,-3.475,-3.4731,-3.4212,-3.5084,-3.6122,-3.7007,-3.7623,-3.7873,-3.7565,-3.7019,-3.6577,-3.6308,-3.5276,-3.416,-3.2968,-3.241,-3.1376,-2.9664,-2.8839,-2.7879,-2.6683,-2.5031,-2.2617,0.0,0.0,0.0,0.0,0.0,0.0,0.0,0.0,0.0,0.0,0.0,0.0,0.0,0.0,0.0,0.0,0.0,0.0,0.0,0.0,0.0,0.0,0.0,0.0,0.0,0.0,-2.6246,-2.7776,-2.9638,-3.0781,-3.0701,-3.2052,-3.3307,-3.4213,-3.5958,-3.7528,-3.8747,-4.0441,-4.1758,-4.2624,-4.3077,-4.3518,-4.3932,-4.3834,-4.4103,-4.4739,-4.4739,-4.5037,-4.5594,-4.5594,-4.5594,-4.5612,-4.5764,-4.5861,-4.5912,-4.6087,-4.5208,-4.3691,-4.3398,-4.2773,-4.2109,-4.2637,-4.2832,-4.293,-4.3496,-4.332,-4.2656,-4.1543,-4.0781,-4.0312,-4.0312,-4.0312,-4.0312,-4.0312,-4.0742,-4.1172,-4.1172,-4.1853,-4.2392,-4.1809,-4.195,-4.2085,-4.1489,-4.1381,-4.1381,-4.1381,-4.0008,-3.8392,-3.7026,-3.7219,-3.7296,-3.6462,-3.7046,-3.7796,-3.8354,-3.8681,-3.8738,-3.8469,-3.7911,-3.7334,-3.675,-3.543,-3.4141,-3.2968,-3.2141,-3.0929,-2.9165,-2.8627,-2.7817,-2.666,-2.4737,-2.2914,-2.1169,0.0,0.0,0.0,0.0,0.0,0.0,0.0,0.0,0.0,0.0,0.0,0.0,0.0,0.0,0.0,0.0,0.0,0.0,0.0,0.0,0.0,0.0,0.0,-2.4817,-2.7293,-2.9444,-3.0246,-3.2462,-3.3618,-3.2884,-3.4995,-3.657,-3.6945,-3.943,-4.1116,-4.1456,-4.2541,-4.3508,-4.4316,-4.4039,-4.4411,-4.5594,-4.5292,-4.5292,-4.5594,-4.5594,-4.5594,-4.5594,-4.5594,-4.5594,-4.562,-4.5803,-4.5899,-4.5916,-4.6198,-4.6308,-4.6211,-4.5371,-4.4512,-4.3789,-4.3789,-4.3789,-4.3789,-4.3789,-4.3769,-4.373,-4.373,-4.3711,-4.3691,-4.3691,-4.3691,-4.3691,-4.3691,-4.3691,-4.3691,-4.3691,-4.3572,-4.3428,-4.3408,-4.3273,-4.3124,-4.3104,-4.3104,-4.3104,-4.3104,-4.1739,-4.0323,-3.9515,-3.9361,-3.9053,-3.82,-3.8796,0.0,-3.9342,-4.0015,-4.0208,-3.9419,-3.9304,-3.8604,-3.6885,-3.5981,-3.475,-3.3006,-3.2141,-3.0929,-2.9165,-2.9107,-2.8352,-2.6761,-2.4283,-2.3005,-2.2965,0.0,0.0,0.0,0.0,0.0,0.0,0.0,0.0,0.0,0.0,0.0,0.0,0.0,0.0,0.0,0.0,0.0,0.0,0.0,0.0,0.0,0.0,-2.8562,-2.8138,-3.0622,-3.2782,-3.3592,-3.5502,-3.6928,-3.7344,-3.8539,-3.9656,-4.0571,-4.1563,-4.2443,-4.3174,-4.3683,-4.4355,-4.5229,-4.5139,-4.5254,-4.5594,-4.5504,-4.5504,-4.5594,-4.5594,-4.5594,-4.5594,-4.5594,-4.5594,-4.562,-4.5803,-4.5899,-4.5916,-4.6198,-4.6308,-4.6289,-4.6035,-4.5801,-4.5586,-4.5586,-4.5586,-4.5586,-4.5586,-4.5176,-4.4648,-4.4648,-4.4219,-4.3691,-4.3691,-4.3691,-4.3691,-4.3691,-4.3691,-4.3691,-4.3691,-4.4018,-4.4182,-4.3545,-4.3699,-4.3816,-4.3239,-4.3104,-4.3104,-4.3104,-4.2701,-4.2104,-4.1258,-4.0585,-4.0092,-3.9861,-4.0015,-4.0169,-4.0169,-4.0362,-4.0419,-4.0189,-3.965,-3.8854,-3.7738,-3.6327,-3.475,-3.3006,-3.2141,-3.0929,-2.9165,-2.9107,-2.8623,-2.7595,-2.627,-2.5301,0.0,0.0,0.0,0.0,0.0,0.0,0.0,0.0,0.0,0.0,0.0,0.0,0.0,0.0,0.0,0.0,0.0,0.0,0.0,0.0,0.0,0.0,-2.9832,-3.2,-3.2694,-3.4197,-3.552,-3.6323,-3.8035,-3.9358,-3.9858,-4.0933,-4.1971,-4.2788,-4.3354,-4.393,-4.4585,-4.4755,-4.5075,-4.5575,-4.5457,-4.5467,-4.5594,-4.5332,-4.5332,-4.5594,-4.5467,-4.5457,-4.5594,-4.5594,-4.5594,-4.562,-4.5803,-4.5899,-4.5916,-4.6198,-4.6308,-4.6308,0.0,0.0,0.0,0.0,-4.6308,-4.6308,-4.6308,-4.5976,-4.5547,-4.5547,-4.5195,-4.4785,-4.4785,-4.4785,-4.4785,-4.4785,-4.4785,-4.4785,-4.4721,-4.4955,-4.5064,-4.4525,-4.4632,-4.472,-4.4239,-4.4143,-4.4143,-4.4143,-4.3855,0.0,-4.2931,-4.1835,-4.0912,-4.0554,-4.0496,-4.0496,-4.0496,-4.0496,-4.0496,-4.0496,-4.0073,-3.9457,-3.8623,-3.6988,0.0,0.0,0.0,-3.1429,-2.9717,-2.93,0.0,0.0,0.0,0.0,0.0,0.0,0.0,0.0,-2.5998,-2.6359,0.0,0.0,0.0,0.0,0.0,0.0,0.0,0.0,0.0,0.0,0.0,0.0,0.0,0.0,0.0,0.0,-3.291,-3.5355,-3.7432,-3.7633,-3.786,-3.8595,-4.0015,-4.1014,-4.1222,-4.2533,-4.3566,-4.4064,-4.4741,-4.5292,-4.5577,0.0,0.0,0.0,0.0,-4.5273,-4.5531,-4.4954,-4.4954,-4.555,-4.5243,-4.5282,-4.5594,-4.5594,-4.5594,-4.562,-4.5803,-4.5899,-4.5916,-4.6198,-4.6308,-4.6308,-4.6308,-4.6308,-4.6308,-4.6308,-4.6308,-4.6308,-4.6308,0.0,0.0,-4.6308,-4.6308,-4.6308,-4.6308,-4.6308,-4.6308,-4.6308,-4.6308,-4.6268,-4.6122,-4.5995,-4.5891,-4.5821,-4.5692,-4.5594,-4.5594,-4.5594,-4.5594,-4.5594,-4.4979,-4.4412,-4.4316,-4.2989,-4.1643,-4.0785,-4.065,-4.0612,-4.0516,-4.0496,-4.0496,-4.0496,-4.0496,0.0,-3.9381,-3.7873,-3.6577,-3.5558,-3.3872,-3.2237,-3.0731,-2.9948,-2.9531,-2.9531,-2.9531,-3.04,-3.2172,-3.2185,-3.274,-3.373,-2.9665,-2.9812,0.0,0.0,0.0,0.0,0.0,0.0,0.0,0.0,0.0,0.0,0.0,0.0,0.0,0.0,0.0,-3.3131,-3.5662,-3.7685,-3.8865,-3.9511,-3.9994,-4.0371,-4.0894,-4.1765,-4.3177,-4.3596,-4.4197,-4.5207,-4.5408,-4.5522,-4.5614,-4.5594,-4.5594,-4.5594,-4.555,-4.541,-4.5201,-4.5074,-4.5074,-4.5201,-4.5129,0.0,-4.5594,-4.5594,-4.5594,-4.562,-4.5803,-4.5899,-4.5916,-4.6198,-4.6308,-4.6308,-4.6308,-4.6308,-4.6308,-4.6308,-4.6308,-4.6308,-4.6308,-4.6308,-4.6308,-4.6308,-4.6308,-4.6308,-4.6308,-4.6308,0.0,-4.6308,-4.6308,-4.6268,-4.6122,-4.5995,-4.5891,-4.5821,-4.5692,-4.5594,-4.5594,-4.5594,-4.5594,-4.5594,-4.546,-4.5133,-4.4412,-4.3489,-4.2547,-4.1681,-4.1546,-4.1296,-4.0593,-4.0496,-4.0496,-4.0496,-4.0496,-4.0169,-3.9381,-3.8996,-3.7853,-3.5635,-3.3872,-3.2756,-3.2429,-3.2256,-3.216,-3.216,-3.216,-3.2711,-3.3848,-3.3937,-3.4822,-3.6339,-3.4192,-3.3631,0.0,0.0,0.0,0.0,0.0,0.0,0.0,0.0,0.0,0.0,0.0,-2.6454,0.0,0.0,-3.3189,-3.5867,-3.7657,-3.9168,-4.0498,-4.1016,-4.1278,-4.1342,-4.1848,-4.2689,-4.3982,-4.449,-4.4997,-4.5566,-4.5594,-4.5594,-4.5594,-4.5594,-4.5594,-4.5594,-4.5594,-4.5438,-4.5096,-4.4931,-4.4931,-4.5096,-4.4931,-4.5118,-4.5594,-4.5594,-4.5635,-4.5715,-4.5836,-4.5932,-4.6024,-4.6223,-4.6308,-4.6308,-4.6308,-4.6308,-4.6308,-4.6308,-4.6308,-4.6308,-4.6308,-4.6308,-4.6308,-4.6308,-4.6308,-4.6308,-4.6308,-4.6308,-4.6308,-4.6308,-4.6247,-4.6173,-4.6036,-4.5918,-4.5825,-4.5725,-4.5651,-4.5594,-4.5594,-4.5594,-4.5594,-4.5594,-4.5594,-4.546,-4.5037,-4.4624,-4.3912,-4.2643,-4.2085,-4.1643,-4.12,-4.0766,-4.0496,-4.0496,-4.0496,-4.0342,-3.9938,-3.9534,-3.8565,-3.6873,-3.593,-3.5257,-3.4814,-3.4795,-3.4795,-3.4795,-3.4795,-3.5258,-3.6195,-3.6336,-3.6877,-3.7732,-3.7437,-3.7305,0.0,0.0,0.0,0.0,0.0,0.0,0.0,0.0,-2.4172,-2.6832,-2.8036,-2.9629,-3.2814,-3.4257,-3.5714,-3.8045,-3.9234,-4.0364,-4.1795,-4.2118,-4.2161,-4.2063,-4.2816,-4.3643,-4.447,-4.519,-4.5594,-4.5594,-4.5594,-4.5594,-4.5594,-4.5594,-4.5594,-4.5594,-4.5594,-4.5438,-4.5096,-4.4837,-4.4837,-4.5096,-4.4837,-4.5011,-4.5594,-4.5594,-4.5673,-4.5809,-4.5891,-4.6005,-4.6147,-4.6267,-4.6308,-4.6308,-4.6308,-4.6308,-4.6308,-4.6308,-4.6308,-4.6308,-4.6308,-4.6308,-4.6308,-4.6308,-4.6308,-4.6308,-4.6308,-4.6289,-4.6268,-4.6268,-4.6152,-4.6033,-4.5918,-4.5842,-4.5775,-4.5627,-4.5594,-4.5594,-4.5594,-4.5594,-4.5594,-4.5594,-4.5594,-4.5594,-4.5594,-4.5594,-4.5075,-4.3566,-4.2739,-4.2239,-4.2058,-4.1296,-4.0746,-4.0746,-4.0593,-4.0496,-4.0496,-3.9765,-3.8996,-3.8296,-3.8084,-3.77,-3.6981,-3.6942,-3.6942,-3.6942,-3.6942,-3.7404,-3.8328,-3.8457,-3.8643,-3.8887,-3.9892,-4.0195,-2.1733,-2.1485,-2.1922,-2.3931,-2.436,-2.5269,0.0,0.0,-2.9477,-3.147,-3.2711,-3.3781,-3.4993,-3.6507,-3.7943,-3.9085,-4.0538,-4.1639,-4.1951,-4.2551,-4.2975,-4.2951,-4.3662,-4.4509,-4.5364,-4.5537,-4.5594,-4.5594,-4.5594,-4.5594,-4.5594,-4.5594,-4.5594,-4.5594,-4.5594,-4.5438,-4.5096,-4.5063,-4.5063,-4.5096,-4.5063,-4.5232,-4.5594,-4.5594,-4.5673,-4.5816,-4.5994,-4.6149,-4.6289,-4.6289,-4.6308,-4.6308,-4.6308,-4.6308,-4.6308,-4.6308,-4.6308,-4.6308,-4.6308,-4.6308,-4.6308,-4.6308,-4.6308,-4.6308,-4.6308,-4.6223,-4.6119,-4.6119,-4.603,-4.5914,-4.5832,-4.5816,-4.5775,-4.5627,-4.5594,-4.5594,-4.5594,-4.5594,-4.5594,-4.5594,-4.5594,-4.5594,-4.5594,-4.5594,-4.5267,-4.4316,-4.4085,-4.3758,-4.3047,-4.22,-4.1662,-4.1662,-4.095,-4.0496,-4.0496,-3.9765,-3.9265,-3.9169,-3.843,-3.7969,-3.7853,-3.7853,-3.7853,-3.7853,-3.7853,-3.8291,-3.9179,-3.9249,-3.9699,-4.0563,-4.1564,-4.1276,-2.523,-2.5709,-2.6241,0.0,-2.7994,-2.9042,-3.0782,-3.1229,-3.179,-3.3675,-3.4829,-3.5929,-3.7435,-3.8277,-3.9227,0.0,-4.1474,-4.2279,-4.3312,-4.3285,-4.3308,-4.3756,-4.4105,-4.4432,-4.4797,-4.5306,-4.5594,-4.5594,-4.5594,-4.5594,-4.5594,-4.5594,-4.5594,-4.5594,-4.5594,-4.5438,-4.5096,-4.5096,-4.5096,-4.5096,-4.5096,-4.5282,-4.5594,-4.5594,-4.5684,-4.5876,-4.6108,-4.6247,-4.6308,-4.6308,-4.6308,-4.6308,-4.6308,-4.6308,-4.6308,-4.6308,-4.6308,-4.6308,-4.6308,-4.6308,-4.6308,-4.6308,-4.6308,-4.6308,-4.6308,-4.6201,-4.6108,-4.6108,-4.5979,-4.585,-4.5816,-4.574,-4.5673,-4.5612,-4.5594,-4.5594,-4.5594,-4.5594,-4.5594,-4.5594,-4.5594,-4.5594,-4.5594,-4.5594,-4.5479,-4.5114,-4.4624,-4.4182,-4.3835,-4.3066,-4.2394,-4.1947,-4.152,-4.1099,-4.0707,-4.0261,-4.0022,-4.0108,-3.9709,-3.9457,-3.9457,-3.9457,-3.9457,-3.9457,-3.9457,-3.9631,-3.9996,-4.0101,-4.0645,-4.1564,-4.2064,-4.223,-2.7631,-2.8584,0.0,-2.9925,-3.1261,-3.2474,-3.2668,-3.3246,-3.4106,-3.5302,-3.6251,-3.7222,-3.8365,-3.8994,-3.9822,-4.1332,-4.1983,-4.2788,-4.4237,-4.3909,-4.3627,-4.3929,-4.397,-4.397,-4.397,-4.496,-4.562,-4.564,-4.5629,-4.562,-4.564,-4.5629,-4.5594,-4.5594,-4.5594,-4.5485,-4.5232,-4.5232,-4.5232,-4.5232,-4.5232,-4.5381,-4.5614,-4.592,-4.6144,-4.6344,-4.6805,-4.6875,-4.666,-4.666,-4.6523,-4.6308,-4.6308,-4.6308,-4.6308,-4.6308,-4.6308,-4.6308,-4.6308,-4.6308,-4.6308,-4.6308,-4.6308,-4.6289,-4.6267,-4.6147,-4.6039,-4.6014,-4.5885,-4.5747,-4.5747,-4.5673,-4.5594,-4.5594,-4.5594,-4.5594,-4.5594,-4.5594,-4.5594,-4.5594,-4.5594,-4.5594,-4.5594,-4.5594,-4.5594,-4.5594,-4.5056,-4.4662,-4.4662,-4.3932,-4.3142,-4.2375,-4.2229,-4.1854,-4.1144,-4.0984,-4.0839,-4.0668,-4.0582,-4.053,-4.0496,-4.0496,-4.0496,-4.0496,-4.0746,-4.0854,-4.0862,-4.1207,-4.1745,-4.2463,-4.2802,-4.3352,-2.7846,0.0,-2.965,-3.1938,-3.3748,-3.5208,-3.6044,-3.6856,-3.7281,-3.6764,-3.7405,-3.7794,-3.6939,-3.8215,-3.9657,-4.0411,-4.1966,-4.3363,-4.419,-4.4286,-4.3998,-4.322,-4.3143,-4.3143,0.0,-4.4624,-4.564,-4.5776,-4.5673,-4.5668,-4.5783,-4.5673,-4.5594,-4.5594,-4.5594,-4.5605,-4.5586,-4.5586,-4.5586,-4.5586,-4.5586,-4.5586,-4.565,-4.6671,-4.7225,-4.742,-4.8395,-4.834,-4.7558,-4.7558,-4.7051,-4.6308,-4.6308,-4.6308,-4.6308,-4.6308,-4.6308,-4.6308,-4.6308,-4.6308,-4.6308,-4.6308,-4.6308,-4.6288,-4.6145,-4.6005,-4.5881,-4.582,-4.5715,-4.5603,-4.5603,-4.5594,-4.5594,-4.5594,-4.5594,-4.5594,-4.5594,-4.5594,-4.5594,-4.5594,-4.5594,-4.5594,-4.5594,-4.5594,-4.5594,-4.5594,-4.5575,-4.5556,-4.5556,-4.4797,-4.3951,-4.3151,-4.3047,-4.2701,-4.1851,-4.1879,-4.1532,-4.0577,-4.063,-4.0643,-4.0504,-4.0496,-4.0496,-4.0496,-4.1335,-4.175,-4.175,-4.2613,-4.3143,-4.3389,-4.4234,-4.4741,-2.9388,0.0,-3.2888,-3.4247,-3.5821,-3.7103,-3.7387,-3.7667,-3.7817,-3.7608,-3.7385,-3.7305,-3.7516,-3.7617,-3.8472,-4.0954,-4.1854,-4.2912,-4.4902,-4.4662,-4.3989,-4.3201,-4.3566,0.0,0.0,0.0,0.0,-4.5618,-4.5637,-4.5629,-4.5665,-4.5618,-4.5594,-4.5594,-4.5594,-4.5883,-4.6471,-4.6471,-4.674,-4.7259,-4.7344,-4.7395,-4.741,-4.7944,-4.822,-4.8281,-4.8707,-4.873,-4.8418,-4.7832,-4.7422,-4.7109,-4.6523,-4.6308,-4.6308,-4.6308,-4.6308,-4.6308,-4.6308,-4.6308,-4.6308,-4.6308,-4.6308,-4.6269,-4.6144,-4.6021,-4.5896,-4.5828,-4.57,-4.5594,-4.5594,-4.5594,-4.5594,-4.5594,-4.5594,-4.5594,-4.5594,-4.5594,-4.5594,-4.5594,-4.5594,-4.5594,-4.5594,-4.5594,-4.5594,-4.5594,-4.5594,-4.5594,-4.5594,-4.5344,-4.4875,-4.4112,-4.3956,-4.362,-4.292,-4.2819,-4.2654,-4.2298,-4.2338,-4.2318,-4.2228,-4.222,-4.222,-4.222,-4.2508,-4.2662,-4.2662,-4.297,-4.3446,-4.4137,-4.4525,-4.5063,-3.1415,-3.318,-3.4799,-3.6584,-3.7815,-3.8568,-3.8562,-3.8562,-3.831,-3.7371,-3.6535,-3.6033,-3.617,-3.58,-3.6571,-3.9896,-4.095,-4.222,-4.4786,-4.4643,-4.4105,-4.3585,-4.372,-4.3778,0.0,0.0,0.0,-4.5636,-4.5648,-4.5624,-4.5694,-4.564,-4.5594,-4.5594,-4.5893,-4.6336,-4.6885,-4.7192,-4.7612,-4.818,-4.8263,-4.8348,-4.8462,-4.8941,-4.9189,-4.9262,-4.9627,-4.9629,-4.9316,-4.8769,-4.8164,-4.7539,-4.6973,-4.6562,-4.6308,-4.6308,-4.6308,-4.6308,-4.6308,-4.6308,-4.6308,-4.6308,-4.6268,-4.6201,-4.6075,-4.5948,-4.5845,-4.5756,-4.5665,-4.5594,-4.5594,-4.5594,-4.5594,-4.5594,-4.5594,-4.5594,-4.5594,-4.5594,-4.5594,-4.5594,-4.5594,-4.5594,-4.5594,-4.5643,-4.5673,-4.5673,-4.5696,-4.5669,-4.5612,-4.5594,-4.5415,-4.4935,-4.4823,-4.448,-4.3774,-4.3685,-4.3524,-4.3199,-4.3226,-4.3214,-4.3102,-4.3127,-4.3127,-4.3104,-4.3374,-4.3528,-4.3528,-4.3898,-4.437,-4.4976,-4.5089,-4.5453,-3.3719,-3.4683,-3.5557,-3.8779,-3.9606,-3.9595,-3.9607,-3.9505,-3.8685,-3.6156,-3.4922,-3.401,0.0,0.0,-3.4104,-3.7401,-3.9388,-4.1389,-4.3932,-4.4344,-4.4352,0.0,0.0,0.0,0.0,0.0,0.0,-4.5822,0.0,-4.5684,-4.5872,-4.5752,-4.5671,-4.5671,-4.6509,-4.6981,-4.7019,-4.7845,-4.8315,-4.8437,-4.8438,-4.8584,-4.8864,-4.9688,-5.0142,-5.0293,-5.1074,-5.0976,-5.0254,-5.0215,-4.9238,-4.7715,-4.7637,-4.709,-4.6367,-4.6328,-4.6308,-4.6308,-4.6308,-4.6308,-4.6308,-4.6308,-4.6203,-4.6082,-4.5936,-4.5855,-4.5776,-4.5643,-4.5594,-4.5594,-4.5594,-4.5594,-4.5594,-4.5594,-4.5594,-4.5594,-4.5594,-4.5594,-4.5594,-4.5594,-4.5594,-4.5594,-4.5612,-4.5723,-4.5803,-4.579,-4.5861,-4.5825,-4.5643,-4.5612,-4.5603,-4.5594,-4.5594,-4.5267,-4.4432,-4.4498,-4.4179,-4.3275,-4.341,-4.3419,-4.3236,-4.3296,-4.329,-4.3228,-4.3987,-4.4372,-4.4372,-4.5341,-4.5816,-4.5816,-4.5872,-4.5907,-3.4414,-3.6484,-3.8578,-3.9453,-3.9643,-3.9607,-3.9603,-3.8097,-3.6324,-3.4998,-3.3067,-3.1492,0.0,0.0,0.0,-3.6489,-3.9071,0.0,-4.3957,-4.4944,0.0,-4.4399,0.0,-4.4786,-4.4335,-4.4914,0.0,0.0,-4.5783,-4.5733,-4.5681,-4.6243,-4.6567,-4.6567,-4.7375,-4.8105,-4.8759,-4.9708,-5.0205,-5.0238,-5.0383,-5.0504,-5.0562,-5.0908,-5.1053,-5.1113,-5.1308,-5.1289,-5.1055,-5.0449,-4.9941,-4.9414,-4.8105,-4.7461,-4.7187,-4.6543,-4.6308,-4.6308,-4.6308,-4.6308,-4.6308,-4.6308,-4.6288,-4.6201,-4.5978,-4.59,-4.5839,-4.5645,-4.5594,-4.5594,-4.5594,-4.5594,-4.5594,-4.5594,-4.5594,-4.5594,-4.5594,-4.5594,-4.5594,-4.5594,-4.5594,-4.5627,-4.5725,-4.5789,-4.5821,-4.5876,-4.5881,-4.5862,-4.5763,-4.5747,-4.5715,-4.5612,-4.5594,-4.5518,-4.5287,-4.5402,-4.5315,-4.4987,-4.5104,-4.5124,-4.4968,-4.4972,-4.498,-4.496,-4.5248,-4.5425,-4.5425,-4.5725,-4.5872,-4.5877,-4.5988,-4.6045,-3.6472,-3.8301,-3.989,-4.0261,-4.0049,-3.9421,-3.8287,-3.6588,-3.4688,-3.2674,-3.0784,0.0,-2.9442,-3.0121,0.0,0.0,0.0,0.0,-4.3472,-4.4961,-4.558,0.0,-4.5306,0.0,-4.4921,-4.5371,-4.5692,0.0,-4.5715,-4.5708,-4.5696,-4.6465,-4.6904,-4.6904,-4.8048,-4.9086,-4.9952,-5.0596,-5.0932,-5.0991,-5.1121,-5.1236,-5.1294,-5.1366,-5.1406,-5.1406,-5.1406,-5.1406,-5.1367,-5.0918,-5.0487,-5.0011,-4.9101,-4.824,-4.7453,-4.703,-4.6621,-4.6308,-4.6308,-4.6308,-4.6308,-4.6308,-4.6268,-4.6174,-4.5951,-4.5881,-4.5825,-4.5648,-4.5594,-4.5594,-4.5594,-4.5594,-4.5594,-4.5594,-4.5594,-4.5594,-4.5594,-4.5594,-4.5594,-4.5594,-4.5594,-4.5643,-4.5789,-4.582,-4.5876,-4.5974,-4.6039,-4.6018,-4.5855,-4.5828,-4.5747,-4.562,-4.5594,-4.5594,-4.5594,-4.5673,-4.5688,-4.5603,-4.5737,-4.574,-4.5603,-4.5668,-4.5657,-4.5594,-4.5725,-4.5803,-4.5803,-4.5933,-4.5967,-4.5903,-4.5981,-4.6001,-3.8863,-3.9869,-4.0195,-4.0859,-4.0293,-3.8906,-3.6406,-3.498,-3.3261,-3.0008,0.0,-2.7909,-2.7797,-2.8518,-3.028,-3.3764,0.0,-4.0202,-4.2826,-4.4628,-4.564,-4.5601,-4.5594,-4.5594,-4.5594,-4.5708,-4.5737,-4.5612,-4.5594,-4.5698,-4.593,-4.6651,-4.7182,-4.7413,-4.8817,-4.9933,-5.0693,-5.0851,-5.0985,-5.1094,-5.1196,-5.1294,-5.1406,-5.1406,-5.1406,-5.1406,-5.1406,-5.1406,-5.1406,-5.1386,-5.0887,-5.0152,-5.0145,-4.9164,-4.773,-4.7611,-4.7109,-4.6465,-4.6348,-4.6308,-4.6308,-4.6308,-4.6223,-4.611,-4.5974,-4.5876,-4.5796,-4.5665,-4.5612,-4.5594,-4.5594,-4.5594,-4.5594,-4.5594,-4.5594,-4.5594,-4.5594,-4.5594,-4.5594,-4.5594,-4.5594,-4.5643,-4.5789,-4.5859,-4.5939,-4.608,-4.62,-4.6177,-4.5928,-4.5859,-4.5756,-4.562,-4.5594,-4.5594,-4.5594,-4.5594,-4.5594,-4.5594,-4.5708,-4.573,-4.5603,-4.5715,-4.5723,-4.5594,-4.5725,-4.579,-4.5815,-4.5986,-4.6011,-4.5924,-4.5907,-4.5862,-3.9309,-4.0239,-4.0704,-4.0233,-3.8926,-3.7246,-3.5351,-3.3184,0.0,0.0,-2.7762,-2.6883,-2.6176,-2.7277,-2.9431,-3.2879,-3.5783,-3.8922,-4.2664,-4.4173,-4.5068,0.0,-4.5594,-4.5594,-4.5594,-4.5629,0.0,0.0,-4.5594,-4.5911,-4.6677,-4.745,-4.8548,-4.999,-5.0327,-5.0558,-5.0712,-5.0945,-5.1088,-5.1094,-5.1281,-5.1386,-5.1406,-5.1406,-5.1406,-5.1406,-5.1406,-5.1406,-5.1386,-5.1271,-5.1134,-5.0925,-5.0162,-4.9747,-4.9386,-4.7969,-4.741,-4.7266,-4.6543,-4.6308,-4.6308,-4.6308,-4.6289,-4.6246,-4.611,-4.5978,-4.5862,-4.5783,-4.5696,-4.5594,-4.5594,-4.5594,-4.5594,-4.5594,-4.5594,-4.5594,-4.5594,-4.5594,-4.5594,-4.5594,-4.5594,-4.5643,-4.5789,-4.5803,-4.588,-4.6072,-4.6117,-4.608,-4.5916,-4.5881,-4.5811,-4.5618,-4.5594,-4.5594,-4.5594,-4.5594,-4.5594,-4.5594,-4.561,-4.5618,-4.5594,-4.561,-4.5618,-4.5594,-4.5725,-4.5826,-4.5886,-4.5912,-4.5981,-4.6053,-4.5944,-4.589,-3.9291,-4.0262,-4.0806,-4.0005,-3.8532,-3.6601,-3.4004,0.0,0.0,0.0,-2.6549,-2.6109,-2.568,-2.7007,0.0,-3.1588,-3.3812,-3.6795,-4.132,-4.2374,0.0,-4.5368,-4.5594,-4.5594,0.0,-4.5594,-4.5787,-4.624,-4.6278,-4.6471,-4.6885,-4.8086,-4.9375,-5.0654,-5.0712,-5.0712,-5.0712,-5.0979,-5.1089,-5.1094,-5.1307,-5.1406,-5.1406,-5.1406,-5.1406,-5.1406,-5.1406,-5.1365,-5.1295,-5.1234,-5.1135,-5.1011,-5.0641,-5.0209,-4.9703,-4.8923,-4.8454,-4.8111,-4.7681,-4.7301,-4.7051,-4.7519,-4.7031,-4.6366,-4.6672,-4.6733,-4.6656,-4.6523,-4.6426,-4.6252,-4.5744,-4.5594,-4.5594,-4.5594,-4.5594,-4.5594,-4.5594,-4.5594,-4.5594,-4.5594,-4.5594,-4.5643,-4.5789,-4.5803,-4.5872,-4.6069,-4.6039,-4.5978,-4.5907,-4.5862,-4.5783,-4.5629,-4.5594,-4.5594,-4.5594,-4.5594,-4.5594,-4.5594,-4.5594,-4.5594,-4.5594,-4.5594,-4.5594,-4.5594,-4.5725,-4.5821,-4.5859,-4.5891,-4.5928,-4.5992,-4.5881,-4.5859,-3.9121,-4.0146,-4.0688,-3.9679,-3.8207,-3.6112,-3.2695,-3.0566,0.0,0.0,-2.561,-2.561,-2.561,0.0,-2.8312,0.0,-3.2011,-3.4785,-3.9583,-4.0722,-4.2114,0.0,-4.5498,0.0,-4.5594,-4.5768,0.0,-4.6846,-4.724,-4.7451,-4.7451,-4.8856,-4.999,-5.0673,-5.0712,-5.0712,-5.0712,-5.0939,-5.1063,-5.1094,-5.1279,-5.1366,-5.1406,-5.1406,-5.1406,-5.1406,-5.1406,-5.1321,-5.1201,-5.1185,-5.1069,-5.0923,-5.0985,-5.0546,-4.9863,-4.9786,-4.9426,-4.8955,-4.876,-4.8344,-4.7988,-4.8672,-4.7851,-4.6718,-4.7484,-4.7701,-4.7652,-4.7495,-4.7403,-4.7138,-4.6163,-4.5898,-4.5825,-4.5633,-4.5594,-4.5594,-4.5594,-4.5594,-4.5594,-4.5594,-4.5594,-4.5627,-4.5733,-4.5761,-4.5828,-4.6001,-4.5939,-4.5881,-4.5881,-4.5825,-4.5747,-4.562,-4.5594,-4.5594,-4.5594,-4.5594,-4.5594,-4.5594,-4.5594,-4.5594,-4.5594,-4.5594,-4.5594,-4.5594,-4.57,-4.5763,-4.5803,-4.5817,-4.5852,-4.5877,-4.5803,-4.5761,-3.8932,-4.0048,-4.0369,-3.8895,-3.7265,-3.515,-3.1796,0.0,0.0,-2.6074,-2.5683,-2.5683,-2.5683,-2.582,-2.6758,0.0,0.0,-3.3631,0.0,-4.0465,-4.2525,-4.4226,0.0,0.0,-4.5594,-4.6317,-4.6817,-4.6885,-4.8317,-4.9163,-4.9163,-5.0067,-5.0616,-5.0712,-5.0712,-5.0712,-5.0712,-5.0844,-5.0979,-5.1094,-5.1174,-5.1273,-5.1406,-5.1406,-5.1406,-5.1406,-5.1406,-5.1321,-5.1199,-5.1137,-5.102,-5.0894,-5.0773,-5.0758,-5.0695,-4.9901,-4.9722,-4.9777,-4.8974,-4.8735,-4.8789,-4.8867,-4.8262,-4.7637,-4.8496,-4.8681,-4.8589,-4.856,-4.8389,-4.7991,-4.7171,-4.687,-4.6586,-4.5787,-4.5594,-4.5594,-4.5594,-4.5594,-4.5594,-4.5594,-4.5594,-4.5603,-4.562,-4.562,-4.5665,-4.5822,-4.5815,-4.5803,-4.5803,-4.579,-4.5747,-4.562,-4.5594,-4.5594,-4.5594,-4.5594,-4.5594,-4.5594,-4.5594,-4.5594,-4.5594,-4.5594,-4.5594,-4.5594,-4.5612,-4.568,-4.5803,-4.5685,-4.57,-4.5822,-4.5688,-4.562,-3.6717,-3.8104,-3.8932,-3.7838,-3.6338,-3.4386,-3.1542,0.0,-2.7812,-2.6055,-2.5703,-2.5703,-2.5703,-2.5703,-2.6191,-2.7728,-2.8068,-2.9778,-3.4441,-3.6032,-3.8216,-4.231,-4.3605,0.0,0.0,0.0,-4.7223,-4.8001,-4.9138,-4.9819,-4.9819,-5.0392,-5.0712,-5.0712,-5.0712,-5.0712,-5.0712,-5.0827,-5.0959,-5.1094,-5.1164,-5.1268,-5.1406,-5.1406,-5.1406,-5.1406,-5.1406,-5.1321,-5.1196,-5.1124,-5.1027,-5.0886,-5.0748,-5.073,-5.0735,-5.0379,-5.0378,-5.0494,-5.0239,-4.9892,-4.9654,-5.0214,-4.9844,-4.9238,-4.957,-4.9647,-4.958,-4.9519,-4.9412,-4.9106,-4.8181,-4.7475,-4.6789,-4.5821,-4.5594,-4.5594,-4.5594,-4.5594,-4.5594,-4.5594,-4.5594,-4.5594,-4.5594,-4.5594,-4.5651,-4.5776,-4.5725,-4.5708,-4.579,-4.5725,-4.5657,-4.5603,-4.5594,-4.5594,-4.5594,-4.5594,-4.5594,-4.5594,-4.5594,-4.5594,-4.5594,-4.5594,-4.5594,-4.5594,-4.5594,-4.5637,-4.5688,-4.5637,-4.5637,-4.568,-4.5618,-4.5594,-3.4814,-3.6415,-3.7569,-3.6806,-3.5382,-3.353,0.0,-2.918,-2.748,-2.6016,-2.5703,-2.5703,-2.5703,-2.5703,-2.5898,0.0,-2.6444,-2.785,-3.2116,-3.3409,-3.5699,0.0,0.0,-4.3334,0.0,-4.6205,-4.7522,-4.858,-4.9548,-5.0092,-5.0092,-5.0483,-5.0712,-5.0712,-5.0712,-5.0712,-5.0712,-5.078,-5.0932,-5.1094,-5.1156,-5.1256,-5.1406,-5.1406,-5.1406,-5.1406,-5.1406,-5.1321,-5.1196,-5.1124,-5.1027,-5.0886,-5.0748,-5.0712,-5.0712,-5.0712,-5.0782,-5.0911,-5.101,-5.0731,-5.0467,-5.1123,-5.0975,-5.0547,-5.0547,-5.0547,-5.0546,-5.0436,-5.0206,-4.9828,-4.9079,-4.8204,-4.7327,-4.658,-4.6389,-4.6331,-4.6073,-4.6015,-4.5938,-4.5706,-4.5685,-4.5688,-4.5665,-4.5685,-4.5713,-4.579,-4.573,-4.568,-4.5725,-4.5648,-4.5594,-4.5594,-4.5594,-4.5594,-4.5594,-4.5594,-4.5594,-4.5594,-4.5594,-4.5594,-4.5594,-4.5594,-4.5594,-4.5594,-4.5594,-4.5594,-4.5594,-4.5594,-4.5594,-4.5594,-4.5594,-4.5748,-3.3763,-3.543,-3.655,-3.5888,-3.4395,-3.2505,-3.0152,-2.8262,-2.6758,-2.5879,-2.5703,-2.5703,-2.5703,-2.5703,-2.5703,-2.5703,-2.7094,-2.9074,-3.1648,-3.4078,-3.653,0.0,0.0,-4.2162,-4.3047,-4.5769,-4.7718,-4.8272,-4.9423,-5.0092,-5.0092,-5.0483,-5.0712,-5.0712,-5.0712,-5.0712,-5.0712,-5.0693,-5.0827,-5.1089,-5.1094,-5.1206,-5.1406,-5.1406,-5.1406,-5.1406,-5.1406,-5.1321,-5.1196,-5.1124,-5.1027,-5.0886,-5.0748,-5.0712,-5.0712,-5.0712,-5.0782,-5.0908,-5.0889,-5.1035,-5.1184,-5.1204,-5.1295,-5.1387,-5.1387,-5.1387,-5.1387,-5.1387,-5.0713,-4.9964,-4.9815,-4.9147,-4.8453,-4.8309,-4.8282,-4.8042,-4.7177,-4.6996,-4.6751,-4.5951,-4.5845,-4.5877,-4.5809,-4.585,-4.5877,-4.5809,-4.5796,-4.5754,-4.5629,-4.5594,-4.5594,-4.5594,-4.5594,-4.5594,-4.5594,-4.5594,-4.5594,-4.5594,-4.5594,-4.5594,-4.5594,-4.5594,-4.5594,-4.5594,-4.5594,-4.5594,-4.5594,-4.5594,-4.5594,-4.5594,-4.5594,-4.6067,-3.0262,-3.157,-3.243,-3.2259,-3.1385,-3.0242,-2.9002,-2.7812,-2.6758,-2.5879,-2.5703,-2.5703,-2.5703,-2.5703,-2.6269,-2.8019,-2.8731,0.0,0.0,0.0,0.0,-3.9293,-4.2484,-4.485,0.0,0.0,-4.6739,-4.7681,-4.8459,-4.8972,-4.9191,-5.0157,-5.0712,-5.0712,-5.0712,-5.0712,-5.0712,-5.0712,-5.0827,-5.1089,-5.1089,-5.1206,-5.1406,-5.1406,-5.1406,-5.1406,-5.1406,-5.1321,-5.1196,-5.1124,-5.1027,-5.0886,-5.0748,-5.0712,-5.0712,-5.0712,-5.0721,-5.0773,-5.0863,-5.1002,-5.1145,-5.1185,-5.1295,-5.1406,-5.1406,-5.1406,-5.1406,-5.1406,-5.1191,-5.0792,-5.0101,-4.9733,-4.9345,-4.8609,-4.8378,-4.8224,-4.7946,-4.7817,-4.7518,-4.6709,-4.66,-4.6474,-4.5906,-4.5855,-4.5885,-4.5867,-4.5862,-4.5846,-4.5817,-4.577,-4.5733,-4.5733,-4.5648,-4.5594,-4.5594,-4.5594,-4.5594,-4.5594,-4.5594,-4.5594,-4.5594,-4.5594,-4.5594,-4.5594,-4.5594,-4.5594,-4.5594,-4.5594,-4.5913,-4.649,-4.649,-4.6932,0.0,-2.9062,-3.0023,-3.0092,-2.9511,-2.8759,-2.7987,-2.7148,-2.6367,-2.5801,-2.5703,-2.5703,-2.5703,-2.5683,-2.6187,-2.7804,-2.8325,0.0,0.0,0.0,0.0,-4.0157,0.0,0.0,0.0,-4.5894,-4.6228,-4.6809,-4.7574,-4.8099,-4.8303,-4.9207,-4.9721,-4.9721,-5.0366,-5.0712,-5.0712,-5.0712,-5.0827,-5.1089,-5.1089,-5.1206,-5.1406,-5.1406,-5.1406,-5.1406,-5.1344,-5.1271,0.0,-5.1074,-5.0972,-5.0886,-5.0748,-5.0712,-5.0712,-5.0712,-5.0712,-5.0712,-5.0799,-5.0952,-5.1103,-5.116,-5.1261,-5.1406,-5.1406,-5.1406,-5.1406,-5.1406,-5.1406,-5.1269,-5.0673,-5.0531,-5.0365,-4.9676,-4.9443,-4.9307,-4.8928,-4.8811,-4.8512,-4.7661,-4.7572,-4.7485,-4.697,-4.6968,-4.7014,-4.6963,-4.6959,-4.6945,-4.6885,-4.6552,-4.6293,-4.6293,-4.6171,-4.5951,-4.5633,-4.5594,-4.5594,-4.5594,-4.5594,-4.5594,-4.5594,-4.5594,-4.5594,-4.5594,-4.5594,-4.5768,-4.6086,-4.6394,-4.6817,-4.7355,-4.7355,-4.7798,0.0,-2.746,-2.8764,-2.8838,-2.8337,-2.7645,-2.6893,-2.6133,0.0,-2.5605,-2.5664,-2.5723,-2.5781,-2.5696,-2.5727,-2.6093,-2.679,0.0,0.0,-3.4048,0.0,0.0,-4.2881,0.0,-4.388,-4.5314,-4.6102,-4.5815,-4.6807,-4.7438,-4.7461,-4.7864,-4.8105,-4.8105,-4.9663,-5.0539,-5.0616,-5.0673,-5.0819,-5.1098,-5.1108,-5.1203,-5.1386,-5.1406,-5.1406,-5.1387,-5.1268,-5.1204,-5.1185,-5.0983,-5.0903,-5.0894,-5.0766,-5.0712,-5.0712,-5.0712,-5.0702,-5.0712,-5.0712,-5.0871,-5.1094,-5.1113,-5.1257,-5.1406,-5.1406,-5.1406,-5.1406,-5.1406,-5.1406,-5.1406,-5.1406,-5.1406,-5.1366,-5.124,-5.1206,-5.0968,-5.0081,-4.9897,-4.9625,-4.875,-4.8684,-4.876,-4.8708,-4.88,-4.8865,-4.8722,-4.8714,-4.8677,-4.8542,-4.775,-4.7198,-4.7198,-4.7066,-4.6663,-4.5845,-4.5787,-4.5748,-4.571,-4.5748,-4.5787,-4.5787,-4.5787,-4.5787,-4.5787,-4.5787,-4.6182,-4.6981,-4.774,-4.8125,-4.8202,-4.8202,-4.8663,-2.2485,0.0,-2.4374,-2.4397,-2.4356,-2.4256,0.0,-2.4373,-2.4707,0.0,0.0,0.0,-2.6562,-2.6087,-2.6705,-3.0117,0.0,0.0,-3.5462,0.0,0.0,-4.4542,-4.5107,-4.5215,-4.5185,-4.53,-4.5456,-4.5629,-4.6233,-4.6721,-4.7012,-4.7703,-4.8105,-4.8105,-4.8509,-4.9029,-4.9702,-5.0366,-5.0782,-5.0959,-5.1042,-5.1148,-5.1244,-5.1345,-5.1406,-5.1406,-5.1366,-5.1275,-5.1111,-5.1069,-5.0991,-5.0901,-5.0875,-5.0859,-5.0859,-5.0859,-5.0791,-5.0712,-5.0712,-5.0871,-5.1122,-5.1277,-5.1364,-5.1406,-5.1406,-5.1406,-5.1406,-5.1406,-5.1406,-5.1406,-5.1406,-5.1406,-5.1386,-5.1365,-5.127,-5.1124,-5.0845,-5.0797,-5.0514,-4.953,-4.9534,-4.9484,-4.8806,-4.88,-4.8886,-4.8865,-4.8845,-4.8844,-4.88,-4.8435,-4.8176,-4.8176,-4.7963,-4.774,-4.7528,-4.7509,-4.7259,-4.6624,-4.7163,-4.7509,-4.7509,-4.7509,-4.7509,-4.7509,-4.7509,-4.7605,-4.7817,-4.8009,-4.8432,-4.9086,-4.9086,-4.9548,-2.0942,-2.2477,-2.4054,-2.408,-2.4466,-2.4844,-2.4876,0.0,0.0,0.0,0.0,0.0,0.0,0.0,0.0,0.0,-3.1628,0.0,0.0,0.0,-4.3933,-4.5609,-4.577,-4.5722,-4.562,-4.5429,-4.541,-4.5586,-4.5832,-4.6062,-4.6288,-4.6721,-4.6951,-4.6951,-4.7336,-4.8144,-4.9394,-4.9875,-5.037,-5.0889,-5.1045,-5.1137,-5.1206,-5.1343,-5.1406,-5.1406,-5.1323,-5.1252,-5.1129,-5.1117,-5.1067,-5.0991,-5.0991,-5.0991,-5.0985,-5.0918,-5.0859,-5.0799,-5.0799,-5.0946,-5.1177,-5.1342,-5.1406,-5.1406,-5.1406,-5.1406,-5.1406,-5.1406,-5.1406,-5.1406,-5.1406,-5.1406,-5.1406,-5.1406,-5.1344,-5.1263,-5.1174,-5.1152,-5.0981,-5.0432,-5.0442,-5.041,-5.0005,-4.9997,-5.0058,-5.0058,-5.0058,-5.0019,-4.9952,-4.9448,-4.9075,-4.9002,-4.8821,-4.8529,-4.8125,-4.8836,-4.8779,-4.7528,-4.7855,-4.8105,-4.8105,-4.8105,-4.8105,-4.8105,-4.849,-4.8702,-4.8702,-4.9106,-4.9529,-4.999,-4.999,-5.025,-2.0615,-2.2987,-2.5316,-2.499,-2.5701,-2.6475,0.0,0.0,0.0,0.0,0.0,0.0,0.0,0.0,0.0,0.0,0.0,0.0,-4.0528,-4.3103,-4.4815,-4.5699,-4.57,-4.561,-4.5594,-4.5594,-4.5594,-4.5594,-4.5594,-4.5594,-4.5594,-4.5594,-4.5594,-4.5594,-4.6317,-4.7451,-4.899,-4.926,-4.9832,-5.067,-5.0956,-5.1128,-5.1188,-5.1322,-5.1406,-5.1387,-5.1271,-5.121,-5.1199,-5.1141,-5.1122,-5.1122,-5.1122,-5.1122,-5.1108,-5.099,-5.094,-5.0939,-5.0946,-5.1064,-5.1213,-5.1365,-5.1406,-5.1406,-5.1406,-5.1406,-5.1406,-5.1406,-5.1406,-5.1406,-5.1406,-5.1406,-5.1406,-5.1406,-5.1406,-5.1366,-5.1234,-5.123,-5.1213,-5.1204,-5.121,-5.1268,-5.1386,-5.1406,-5.1406,-5.1406,-5.1406,-5.1365,-5.1242,-5.0501,-4.995,-4.9847,-4.9699,-4.9298,-4.8567,-4.9856,-5.0067,-4.8586,-4.8509,-4.8509,-4.8509,-4.8509,-4.8509,-4.8509,-4.9221,-4.9606,-4.9606,-5.0346,-5.0712,-5.0712,-5.0712,-5.0712,-2.2023,-2.3845,-2.481,-2.2727,-2.3419,-2.443,-2.3764,0.0,0.0,0.0,0.0,0.0,0.0,0.0,-2.9861,0.0,0.0,-3.9503,0.0,0.0,-4.4815,-4.5706,0.0,-4.5718,-4.5612,-4.5594,-4.5594,-4.5594,-4.5594,-4.5594,-4.5594,-4.5594,-4.5594,-4.5594,-4.5729,-4.6278,-4.7278,-4.8682,-4.9471,-4.9633,-5.0629,-5.1103,-5.1126,-5.1312,-5.1406,-5.1406,-5.1386,-5.1297,-5.1201,-5.1191,-5.1185,-5.1185,-5.1185,-5.1185,-5.1185,-5.1154,-5.1113,-5.1079,-5.1121,-5.1166,-5.1213,-5.1365,-5.1406,-5.1406,-5.1406,-5.1406,-5.1406,-5.1406,-5.1406,-5.1406,-5.1406,-5.1406,-5.1406,-5.1406,-5.1406,-5.1366,-5.1234,-5.1294,-5.1342,-5.1213,-5.1295,-5.1386,-5.1406,-5.1406,-5.1406,-5.1406,-5.1406,-5.1387,-5.1366,-5.1099,-5.0889,-5.0869,-5.0658,-5.0462,-5.0308,-5.0558,-5.0596,-5.0327,-5.0308,-5.0308,-5.0308,-5.0308,-5.0308,-5.0308,-5.0442,-5.05,-5.05,-5.0635,-5.0712,-5.0712,-5.0712,-5.0712,-2.1235,-2.3024,-2.4383,-2.3285,-2.4972,-2.6938,-2.7085,0.0,0.0,0.0,0.0,0.0,0.0,0.0,-3.2808,-3.6715,0.0,-4.1972,-4.3653,-4.4571,-4.5241,-4.5646,-4.5685,-4.5665,-4.5603,-4.5594,-4.5594,-4.5594,-4.5594,-4.5594,-4.5594,-4.5594,-4.5594,-4.5594,-4.5594,-4.5787,-4.6182,-4.7432,-4.8279,-4.873,-5.0332,-5.0841,-5.0427,-5.1096,-5.1406,-5.1406,-5.1406,-5.1366,-5.1318,-5.1318,-5.1318,-5.1318,-5.1318,-5.1318,-5.1296,-5.1234,-5.1183,-5.1154,-5.1191,-5.1242,-5.132,-5.1386,-5.1406,-5.1406,-5.1406,-5.1406,-5.1406,-5.1406,-5.1406,-5.1406,-5.1406,-5.1406,-5.1406,-5.1406,-5.1406,-5.1386,-5.1321,-5.1365,-5.1386,-5.132,-5.1365,-5.1406,-5.1406,-5.1406,-5.1406,-5.1406,-5.1406,-5.1366,-5.1297,-5.1213,-5.1105,-5.099,-5.0879,-5.0773,-5.0702,-5.0712,-5.0712,-5.0712,-5.0712,-5.0712,-5.0712,-5.0712,-5.0712,-5.0712,-5.0712,-5.0712,-5.0712,-5.0712,-5.0712,-5.0712,-5.0712,-5.0712,-2.0765,-2.247,-2.421,-2.4641,0.0,-2.8953,-3.0288,0.0,0.0,0.0,0.0,0.0,0.0,-3.2734,0.0,-4.0657,-4.255,-4.3705,-4.4534,-4.5205,-4.5594,-4.5594,-4.5594,-4.5594,-4.5594,-4.5594,-4.5594,-4.5594,-4.5594,-4.5594,-4.5594,-4.5594,-4.5594,-4.5594,-4.5594,-4.5594,-4.5594,-4.6471,-4.7212,-4.7836,-4.9595,-5.0213,-4.9828,-5.0678,-5.1191,-5.1406,-5.1406,-5.1406,-5.1406,-5.1406,-5.1406,-5.1406,-5.1406,-5.1406,-5.1386,-5.1273,-5.1242,-5.1242,-5.1242,-5.1319,-5.1406,-5.1406,-5.1406,-5.1406,-5.1406,-5.1406,-5.1406,-5.1406,-5.1406,-5.1406,-5.1406,-5.1406,-5.1406,-5.1406,-5.1406,-5.1406,-5.1406,-5.1406,-5.1406,-5.1406,-5.1406,-5.1386,-5.1365,-5.1345,-5.1344,-5.1338,-5.1337,-5.1291,-5.1206,-5.1154,-5.1072,-5.0959,-5.0894,-5.0814,-5.0702,-5.0712,-5.0712,-5.0712,-5.0712,-5.0712,-5.0712,-5.0712,-5.0712,-5.0712,-5.0712,-5.0712,-5.0712,-5.0712,-5.0712,-5.0712,-5.0712,-5.0712,-2.2156,-2.3336,-2.4476,-2.6034,-2.6659,0.0,-2.9943,-2.9989,0.0,-3.2455,0.0,0.0,0.0,-3.5828,-3.918,-4.2642,-4.3876,-4.4699,-4.557,-4.5642,-4.5594,-4.5594,-4.5594,-4.5594,-4.5594,-4.5594,-4.5594,-4.5594,-4.5594,-4.5594,-4.5594,-4.5594,-4.5594,-4.5594,-4.5594,-4.5594,-4.5594,-4.6471,-4.6923,-4.7009,-4.8029,-4.8953,-4.9809,-5.0012,-5.0573,-5.1406,-5.1406,-5.1406,-5.1406,-5.1406,-5.1406,-5.1406,-5.1406,-5.1406,-5.1406,-5.1386,-5.1386,-5.1386,-5.1386,-5.1386,-5.1406,-5.1406,-5.1406,-5.1406,-5.1406,-5.1406,-5.1406,-5.1406,-5.1406,-5.1406,-5.1406,-5.1406,-5.1406,-5.1406,-5.1406,-5.1406,-5.1406,-5.1406,-5.1406,-5.1406,-5.1406,-5.1365,-5.1238,-5.1208,-5.1188,-5.1135,-5.1117,-5.1137,-5.1196,-5.104,-5.0966,-5.1063,-5.0856,-5.0712,-5.0693,-5.0712,-5.0712,-5.0712,-5.0712,-5.0712,-5.0712,-5.0712,-5.0712,-5.0712,-5.0712,-5.0712,-5.0712,-5.0712,-5.0712,-5.0712,-5.0712,-5.0712,-2.0876,-2.2916,-2.5005,-2.5635,-2.7402,0.0,0.0,-3.225,-3.3225,-3.5833,-3.6014,0.0,0.0,0.0,-4.0786,-4.3145,-4.4132,-4.4909,-4.5749,-4.577,-4.5718,-4.5718,-4.566,-4.5594,-4.5594,-4.5594,-4.5594,-4.5594,-4.5594,-4.5594,-4.5594,-4.5594,-4.5594,-4.5594,-4.5594,-4.5594,-4.5594,-4.5932,-4.6086,-4.6114,-4.7588,-4.8262,-4.8213,-4.8875,-4.973,-5.0644,-5.0644,-5.0937,-5.1406,-5.1406,-5.1406,-5.1406,-5.1406,-5.1406,-5.1406,-5.1406,-5.1406,-5.1406,-5.1406,-5.1406,-5.1406,-5.1406,-5.1406,-5.1406,-5.1406,-5.1406,-5.1406,-5.1406,-5.1406,-5.1406,-5.1406,-5.1406,-5.1406,-5.1406,-5.1406,-5.1406,-5.1406,-5.1406,-5.1386,-5.1295,-5.1344,-5.1342,-5.117,-5.1171,-5.1177,-5.1113,-5.1089,-5.1108,-5.1137,-5.1109,-5.106,-5.0985,-5.0805,-5.0712,-5.0712,-5.0712,-5.0712,-5.0712,-5.0712,-5.0712,-5.0712,-5.0712,-5.0712,-5.0712,-5.0712,-5.0712,-5.0712,-5.0712,-5.0952,-5.1452,-5.1452,-5.1741,-2.0398,-2.2614,-2.5043,0.0,0.0,0.0,-3.3218,-3.4237,-3.5626,-3.8801,-3.864,0.0,-3.957,0.0,0.0,-4.3357,-4.4482,-4.5324,-4.5893,-4.5891,-4.582,-4.5809,-4.5723,-4.5651,-4.5603,-4.5594,-4.5594,-4.5594,-4.5594,-4.5594,-4.5594,-4.5594,-4.5594,-4.5594,-4.5594,-4.5594,-4.5594,-4.5594,-4.5594,-4.5614,-4.6851,-4.7346,-4.7198,-4.7898,-4.8771,-4.9723,-4.9765,-5.0098,-5.0625,-5.0918,-5.1172,-5.1406,-5.1406,-5.1406,-5.1406,-5.1406,-5.1406,-5.1406,-5.1406,-5.1406,-5.1406,-5.1406,-5.1406,-5.1406,-5.1406,-5.1406,-5.1406,-5.1406,-5.1406,-5.1406,-5.1406,-5.1406,-5.1406,-5.1406,-5.1406,-5.1406,-5.1406,-5.1406,-5.1366,-5.1273,-5.1343,-5.1339,-5.1135,-5.1141,-5.1125,-5.0984,-5.0972,-5.0991,-5.1039,-5.1035,-5.1089,-5.1207,-5.1133,-5.1183,-5.1471,-5.1491,-5.1491,-5.1491,-5.1491,-5.1241,-5.0731,-5.0712,-5.0712,-5.0712,-5.0712,-5.0712,-5.0712,-5.0952,-5.1356,-5.1904,-5.2173,-5.2635,-2.1268,-2.269,0.0,0.0,0.0,0.0,-3.4731,-3.557,-3.6846,-4.1129,-4.0793,-4.0281,-4.2089,-4.1758,0.0,-4.3437,-4.5044,-4.6091,-4.6091,-4.5988,-4.5877,-4.5803,-4.5803,-4.5747,-4.5612,-4.5594,-4.5594,-4.5594,-4.5594,-4.5594,-4.5594,-4.5594,-4.5594,-4.5594,-4.5594,-4.5594,-4.5594,-4.5594,-4.5594,-4.5594,-4.5594,-4.6124,-4.7088,-4.7155,-4.7738,-4.8693,-4.8824,-4.8887,-4.8965,-4.9824,-5.0664,-5.1387,-5.1387,-5.1387,-5.1406,-5.1406,-5.1406,-5.1406,-5.1406,-5.1406,-5.1406,-5.1406,-5.1406,-5.1406,-5.1406,-5.1406,-5.1406,-5.1406,-5.1406,-5.1406,-5.1406,-5.1406,-5.1406,-5.1406,-5.1406,-5.1406,-5.1406,-5.1406,-5.1406,-5.1406,-5.1406,-5.1339,-5.1131,-5.1089,-5.1016,-5.0749,-5.0712,-5.0739,-5.0886,-5.0782,-5.101,-5.1837,-5.1904,-5.225,-5.3126,-5.3203,-5.3203,-5.3203,-5.3203,-5.2452,-5.0789,-5.0731,-5.0731,-5.0731,-5.0731,-5.0731,-5.0731,-5.1529,-5.1923,-5.1942,-5.2818,-5.3222,-2.1308,0.0,0.0,0.0,0.0,0.0,0.0,-3.6837,0.0,0.0,-4.2724,-4.329,-4.332,-4.3125,-4.332,-4.4433,-4.5018,-4.5543,-4.6148,-4.6138,-4.6008,-4.5881,-4.5832,-4.5747,-4.5612,-4.5594,-4.5594,-4.5594,-4.5594,-4.5594,-4.5594,-4.5594,-4.5594,-4.5594,-4.5594,-4.5594,-4.5594,-4.5594,-4.5594,-4.5594,-4.5594,-4.5808,-4.6197,-4.6208,-4.6789,-4.7791,-4.7826,-4.8253,-4.8926,-4.918,-4.9785,-5.0566,-5.0566,-5.0898,-5.1406,-5.1406,-5.1406,-5.1406,-5.1406,-5.1406,-5.1406,-5.1406,-5.1406,-5.1406,-5.1406,-5.1406,-5.1406,-5.1406,-5.1406,-5.1406,-5.1406,-5.1406,-5.1406,-5.1406,-5.1406,-5.1406,-5.1406,-5.1406,-5.1366,-5.1271,-5.1342,-5.1312,-5.1008,-5.1045,-5.1016,-5.0749,-5.0712,-5.0951,-5.1653,-5.1622,-5.1905,-5.284,-5.2868,-5.2933,-5.3183,-5.3203,-5.3203,-5.3203,-5.3203,-5.2991,-5.2472,-5.2452,-5.2452,-5.2452,-5.2452,-5.2452,-5.2452,-5.2702,-5.3126,-5.3741,-5.3991,-5.4414,-2.2525,0.0,0.0,0.0,0.0,0.0,0.0,0.0,0.0,0.0,-4.3526,-4.4307,-4.4238,-4.3926,-4.3984,-4.4863,-4.5293,-4.5703,-4.623,-4.6225,-4.612,-4.5992,-4.5906,-4.5796,-4.5685,-4.5627,-4.5594,-4.5594,-4.5594,-4.5594,-4.5594,-4.5594,-4.5594,-4.5594,-4.5594,-4.5594,-4.5594,-4.5594,-4.5594,-4.5594,-4.5594,-4.5643,-4.5711,-4.5789,-4.6144,-4.6762,-4.685,-4.7445,-4.8379,-4.8379,-4.8906,-4.9726,-5.0058,-5.0508,-5.0957,-5.1289,-5.1406,-5.1406,-5.1406,-5.1406,-5.1406,-5.1406,-5.1406,-5.1406,-5.1406,-5.1406,-5.1406,-5.1406,-5.1406,-5.1406,-5.1406,-5.1406,-5.1406,-5.1406,-5.1406,-5.1406,-5.1406,-5.1406,-5.1386,-5.1295,-5.1344,-5.1313,-5.1031,-5.1056,-5.1016,-5.0749,-5.0971,-5.1376,-5.1955,-5.2252,-5.2781,-5.3741,-5.3755,-5.3857,-5.4164,-5.4184,-5.4184,-5.4184,-5.4184,-5.4184,-5.4184,-5.3549,-5.3203,-5.3203,-5.3203,-5.3203,-5.3203,-5.3549,-5.3991,-5.4511,-5.4818,-5.5241,0.0,0.0,0.0,0.0,0.0,0.0,0.0,0.0,-4.3158,-4.3348,0.0,-4.4066,-4.4939,-4.4453,-4.4199,-4.498,-4.5781,-4.6308,-4.6308,-4.6308,-4.6247,-4.6115,-4.5992,-4.5886,-4.5816,-4.5685,-4.5612,-4.5594,-4.5594,-4.5594,-4.5594,-4.5594,-4.5594,-4.5594,-4.5594,-4.5594,-4.5594,-4.5594,-4.5594,-4.5594,-4.5594,-4.5594,-4.5603,-4.5737,-4.5796,-4.5821,-4.6027,-4.6625,-4.748,-4.748,-4.8008,-4.8867,-4.9648,-5.0058,-5.0293,-5.1016,-5.1348,-5.1406,-5.1406,-5.1406,-5.1406,-5.1406,-5.1406,-5.1406,-5.1406,-5.1406,-5.1406,-5.1406,-5.1406,-5.1406,-5.1406,-5.1406,-5.1406,-5.1406,-5.1406,-5.1406,-5.1406,-5.1406,-5.1406,-5.1406,-5.1406,-5.134,-5.1148,-5.1099,-5.1029,-5.0836,-5.1375,-5.1865,-5.2058,-5.2741,-5.3568,-5.4511,-5.4607,-5.4914,-5.5645,-5.5703,-5.5703,-5.5703,-5.5703,-5.5703,-5.5703,-5.4241,-5.3433,-5.3433,-5.3433,-5.3433,-5.3433,-5.4222,-5.4607,-5.4626,-5.5357,-5.5703,0.0,-2.6406,0.0,0.0,0.0,0.0,0.0,0.0,-4.2451,-4.3106,-4.4399,-4.5494,-4.5804,-4.5795,-4.5801,-4.5996,-4.6172,-4.6308,-4.6308,-4.6308,-4.6247,-4.6115,-4.6077,-4.599,-4.5809,-4.5763,-4.5715,-4.5603,-4.5594,-4.5594,-4.5594,-4.5594,-4.5594,-4.5594,-4.5594,-4.5594,-4.5594,-4.5594,-4.5594,-4.5594,-4.5594,-4.5594,-4.5594,-4.5627,-4.5722,-4.5891,-4.6033,-4.6272,-4.6582,-4.6582,-4.709,-4.7891,-4.8086,-4.9004,-5.0215,-5.0391,-5.0859,-5.1406,-5.1406,-5.1406,-5.1406,-5.1406,-5.1406,-5.1406,-5.1406,-5.1406,-5.1406,-5.1406,-5.1406,-5.1406,-5.1406,-5.1406,-5.1406,-5.1406,-5.1406,-5.1406,-5.1406,-5.1406,-5.1406,-5.1406,-5.1406,-5.1344,-5.1194,-5.1137,-5.1223,-5.1578,-5.1241,-5.1587,-5.3318,-5.3337,-5.378,-5.528,-5.5434,-5.5511,-5.5684,-5.5703,-5.5703,-5.5703,-5.5703,-5.5703,-5.5703,-5.5357,-5.5164,-5.5164,-5.5164,-5.5164,-5.5164,-5.5338,-5.5434,-5.5453,-5.5607,-5.5703,0.0,0.0,0.0,0.0,0.0,0.0,0.0,0.0,-4.2019,-4.2444,-4.402,-4.5375,-4.5497,-4.5896,-4.6224,-4.6289,-4.6308,-4.6308,-4.6308,-4.6308,-4.6269,-4.6201,-4.6144,-4.6061,-4.5942,-4.5856,-4.5763,-4.57,-4.5635,-4.5594,-4.5594,-4.5594,-4.5594,-4.5594,-4.5594,-4.5594,-4.5594,-4.5594,-4.5594,-4.5594,-4.5594,-4.5594,-4.5594,-4.5594,-4.5696,-4.5855,-4.5959,-4.608,-4.6202,-4.6269,-4.6562,-4.7012,-4.7441,-4.8164,-4.9062,-4.9883,-5.0469,-5.0879,-5.1269,-5.1406,-5.1406,-5.1406,-5.1406,-5.1406,-5.1406,-5.1406,-5.1406,-5.1406,-5.1406,-5.1406,-5.1406,-5.1406,-5.1406,-5.1406,-5.1406,-5.1406,-5.1406,-5.1406,-5.1406,-5.1406,-5.1406,-5.1482,-5.1761,-5.183,-5.1903,-5.2194,-5.2039,-5.2318,-5.3472,-5.4068,-5.4722,-5.5607,-5.5703,-5.5703,-5.5703,-5.5703,-5.5703,-5.5703,-5.5703,-5.5703,-5.5703,-5.5703,-5.5703,-5.5703,-5.5703,-5.5703,-5.5703,-5.5703,-5.5703,-5.5703,-5.5703,-5.5703,0.0,0.0,0.0,0.0,0.0,0.0,0.0,0.0,-4.1585,-4.1585,-4.3091,-4.4526,-4.4782,-4.5416,-4.5968,-4.6228,-4.6289,-4.6308,-4.6308,-4.6308,-4.6308,-4.6308,-4.6201,-4.6138,-4.6091,-4.5957,-4.584,-4.5803,-4.5692,-4.5618,-4.5594,-4.5594,-4.5594,-4.5594,-4.5594,-4.5594,-4.5594,-4.5594,-4.5594,-4.5594,-4.5594,-4.5594,-4.5594,-4.5594,-4.5673,-4.5809,-4.5867,-4.5981,-4.6113,-4.6247,-4.6308,-4.6367,-4.709,-4.7461,-4.7793,-4.9394,-5.0078,-5.0312,-5.1113,-5.1406,-5.1406,-5.1406,-5.1406,-5.1406,-5.1406,-5.1406,-5.1406,-5.1406,-5.1406,-5.1406,-5.1406,-5.1406,-5.1406,-5.1406,-5.1406,-5.1406,-5.1406,-5.1406,-5.1445,-5.1601,-5.1758,-5.2009,-5.2498,-5.2615,-5.266,-5.271,-5.2738,-5.2991,-5.3568,-5.4838,-5.5703,-5.5703,-5.5703,-5.5703,-5.5703,-5.5703,-5.5703,-5.5703,-5.5703,-5.5703,-5.5703,-5.5703,-5.5703,-5.5703,-5.5703,-5.5703,-5.5703,-5.5703,-5.5703,-5.5703,-5.5703,-5.5703,0.0,0.0,0.0,0.0,0.0,0.0,0.0,0.0,-4.0669,0.0,-4.2124,-4.3637,-4.4416,-4.4834,-4.5295,-4.6002,-4.6224,-4.6308,-4.6308,-4.6308,-4.6308,-4.6308,-4.6289,-4.6225,-4.6115,-4.6075,-4.5979,-4.5803,-4.5776,-4.5711,-4.5603,-4.5594,-4.5594,-4.5594,-4.5594,-4.5594,-4.5594,-4.5594,-4.5594,-4.5594,-4.5594,-4.5594,-4.5594,-4.5594,-4.5673,-4.5809,-4.5867,-4.5981,-4.6113,-4.6247,-4.6308,-4.6308,-4.6426,-4.6933,-4.7715,-4.8711,-4.9551,-5.0312,-5.1113,-5.1406,-5.1406,-5.1406,-5.1406,-5.1406,-5.1406,-5.1406,-5.1406,-5.1406,-5.1406,-5.1406,-5.1406,-5.1406,-5.1406,-5.1406,-5.1406,-5.1406,-5.1406,-5.1406,-5.1621,-5.2383,-5.3144,-5.3473,-5.2947,-5.2854,-5.2918,-5.3088,-5.1924,-5.2068,-5.4991,-5.5549,-5.5703,-5.5703,-5.5703,-5.5703,-5.5703,-5.5703,-5.5703,-5.5703,-5.5703,-5.5703,-5.5703,-5.5703,-5.5703,-5.5703,-5.5703,-5.5703,-5.5703,-5.5703,-5.5703,-5.5703,-5.5703,-5.5703,0.0,0.0,0.0,0.0,0.0,0.0,0.0,0.0,-3.9958,-4.0419,-4.113,-4.1975,-4.2924,-4.3966,-4.4838,-4.5341,-4.5856,-4.6203,-4.6289,-4.6308,-4.6308,-4.6308,-4.6308,-4.6288,-4.6223,-4.6145,-4.6067,-4.5967,-4.5861,-4.5763,-4.5723,-4.5643,-4.5594,-4.5594,-4.5594,-4.5594,-4.5594,-4.5594,-4.5594,-4.5594,-4.5594,-4.5594,-4.5594,-4.5594,-4.5627,-4.5692,-4.5796,-4.5906,-4.5995,-4.6122,-4.6226,-4.6308,-4.6308,-4.6523,-4.6973,-4.7851,-4.8711,-4.959,-5.0449,-5.1016,-5.1406,-5.1406,-5.1406,-5.1406,-5.1406,-5.1406,-5.1406,-5.1406,-5.1406,-5.1406,-5.1406,-5.1406,-5.1406,-5.1406,-5.1406,-5.1406,-5.1406,-5.1406,-5.166,-5.2539,-5.3672,-5.4394,-5.4089,-5.4554,-5.5003,-5.508,-5.42,-5.403,-5.5511,-5.5703,-5.5703,-5.5703,-5.5703,-5.5703,-5.5703,-5.5703,-5.5703,-5.5703,-5.5703,-5.5703,-5.5703,-5.5703,-5.5703,-5.5703,-5.5703,-5.5703,-5.5703,-5.5703,-5.5703,-5.5703,-5.5703,-5.5703,0.0,0.0,0.0,0.0,0.0,0.0,0.0,0.0,-3.9477,0.0,-4.0362,-4.0735,-4.1487,-4.3008,-4.4328,-4.4782,-4.5555,-4.6147,-4.6289,-4.6308,-4.6308,-4.6308,-4.6308,-4.6308,-4.6308,-4.6202,-4.6144,-4.6091,-4.5951,-4.585,-4.5803,-4.5708,-4.5635,-4.5594,-4.5594,-4.5594,-4.5594,-4.5594,-4.5594,-4.5594,-4.5594,-4.5594,-4.5594,-4.5594,-4.5594,-4.5603,-4.574,-4.5832,-4.5881,-4.5992,-4.612,-4.6247,-4.6202,-4.6246,-4.6406,-4.7245,-4.8124,-4.9023,-4.9902,-5.0723,-5.1406,-5.1406,-5.1406,-5.1406,-5.1406,-5.1406,-5.1406,-5.1406,-5.1406,-5.1406,-5.1406,-5.1406,-5.1406,-5.1406,-5.1406,-5.1465,-5.168,-5.1894,-5.2324,-5.3183,-5.4433,-5.5332,-5.5332,-5.6035,-5.6601,-5.6601,-5.609,-5.5703,-5.5703,-5.5703,-5.5703,-5.5703,-5.5703,-5.5703,-5.5703,-5.5703,-5.5703,-5.5703,-5.5703,-5.5703,-5.5703,-5.5703,-5.5703,-5.5703,-5.5703,-5.5703,-5.5703,-5.5703,-5.5703,-5.5703,-5.5703,-5.5703,0.0,0.0,0.0,0.0,0.0,0.0,0.0,0.0,-3.9304,-3.9361,-3.9977,-4.0516,-4.0569,-4.2059,-4.3577,-4.4556,-4.5484,-4.6147,-4.6289,-4.6308,-4.6308,-4.6308,-4.6308,-4.6308,-4.6308,-4.6289,-4.6245,-4.6113,-4.6084,-4.5994,-4.5816,-4.579,-4.5725,-4.5603,-4.5594,-4.5594,-4.5594,-4.5594,-4.5594,-4.5594,-4.5594,-4.5594,-4.5594,-4.5594,-4.5594,-4.5603,-4.574,-4.5803,-4.5809,-4.5877,-4.5988,-4.6108,-4.5974,-4.608,-4.6386,-4.7146,-4.8034,-4.9023,-4.9902,-5.0723,-5.1406,-5.1406,-5.1406,-5.1406,-5.1406,-5.1406,-5.1406,-5.1406,-5.1406,-5.1406,-5.1406,-5.1406,-5.1406,-5.1406,-5.1406,-5.1621,-5.2441,-5.3281,-5.4121,-5.5,-5.5898,-5.6504,-5.6504,-5.6562,-5.6601,-5.6601,-5.609,-5.5703,-5.5703,-5.5703,-5.5703,-5.5703,-5.5703,-5.5703,-5.5703,-5.5703,-5.5703,-5.5703,-5.5703,-5.5703,-5.5703,-5.5703,-5.5703,-5.5703,-5.5703,-5.5703,-5.5703,-5.5703,-5.5703,-5.5703,-5.5703,-5.5703,0.0,0.0,0.0,0.0,0.0,0.0,-3.3757,-3.5603,-3.718,-3.8238,-3.915,-3.99,-4.04,-4.1501,-4.2439,-4.289,-4.4225,-4.5253,-4.5371,-4.5915,-4.6308,-4.6308,-4.6308,-4.6308,-4.6308,-4.6308,-4.6289,-4.6226,-4.6147,-4.6069,-4.601,-4.5915,-4.585,-4.5794,-4.5794,-4.5794,-4.5794,-4.5794,-4.5777,-4.5718,-4.5718,-4.5669,-4.5594,-4.5594,-4.5594,-4.5594,-4.566,-4.573,-4.5803,-4.5826,-4.5896,-4.5974,-4.5916,-4.5967,-4.6084,-4.6435,-4.7508,-4.8833,-4.9237,-5.0254,-5.1406,-5.1406,-5.1406,-5.1406,-5.1406,-5.1406,-5.1406,-5.1406,-5.1406,-5.1406,-5.1406,-5.1406,-5.1406,-5.1406,-5.1406,-5.1797,-5.3223,-5.3789,-5.4258,-5.5137,-5.5996,-5.6601,-5.6601,-5.6601,-5.6601,-5.6601,-5.6428,-5.6142,-5.5739,-5.5703,-5.5703,-5.5703,-5.5703,-5.5703,-5.5703,-5.5703,-5.5703,-5.5703,-5.5703,-5.5703,-5.5703,-5.5703,-5.5703,-5.5703,-5.5703,-5.5703,-5.5703,-5.5703,-5.5703,-5.5703,-5.5703,-5.5703,0.0,0.0,0.0,0.0,0.0,0.0,-3.1852,-3.3833,-3.5468,-3.6873,-3.8065,-3.9126,-3.9969,-4.0612,-4.1215,-4.1909,-4.3322,-4.4468,-4.4881,-4.5466,-4.5976,-4.6269,-4.6308,-4.6308,-4.6308,-4.6308,-4.6308,-4.6308,-4.6223,-4.6147,-4.6091,-4.6024,-4.5959,-4.5903,-4.5899,-4.5899,-4.5899,-4.5899,-4.5877,-4.5825,-4.5825,-4.579,-4.5706,-4.5677,-4.5665,-4.5665,-4.5629,-4.566,-4.5725,-4.5725,-4.5796,-4.5852,-4.5822,-4.5872,-4.5978,-4.6027,-4.7199,-4.8774,-4.8866,-5.0,-5.1406,-5.1406,-5.1406,-5.1406,-5.1406,-5.1406,-5.1406,-5.1406,-5.1406,-5.1406,-5.1406,-5.1406,-5.1406,-5.1406,-5.1621,-5.2226,-5.3691,-5.4004,-5.4336,-5.5508,-5.6191,-5.6601,-5.6601,-5.6601,-5.6601,-5.6601,-5.6601,-5.6462,-5.6052,-5.5835,-5.5703,-5.5703,-5.5703,-5.5703,-5.5703,-5.5703,-5.5703,-5.5703,-5.5703,-5.5703,-5.5703,-5.5703,-5.5703,-5.5703,-5.5703,-5.5703,-5.5703,-5.5703,-5.5703,-5.5703,-5.5703,-5.5703,0.0,0.0,0.0,0.0,0.0,0.0,-3.0737,0.0,-3.4276,-3.5192,-3.6719,-3.8187,-3.9131,-3.9334,-3.995,-4.1746,-4.2883,-4.3879,-4.4784,-4.4941,-4.5293,-4.6152,-4.6269,-4.6269,-4.6308,-4.6308,-4.6308,-4.6308,-4.6308,-4.6247,-4.6115,-4.611,-4.6045,-4.5912,-4.5912,-4.5912,-4.5912,-4.5912,-4.5907,-4.5903,-4.5903,-4.5903,-4.5894,-4.5825,-4.5809,-4.5796,-4.5665,-4.5603,-4.5603,-4.5594,-4.568,-4.5776,-4.5668,-4.5795,-4.6077,-4.5944,-4.717,-4.8887,-4.8906,-5.0,-5.1406,-5.1406,-5.1406,-5.1406,-5.1406,-5.1406,-5.1406,-5.1406,-5.1406,-5.1406,-5.1406,-5.1406,-5.1406,-5.1406,-5.2051,-5.2891,-5.3789,-5.3984,-5.4512,-5.6269,-5.6601,-5.6601,-5.6601,-5.6601,-5.6601,-5.6601,-5.6601,-5.6601,-5.6601,-5.609,-5.5726,-5.5695,-5.5703,-5.5703,-5.5703,-5.5703,-5.5703,-5.5703,-5.5703,-5.5703,-5.5703,-5.5703,-5.5703,-5.5703,-5.5703,-5.5703,-5.5703,-5.5703,-5.5703,-5.5703,-5.5703,-5.5703,-2.0086,0.0,0.0,0.0,0.0,0.0,0.0,0.0,-3.0237,-3.2314,-3.4083,-3.57,-3.7172,-3.8046,-3.8927,-4.0089,-4.1621,-4.2758,-4.3006,-4.3629,-4.4375,-4.5254,-4.5351,-4.5605,-4.623,-4.6308,-4.6308,-4.6308,-4.6308,-4.6289,-4.6247,-4.6247,-4.6225,-4.6198,-4.6198,-4.6198,-4.6198,-4.6198,-4.6144,-4.6042,-4.6042,-4.5992,-4.5899,-4.5886,-4.5867,-4.5862,-4.5783,-4.5747,-4.5733,-4.5643,-4.561,-4.5657,-4.573,-4.5796,-4.589,-4.6008,-4.7182,-4.8771,-4.8866,-5.0,-5.1406,-5.1406,-5.1406,-5.1406,-5.1406,-5.1406,-5.1406,-5.1406,-5.1406,-5.1406,-5.1406,-5.1406,-5.1406,-5.1406,-5.1582,-5.2051,-5.3183,-5.373,-5.4512,-5.6269,-5.6601,-5.6601,-5.6601,-5.6601,-5.6601,-5.6601,-5.6601,-5.6601,-5.6601,-5.6442,-5.6184,-5.5758,-5.5703,-5.5703,-5.5703,-5.5703,-5.5703,-5.5703,-5.5703,-5.5703,-5.5703,-5.5703,-5.5703,-5.5703,-5.5703,-5.5703,-5.5703,-5.5703,-5.5703,-5.5703,-5.5703,-5.5703,0.0,0.0,0.0,0.0,0.0,0.0,-2.5847,-2.689,-2.7986,-3.016,-3.1968,-3.357,-3.4942,-3.6251,-3.7419,-3.8369,-3.9736,-4.1064,-4.2173,-4.281,-4.3476,-4.4355,-4.4453,-4.4668,-4.5176,-4.5215,-4.5371,-4.5723,-4.5762,-4.5918,-4.6289,-4.6308,-4.6308,-4.6308,-4.6308,-4.6308,-4.6308,-4.6308,-4.6268,-4.6177,-4.6177,-4.6145,-4.6053,-4.6001,-4.5985,-4.5981,-4.5886,-4.5842,-4.5836,-4.5757,-4.5706,-4.5685,-4.5782,-4.5844,-4.5948,-4.6061,-4.7237,-4.8797,-4.8866,-5.0,-5.1406,-5.1406,-5.1406,-5.1406,-5.1406,-5.1406,-5.1406,-5.1406,-5.1406,-5.1406,-5.1406,-5.1406,-5.1406,-5.1406,-5.1777,-5.2402,-5.332,-5.4355,-5.539,-5.6406,-5.6601,-5.6601,-5.6601,-5.6601,-5.6601,-5.6601,-5.6601,-5.6601,-5.6601,-5.6601,-5.6465,-5.6119,-5.5852,-5.5703,-5.5703,-5.5703,-5.5703,-5.5703,-5.5703,-5.5703,-5.5703,-5.5703,-5.5703,-5.5703,-5.5703,-5.5703,-5.5703,-5.5703,-5.5703,-5.5703,-5.5703,-5.5703,0.0,0.0,0.0,0.0,0.0,0.0,-2.6823,-2.7024,-2.7024,-2.853,-3.0121,-3.1559,-3.2493,-3.3955,-3.533,-3.6268,-3.7294,-3.8921,-4.1717,-4.2109,-4.248,-4.3437,-4.3555,-4.3594,-4.3691,-4.3691,-4.4023,-4.4805,-4.4863,-4.5234,-4.6113,-4.6152,-4.6191,-4.6308,-4.6308,-4.6308,-4.6308,-4.6308,-4.6308,-4.6308,-4.6308,-4.6308,-4.6308,-4.6175,-4.6119,-4.6115,-4.5981,-4.592,-4.592,-4.5907,-4.5852,-4.5809,-4.5828,-4.5929,-4.611,-4.6117,-4.7235,-4.8769,-4.8867,-4.9941,-5.1289,-5.1367,-5.1406,-5.1406,-5.1406,-5.1406,-5.1406,-5.1406,-5.1406,-5.1406,-5.1406,-5.1406,-5.1406,-5.1406,-5.2226,-5.3125,-5.3613,-5.5234,-5.6601,-5.6601,-5.6601,-5.6601,-5.6601,-5.6601,-5.6601,-5.6601,-5.6601,-5.6601,-5.6601,-5.6601,-5.6601,-5.6601,-5.6125,-5.576,-5.5714,-5.5703,-5.5703,-5.5703,-5.5703,-5.5703,-5.5703,-5.5703,-5.5703,-5.5703,-5.5703,-5.5703,-5.5703,-5.5703,-5.5703,-5.5703,-5.5703,-5.5703,-2.6303,0.0,0.0,0.0,0.0,0.0,-2.5017,-2.576,-2.6697,-2.7024,-2.7909,-2.8907,-2.9734,-3.0717,-3.1716,-3.2652,-3.4186,-3.6419,-3.9761,-4.0328,-4.0957,-4.2461,-4.2656,-4.293,-4.3633,-4.3691,-4.3769,-4.3945,-4.3945,-4.4336,-4.5215,-4.5254,-4.5586,-4.6289,-4.6308,-4.6308,-4.6308,-4.6308,-4.6308,-4.6308,-4.6308,-4.6308,-4.6308,-4.6269,-4.6268,-4.6248,-4.6117,-4.605,-4.6047,-4.5936,-4.5885,-4.5896,-4.6001,-4.6067,-4.6115,-4.6223,-4.6933,-4.7949,-4.8652,-4.957,-5.0547,-5.1191,-5.1406,-5.1406,-5.1406,-5.1406,-5.1406,-5.1406,-5.1406,-5.1406,-5.1406,-5.1406,-5.1406,-5.1406,-5.1582,-5.1777,-5.1875,-5.4375,-5.6601,-5.6601,-5.6601,-5.6601,-5.6601,-5.6601,-5.6601,-5.6601,-5.6601,-5.6601,-5.6601,-5.6601,-5.6601,-5.6601,-5.6492,-5.6221,-5.5748,-5.5703,-5.5703,-5.5703,-5.5703,-5.5703,-5.5703,-5.5703,-5.5703,-5.5703,-5.5703,-5.5703,-5.5703,-5.5703,-5.5703,-5.5703,-5.5703,-5.5703,-2.7957,0.0,0.0,-2.7355,0.0,0.0,0.0,-2.5664,-2.5582,-2.6428,-2.6948,-2.7505,-2.8357,-2.9179,-2.9905,-3.0385,-3.198,-3.3787,-3.5554,-3.7802,-3.9551,-4.0391,-4.0508,-4.0859,-4.1719,-4.1797,-4.2148,-4.2988,-4.3457,-4.3887,-4.4336,-4.4766,-4.5195,-4.5644,-4.6074,-4.6308,-4.6308,-4.6308,-4.6308,-4.6308,-4.6308,-4.6308,-4.6308,-4.6308,-4.6308,-4.6308,-4.6225,-4.62,-4.6199,-4.614,-4.6108,-4.6108,-4.6108,-4.6144,-4.6202,-4.6288,-4.6855,-4.7715,-4.8594,-4.9473,-5.0332,-5.1133,-5.1406,-5.1406,-5.1406,-5.1406,-5.1406,-5.1406,-5.1406,-5.1406,-5.1406,-5.1406,-5.1406,-5.1406,-5.1406,-5.1406,-5.1406,-5.2773,-5.4512,-5.6269,-5.6601,-5.6601,-5.6601,-5.6601,-5.6601,-5.6601,-5.6601,-5.6601,-5.6601,-5.6601,-5.6601,-5.6601,-5.6601,-5.6364,-5.5739,-5.5703,-5.5703,-5.5703,-5.5703,-5.5703,-5.5703,-5.5703,-5.5703,-5.5703,-5.5703,-5.5703,-5.5703,-5.5703,-5.5703,-5.5703,-5.5703,-5.5703,0.0,0.0,0.0,0.0,0.0,-2.6962,0.0,0.0,0.0,-2.614,-2.6351,0.0,0.0,0.0,-2.8376,-2.8376,-2.9897,-3.1084,-3.115,-3.4588,-3.7285,-3.7793,-3.8008,-3.8437,-3.9316,-3.9258,-3.9844,-4.1543,-4.2168,-4.2695,-4.3183,-4.4023,-4.4648,-4.498,-4.5683,-4.6133,-4.6308,-4.6308,-4.6308,-4.6308,-4.6308,-4.6308,-4.6308,-4.6308,-4.6308,-4.6308,-4.6308,-4.6308,-4.6308,-4.6308,-4.6308,-4.6289,-4.6175,-4.6201,-4.6308,-4.6308,-4.6758,-4.75,-4.8535,-4.9355,-5.0117,-5.1074,-5.1406,-5.1406,-5.1406,-5.1406,-5.1406,-5.1406,-5.1406,-5.1406,-5.1406,-5.1406,-5.1406,-5.1406,-5.1406,-5.1406,-5.1406,-5.1406,-5.2422,-5.5918,-5.6601,-5.6601,-5.6601,-5.6601,-5.6601,-5.6601,-5.6601,-5.6601,-5.6601,-5.6601,-5.6601,-5.6601,-5.6601,-5.6404,-5.5907,-5.5769,-5.5703,-5.5703,-5.5703,-5.5703,-5.5703,-5.5703,-5.5703,-5.5703,-5.5703,-5.5703,-5.5703,-5.5703,-5.5703,-5.5703,-5.5703,-5.5703,0.0,0.0,0.0,0.0,-3.0688,-3.098,-2.6593,0.0,-2.7082,-2.5731,0.0,0.0,0.0,0.0,0.0,-2.5731,-2.7254,-2.8456,-2.8515,-3.0352,-3.255,-3.4863,-3.582,-3.6641,-3.7519,-3.6894,-3.7168,-3.8906,-3.8418,-3.9043,-4.1367,-4.2246,-4.3398,-4.4941,-4.5098,-4.5527,-4.6289,-4.6308,-4.6308,-4.6308,-4.6308,-4.6308,-4.6308,-4.6308,-4.6308,-4.6308,-4.6308,-4.6308,-4.6308,-4.6308,-4.6308,-4.6308,-4.6289,-4.6289,-4.6308,-4.6308,-4.6367,-4.668,-4.832,-4.8965,-4.9316,-5.0898,-5.1406,-5.1406,-5.1406,-5.1406,-5.1406,-5.1406,-5.1406,-5.1406,-5.1406,-5.1406,-5.1406,-5.1406,-5.1406,-5.1406,-5.1406,-5.1406,-5.2422,-5.5918,-5.6601,-5.6601,-5.6601,-5.6601,-5.6601,-5.6601,-5.6601,-5.6601,-5.6601,-5.6601,-5.6601,-5.6601,-5.6601,-5.6562,-5.6494,-5.6017,-5.5703,-5.5703,-5.5703,-5.5703,-5.5703,-5.5703,-5.5703,-5.5703,-5.5703,-5.5703,-5.5703,-5.5703,-5.5703,-5.5703,-5.5703,-5.5703,0.0,0.0,0.0,0.0,0.0,0.0,-2.7542,-2.6601,-2.6327,-2.6096,0.0,0.0,0.0,0.0,0.0,0.0,-2.6371,-2.688,-2.5958,-2.78,-3.0043,-3.2246,-3.2812,-3.3574,-3.4902,-3.5156,-3.5762,-3.6992,-3.6758,-3.7461,-3.957,-4.0976,-4.248,-4.4199,-4.4746,-4.543,-4.6289,-4.6308,-4.6308,-4.6308,-4.6308,-4.6308,-4.6308,-4.6308,-4.6308,-4.6308,-4.6308,-4.6308,-4.6308,-4.6308,-4.6308,-4.6308,-4.6308,-4.6308,-4.6308,-4.6308,-4.6308,-4.6543,-4.8301,-4.8906,-4.918,-5.0859,-5.1406,-5.1406,-5.1406,-5.1406,-5.1406,-5.1406,-5.1406,-5.1406,-5.1406,-5.1406,-5.1406,-5.1406,-5.1406,-5.1406,-5.1406,-5.1406,-5.2422,-5.5918,-5.6601,-5.6601,-5.6601,-5.6601,-5.6601,-5.6601,-5.6601,-5.6601,-5.6601,-5.6601,-5.6601,-5.6601,-5.6601,-5.6601,-5.6601,-5.6045,-5.5703,-5.5703,-5.5703,-5.5703,-5.5703,-5.5703,-5.5703,-5.5703,-5.5703,-5.5703,-5.5703,-5.5703,-5.5703,-5.5703,-5.5703,-5.5703,-3.4713,0.0,0.0,-3.2102,-3.1125,-3.0192,-2.7743,-2.6755,-2.6385,-2.6563,-2.6654,0.0,0.0,0.0,0.0,0.0,0.0,-2.6126,0.0,-2.6184,-2.7905,-2.9274,-3.0097,-3.1016,-3.2246,-3.2715,-3.3516,-3.4863,-3.4746,-3.5566,-3.7773,-3.9531,-4.1367,-4.3281,-4.4199,-4.5176,-4.6289,-4.6308,-4.6308,-4.6308,-4.6308,-4.6308,-4.6308,-4.6308,-4.6308,-4.6308,-4.6308,-4.6308,-4.6308,-4.6308,-4.6308,-4.6308,-4.6308,-4.6308,-4.6308,-4.6308,-4.6308,-4.6543,-4.8301,-4.9199,-4.9785,-5.0996,-5.1406,-5.1406,-5.1406,-5.1406,-5.1406,-5.1406,-5.1406,-5.1406,-5.1406,-5.1406,-5.1406,-5.1406,-5.1406,-5.1406,-5.1406,-5.1777,-5.3008,-5.6015,-5.6601,-5.6601,-5.6601,-5.6601,-5.6601,-5.6601,-5.6601,-5.6601,-5.6601,-5.6601,-5.6601,-5.6601,-5.6601,-5.6538,-5.6369,-5.5944,-5.5703,-5.5703,-5.5703,-5.5703,-5.5703,-5.5703,-5.5703,-5.5703,-5.5703,-5.5703,-5.5703,-5.5703,-5.5703,-5.5703,-5.5703,-5.5703,-3.7293,-3.7367,-3.6779,-3.1707,-3.107,-3.0569,-2.6346,-2.7255,-2.853,-2.6928,-2.8538,-2.975,0.0,0.0,0.0,0.0,0.0,0.0,0.0,0.0,0.0,0.0,0.0,0.0,-2.9726,-2.8984,-2.957,-3.2129,-3.1543,-3.2539,-3.5898,-3.7734,-3.9844,-4.2363,-4.3281,-4.457,-4.6289,-4.6308,-4.6308,-4.6308,-4.6308,-4.6308,-4.6308,-4.6308,-4.6308,-4.6308,-4.6308,-4.6308,-4.6308,-4.6308,-4.6308,-4.6308,-4.6308,-4.6308,-4.6308,-4.6308,-4.6308,-4.6543,-4.8301,-4.9961,-5.1328,-5.1387,-5.1406,-5.1406,-5.1406,-5.1406,-5.1406,-5.1406,-5.1406,-5.1406,-5.1406,-5.1406,-5.1406,-5.1406,-5.1406,-5.1406,-5.1406,-5.2734,-5.4453,-5.625,-5.6601,-5.6601,-5.6601,-5.6601,-5.6601,-5.6601,-5.6601,-5.6601,-5.6601,-5.6601,-5.6601,-5.6601,-5.6601,-5.6366,-5.5769,-5.5705,-5.5703,-5.5703,-5.5703,-5.5703,-5.5703,-5.5703,-5.5703,-5.5703,-5.5703,-5.5703,-5.5703,-5.5703,-5.5703,-5.5703,-5.5703,-5.5703,-3.7933,-3.8323,-3.7931,-3.393,-3.2699,-3.1525,-2.7852,-2.8102,-2.8626,-2.6948,-2.8635,-2.9885,0.0,0.0,0.0,0.0,0.0,0.0,0.0,0.0,0.0,0.0,0.0,0.0,0.0,-2.7617,-2.8281,-3.0332,-3.0742,-3.2148,-3.498,-3.7344,-3.9512,-4.1543,-4.2969,-4.4258,-4.543,-4.6016,-4.6308,-4.6308,-4.6308,-4.6308,-4.6308,-4.6308,-4.6308,-4.6308,-4.6308,-4.6308,-4.6308,-4.6308,-4.6308,-4.6308,-4.6308,-4.6308,-4.6308,-4.6308,-4.6308,-4.6543,-4.8301,-4.9648,-5.0683,-5.123,-5.1406,-5.1406,-5.1406,-5.1406,-5.1406,-5.1406,-5.1406,-5.1406,-5.1406,-5.1406,-5.1406,-5.1406,-5.1406,-5.1406,-5.1406,-5.248,-5.3867,-5.5215,-5.6074,-5.6601,-5.6601,-5.6601,-5.6601,-5.6601,-5.6601,-5.6601,-5.6601,-5.6601,-5.6601,-5.6601,-5.6601,-5.6364,-5.5739,-5.5703,-5.5703,-5.5703,-5.5703,-5.5703,-5.5703,-5.5703,-5.5703,-5.5703,-5.5703,-5.5703,-5.5703,-5.5703,-5.5703,-5.5703,-5.5703,-5.5703,-3.9654,-3.9857,-3.9431,-3.6334,-3.5122,-3.3757,-3.0083,-3.0352,-3.0814,-2.8813,-2.9942,-3.1154,0.0,0.0,0.0,0.0,0.0,0.0,0.0,-2.472,0.0,0.0,0.0,0.0,0.0,-2.6269,-2.6797,-2.8535,-2.9199,-3.0762,-3.3652,-3.6269,-3.8613,-4.0664,-4.2656,-4.4121,-4.498,-4.5859,-4.6308,-4.6308,-4.6308,-4.6308,-4.6308,-4.6308,-4.6308,-4.6308,-4.6308,-4.6308,-4.6308,-4.6308,-4.6308,-4.6308,-4.6308,-4.6308,-4.6308,-4.6308,-4.6504,-4.6973,-4.8398,-4.9473,-5.0332,-5.1133,-5.1406,-5.1406,-5.1406,-5.1406,-5.1406,-5.1406,-5.1406,-5.1406,-5.1406,-5.1406,-5.1406,-5.1406,-5.1406,-5.1406,-5.1406,-5.25,-5.3691,-5.4389,-5.5643,-5.6601,-5.6601,-5.6601,-5.6601,-5.6601,-5.6601,-5.6601,-5.6601,-5.6409,-5.6366,-5.6581,-5.6406,-5.6125,-5.5728,-5.5703,-5.5703,-5.5703,-5.5703,-5.5703,-5.5703,-5.5703,-5.5703,-5.5703,-5.5703,-5.5703,-5.5703,-5.5703,-5.5703,-5.5703,-5.5703,-5.5703]},{"header":{"parameterUnit":"m.s-1","parameterCategory":1,"la1":30.6,"la2":29.2853,"lo1":-89.7004,"lo2":-87.6739,"dy":0.0162,"dx":0.0183,"nx":112,"ny":82,"refTime":"2024-06-02T00:00:00:Z","depth":0,"parameterNumber":3,"parameterNumberName":"V-component_of_WINDS"},"data":[0.0,0.0,0.0,0.0,0.0,0.0,0.0,0.0,0.0,0.0,0.0,0.0,0.0,0.0,0.0,0.0,0.0,0.0,0.0,0.0,0.0,0.0,0.0,0.0,0.0,0.0,0.0,0.0,0.0,0.0,0.0,0.0,0.0,0.0,0.0,0.0,0.0,0.0,0.0,0.0,0.0,0.0,0.0,0.0,0.0,0.0,0.0,0.0,0.0,0.0,0.0,0.0,0.0,0.0,0.0,0.0,0.0,0.0,0.0,0.0,0.0,0.0,0.0,0.0,0.0,0.0,0.0,0.0,0.0,0.0,0.0,0.0,0.0,0.0,0.0,0.0,0.0,0.0,0.0,0.0,0.0,0.0,0.0,0.0,0.0,0.0,0.0,0.0,0.0,0.0,0.4422,0.5167,0.6649,0.7938,0.8793,1.0319,1.1321,1.1545,0.0,0.0,0.0,0.0,0.0,0.0,0.0,0.0,0.0,0.0,0.0,0.0,0.0,0.0,0.0,0.0,0.0,0.0,0.0,0.0,0.0,0.0,0.0,0.0,0.0,0.0,0.0,0.0,0.0,0.0,0.0,0.0,0.0,0.0,0.0,0.0,0.0,0.0,0.0,0.0,0.0,0.0,0.0,0.0,0.0,0.0,0.0,0.0,0.0,0.0,0.0,0.0,0.0,0.0,0.0,0.0,0.0,0.0,0.0,0.0,0.0,0.0,0.0,0.0,0.0,0.0,0.0,0.0,0.0,0.0,0.0,0.0,0.0,0.0,0.0,0.0,0.0,0.0,0.0,0.0,0.0,0.0,0.0,0.0,0.0,0.0,0.0,0.0,0.0,0.0,0.0,0.0,0.0,0.0,0.0,0.0,0.0,0.0,0.0,0.0,0.0,0.0,0.0,0.0,0.4386,0.5718,0.6263,0.728,0.9057,0.8816,0.9509,1.1698,0.0,0.0,0.0,0.0,0.0,0.0,0.0,0.0,0.0,0.0,0.0,0.0,0.0,0.0,0.0,0.0,0.0,0.0,0.0,0.0,0.0,0.0,0.0,0.0,0.0,0.0,0.0,0.0,0.0,0.0,0.0,0.0,0.0,0.0,0.0,0.0,0.0,0.0,0.0,0.0,0.0,0.0,0.0,0.0,0.0,0.0,0.0,0.0,0.0,0.0,0.0,0.0,0.0,0.0,0.0,0.0,0.0,0.0,0.0,0.0,0.0,0.0,0.0,0.0,0.0,0.0,0.0,0.0,0.0,0.0,0.0,0.0,0.0,0.0,0.0,0.0,0.0,0.0,0.0,0.0,0.0,0.0,0.0,0.0,0.0,0.0,0.0,0.0,0.0,0.0,0.0,0.0,0.0,0.0,0.0,0.0,0.0,0.0,0.0,0.0,0.0,0.0,0.0,0.4367,0.4877,0.5905,0.6169,0.7099,0.915,0.8643,0.9136,1.1346,1.0512,0.0,0.0,0.0,0.0,0.0,0.0,0.0,0.0,0.0,0.0,0.0,0.0,0.0,0.0,0.0,0.0,0.0,0.0,0.0,0.0,0.0,0.0,0.0,0.0,0.0,0.0,0.0,0.0,0.0,0.0,0.0,0.0,0.0,0.0,0.0,0.0,0.0,0.0,0.0,0.0,0.0,0.0,0.0,0.0,0.0,0.0,0.0,0.0,0.0,0.0,0.0,0.0,0.0,0.0,0.0,0.0,0.0,0.0,0.0,0.0,0.0,0.0,0.0,0.0,0.0,0.0,0.0,0.0,0.0,0.0,0.0,0.0,0.0,0.0,0.0,0.0,0.0,0.0,0.0,0.0,0.0,0.0,0.0,0.0,0.0,0.0,0.0,0.0,0.0,0.0,0.0,0.0,0.0,0.0,0.0,0.0,0.0,0.0,0.0,0.0,0.0,0.0,0.5073,0.542,0.6023,0.619,0.7022,0.8803,0.8494,0.8882,1.0492,0.9545,0.0,0.0,0.0,0.0,0.0,0.0,0.0,0.0,0.0,0.0,0.0,0.0,0.0,0.0,0.0,0.0,0.0,0.0,0.0,0.0,0.0,0.0,0.0,0.0,0.0,0.0,0.0,0.0,0.0,0.0,0.0,0.0,0.0,0.0,0.0,0.0,0.0,0.0,0.0,0.0,0.0,0.0,0.0,0.0,0.0,0.0,0.0,0.0,0.0,0.0,0.0,0.0,0.0,0.0,0.0,0.0,0.0,0.0,0.0,0.0,0.0,0.0,0.0,0.0,0.0,0.0,0.0,0.0,0.0,0.0,0.0,0.0,0.0,0.0,0.0,0.0,0.0,0.0,0.0,0.0,0.0,0.0,0.0,0.0,0.0,0.0,0.0,0.0,0.0,0.0,0.0,0.0,0.0,0.0,0.0,0.0,0.0,0.0,0.0,0.0,0.0,0.0,0.5294,0.5735,0.6235,0.6293,0.6718,0.7821,0.7704,0.8012,0.9091,0.8652,0.0,0.0,0.0,0.0,0.0,0.0,0.0,0.0,0.0,0.0,0.0,0.0,0.0,0.0,0.0,0.0,0.0,0.0,0.0,0.0,0.0,0.0,0.0,0.0,0.0,0.0,0.0,0.0,0.0,0.0,0.0,0.0,0.0,0.0,0.0,0.0,0.0,0.0,0.0,0.0,0.0,0.0,0.0,0.0,0.0,0.0,0.0,0.0,0.0,0.0,0.0,0.0,0.0,0.0,0.0,0.0,0.0,0.0,0.0,0.0,0.0,0.0,0.0,0.0,0.0,0.0,0.0,0.0,0.0,0.0,0.0,0.0,0.0,0.0,0.0,0.0,0.0,0.0,0.0,0.0,0.0,0.0,0.0,0.0,0.0,0.0,0.0,0.0,0.0,0.0,0.0,0.0,0.0,0.0,0.0,0.0,0.0,0.0,0.0,0.0,0.0,0.0,0.523,0.5692,0.6242,0.63,0.6718,0.7706,0.7977,0.8184,0.8492,0.0,0.0,0.0,0.0,0.0,0.0,0.0,0.0,0.0,0.0,0.0,0.0,0.0,0.0,0.0,0.0,0.0,0.0,0.0,0.0,0.0,0.0,0.0,0.0,0.0,0.0,0.0,0.0,0.0,0.0,0.0,0.0,0.0,0.0,0.0,0.0,0.0,0.0,0.0,0.0,0.0,0.0,0.0,0.0,0.0,0.0,0.0,0.0,0.0,0.0,0.0,0.0,0.0,0.0,0.0,0.0,0.0,0.0,0.0,0.0,0.0,0.0,0.0,0.0,0.0,0.0,0.0,0.0,0.0,0.0,0.0,0.0,0.0,0.0,0.0,0.0,0.0,0.0,0.0,0.0,0.0,0.0,0.0,0.0,0.0,0.0,0.0,0.0,0.0,0.0,0.0,0.0,0.0,0.0,0.0,0.0,0.0,0.0,0.0,0.0,0.0,0.0,0.4756,0.5029,0.5409,0.6207,0.63,0.6546,0.7171,0.7477,0.7624,0.7621,0.0,0.0,0.0,0.0,0.0,0.0,0.0,0.0,0.0,0.0,0.0,0.0,0.0,0.0,0.0,0.0,0.0,0.0,0.0,0.0,0.0,0.0,0.0,0.0,0.0,0.0,0.0,0.0,0.0,0.0,0.0,0.0,0.0,0.0,0.0,0.0,0.0,0.0,0.0,0.0,0.0,0.0,0.0,0.0,0.0,0.0,0.0,0.0,0.0,0.0,0.0,0.0,0.0,0.0,0.0,0.0,0.0,0.0,0.0,0.0,0.0,0.0,0.0,0.0,0.0,0.0,0.0,0.0,0.0,0.0,0.0,0.0,0.0,0.0,0.0,0.0,0.0,0.0,0.0,0.0,0.0,0.0,0.0,0.0,0.0,0.0,0.0,0.0,0.0,0.0,0.0,0.0,0.0,0.0,0.0,0.0,0.0,0.0,0.0,0.0,0.0,0.0,0.469,0.465,0.4953,0.615,0.63,0.6238,0.6006,0.6019,0.6104,0.0,0.0,0.0,0.0,0.0,0.0,0.0,0.0,0.0,0.0,0.0,0.0,0.0,0.0,0.0,0.0,0.0,0.0,0.0,0.0,0.0,0.0,0.0,0.0,0.0,0.0,0.0,0.0,0.0,0.0,0.0,0.0,0.0,0.0,0.0,0.0,0.0,0.0,0.0,0.0,0.0,0.0,0.0,0.0,0.0,0.0,0.0,0.0,0.0,0.0,0.0,0.0,0.0,0.0,0.0,0.0,0.0,0.0,0.0,0.0,0.0,0.0,0.0,0.0,0.0,0.0,0.0,0.0,0.0,0.0,0.0,0.0,0.0,0.0,0.0,0.0,0.0,0.0,0.0,0.0,0.0,0.0,0.0,0.0,0.0,0.0,0.0,0.0,0.0,0.0,0.0,0.0,0.0,0.0,0.0,0.0,0.0,0.0,0.0,0.0,0.0,0.0,0.0,0.3748,0.424,0.4656,0.5132,0.5867,0.6282,0.6235,0.6471,0.6464,0.599,0.0,0.0,0.0,0.0,0.0,0.0,0.0,0.0,0.0,0.0,0.0,0.0,0.0,0.0,0.0,0.0,0.0,0.0,0.0,0.0,0.0,0.0,0.0,0.0,0.0,0.0,0.0,0.0,0.0,0.0,0.0,0.0,0.0,0.0,0.0,0.0,0.0,0.0,0.0,0.0,0.0,0.0,0.0,0.0,0.0,0.0,0.0,0.0,0.0,0.0,0.0,0.0,0.0,0.0,0.0,0.0,0.0,0.0,0.0,0.0,0.0,0.0,0.0,0.0,0.0,0.0,0.0,0.0,0.0,0.0,0.0,0.0,0.0,0.0,0.0,0.0,0.0,0.0,0.0,0.0,0.0,0.0,0.0,0.0,0.0,0.0,0.0,0.0,0.0,0.0,0.0,0.0,0.0,0.0,0.0,0.0,0.0,0.0,0.0,0.0,0.0,0.0,0.3262,0.37,0.4142,0.4663,0.567,0.6276,0.6173,0.6305,0.6213,0.5836,0.0,0.0,0.0,0.0,0.0,0.0,0.0,0.0,0.0,0.0,0.0,0.0,0.0,0.0,0.0,0.0,0.0,0.0,0.0,0.0,0.0,0.0,0.0,0.0,0.0,0.0,0.0,0.0,0.0,0.0,0.0,0.0,0.0,0.0,0.0,0.0,0.0,0.0,0.0,0.0,0.0,0.0,0.0,0.0,0.0,0.0,0.0,0.0,0.0,0.0,0.0,0.0,0.0,0.0,0.0,0.0,0.0,0.0,0.0,0.0,0.0,0.0,0.0,0.0,0.0,0.0,0.0,0.0,0.0,0.0,0.0,0.0,0.0,0.0,0.0,0.0,0.0,0.0,0.0,0.0,0.0,0.0,0.0,0.0,0.0,0.0,0.0,0.0,0.0,0.0,0.0,0.0,0.0,0.0,0.0,0.0,0.0,0.0,0.0,0.0,0.0,0.0,0.3002,0.3131,0.3481,0.4431,0.5589,0.6242,0.6027,0.5769,0.5633,0.5742,0.0,0.0,0.0,0.0,0.0,0.0,0.0,0.0,0.0,0.0,0.0,0.0,0.0,0.0,0.0,0.0,0.0,0.0,0.0,0.0,0.0,0.0,0.0,0.0,0.0,0.0,0.0,0.0,0.0,0.0,0.0,0.0,0.0,0.0,0.0,0.0,0.0,0.0,0.0,0.0,0.0,0.0,0.0,0.0,0.0,0.0,0.0,0.0,0.0,0.0,0.0,0.0,0.0,0.0,0.0,0.0,0.0,0.0,0.0,0.0,-0.4236,-0.4403,0.0,0.0,0.0,0.0,0.0,0.0,0.0,0.0,0.0,0.0,0.0,0.0,0.0,0.0,0.0,0.0,0.0,0.0,0.0,0.0,0.0,0.0,0.0,0.0,0.0,0.0,0.0,0.0,0.0,0.0,0.0,0.0,0.0,0.0,0.0,0.0,0.0,0.0,0.0,0.0,0.2187,0.2756,0.3183,0.3418,0.5157,0.6286,0.6252,0.583,0.5511,0.5259,0.4462,0.0,0.0,0.0,0.0,0.0,0.0,0.0,0.0,0.0,0.0,0.0,0.0,0.0,0.0,0.0,0.0,0.0,0.0,0.0,0.0,0.0,0.0,0.0,0.0,0.0,0.0,0.0,0.0,0.0,0.0,0.0,0.0,0.0,0.0,0.0,0.0,0.0,0.0,0.0,0.0,0.0,0.0,0.0,0.0,0.0,0.0,0.0,0.0,0.0,0.0,0.0,0.0,0.0,0.0,0.0,0.0,0.0,0.0,0.0,-0.4963,-0.4873,0.0,0.0,0.0,0.0,0.0,0.0,0.0,0.0,0.0,0.0,0.0,0.0,0.0,0.0,0.0,0.0,0.0,0.0,0.0,0.0,0.0,0.0,0.0,0.0,0.0,0.0,0.0,0.0,0.0,0.0,0.0,0.0,0.0,0.0,0.0,0.0,0.0,0.0,0.0,0.0,0.2656,0.2973,0.3302,0.3812,0.5315,0.63,0.63,0.5979,0.5671,0.5372,0.4718,0.0,0.0,0.0,0.0,0.0,0.0,0.0,0.0,0.0,0.0,0.0,0.0,0.0,0.0,0.0,0.0,0.0,0.0,0.0,0.0,0.0,0.0,0.0,0.0,0.0,0.0,0.0,0.0,0.0,0.0,0.0,0.0,0.0,0.0,0.0,0.0,0.0,0.0,0.0,0.0,0.0,0.0,0.0,0.0,0.0,0.0,0.0,0.0,0.0,0.0,0.0,0.0,0.0,-0.5138,-0.5295,-0.5335,-0.5762,-0.5881,-0.5734,-0.5812,-0.5485,-0.4753,-0.3542,0.0,0.0,0.0,0.0,0.0,0.0,0.0,0.0,0.0,0.0,0.0,0.0,0.0,0.0,0.0,0.0,0.0,0.0,0.0,0.0,0.0,0.0,0.2759,0.2761,0.4208,0.5341,0.4538,0.0,0.0,0.0,0.0,0.0,0.0,0.0,0.0,0.0,0.0,0.0,0.3512,0.3489,0.373,0.4598,0.567,0.63,0.63,0.6118,0.5901,0.561,0.5098,0.426,0.0,0.0,0.0,0.0,0.0,0.0,0.0,0.0,0.0,0.0,0.0,0.0,0.0,0.0,0.0,0.0,0.0,0.0,0.0,0.0,0.0,0.0,0.0,0.0,0.0,0.0,0.0,0.0,0.0,0.0,0.0,0.0,-0.5725,-0.6517,0.0,0.0,0.0,0.0,0.0,0.0,0.0,0.0,0.0,0.0,0.0,0.0,0.0,-0.5192,-0.518,-0.5467,-0.5691,-0.5791,-0.602,-0.6149,-0.6149,-0.6972,-0.692,-0.6242,-0.6998,0.0,-0.5369,-0.4047,0.0,0.0,0.0,0.0,0.0,0.0,0.0,0.0,0.0,0.0,0.0,0.0,0.0,0.0,0.0,0.0,0.0,0.0,0.0,0.0,0.0,0.0,0.3049,0.3036,0.4662,0.6112,0.5784,0.5169,0.4568,0.4382,0.4044,0.3744,0.0,0.0,0.0,0.0,0.0,0.0,0.3881,0.4253,0.4561,0.4675,0.567,0.63,0.63,0.6118,0.5901,0.561,0.5426,0.4687,0.3316,0.3181,0.0,0.0,0.0,0.0,0.0,0.0,0.0,0.0,0.0,0.0,0.0,0.0,0.0,0.0,0.0,0.0,0.0,0.0,0.0,0.0,0.0,0.0,0.0,0.0,0.0,0.0,0.0,0.0,0.0,-0.5278,-0.6527,-0.7833,-0.8353,-0.861,0.0,0.0,0.0,0.0,0.0,0.0,0.0,0.0,0.0,-0.5989,-0.5807,-0.5706,-0.5735,-0.603,-0.6254,-0.641,-0.6644,-0.68,-0.6931,-0.7397,-0.7397,-0.705,-0.7343,-0.6718,-0.5392,-0.3901,-0.2776,-0.1851,0.0,0.0,0.0,0.0,-0.1488,-0.1199,-0.1195,-0.0852,-0.0392,-0.0322,0.0,0.0,0.0,0.0,0.0,0.0,0.0,0.0,0.0,0.1593,0.3235,0.3245,0.492,0.6488,0.642,0.603,0.5583,0.5092,0.4907,0.4667,0.4269,0.4214,0.0,0.0,0.0,0.3943,0.4871,0.4847,0.4942,0.5544,0.6025,0.63,0.63,0.6238,0.603,0.5728,0.5572,0.4956,0.3743,0.3426,0.3097,0.0,0.0,0.0,0.0,0.0,0.0,0.0,0.0,0.0,0.0,0.0,0.0,0.0,0.0,0.0,0.0,0.0,0.0,0.0,0.0,0.0,0.0,0.0,0.0,0.0,0.0,0.0,0.0,-0.5983,-0.7228,-0.861,-0.9202,-0.944,0.0,0.0,0.0,0.0,0.0,0.0,-0.6634,-0.6331,-0.6325,-0.6685,-0.6344,-0.6219,-0.6373,-0.6593,-0.678,-0.6932,-0.7153,-0.7316,-0.7434,-0.7546,-0.76,-0.7594,-0.7148,-0.6216,-0.4881,-0.3706,-0.25,-0.1342,-0.0856,-0.0686,-0.0734,-0.1303,-0.1149,-0.0672,-0.0792,-0.0457,0.0,0.0,0.0,0.0,0.0,0.0,0.0,0.0,0.0,0.0,0.0,0.1669,0.3387,0.3447,0.5152,0.6814,0.6814,0.6695,0.64,0.5805,0.5677,0.5511,0.4938,0.49,0.0,0.4921,0.4605,0.474,0.5812,0.5522,0.5517,0.6279,0.6354,0.6337,0.6303,0.63,0.6166,0.582,0.5701,0.516,0.4062,0.3713,0.3352,0.2889,0.0,0.0,0.0,0.0,0.0,0.0,0.0,0.0,0.0,0.0,0.0,0.0,0.0,0.0,0.0,0.0,0.0,0.0,0.0,0.0,0.0,0.0,0.0,0.0,0.0,0.0,0.0,0.0,0.0,-0.8389,-0.9401,0.0,0.0,0.0,0.0,-0.9315,-0.8262,-0.7513,-0.7259,-0.6481,-0.6235,-0.6672,-0.6658,-0.6871,-0.7344,-0.7364,-0.7404,-0.7553,-0.757,-0.758,-0.759,-0.7597,-0.76,-0.755,-0.6253,-0.5018,-0.3868,-0.3671,-0.2771,-0.1491,-0.0433,-0.0038,-0.0036,-0.0075,-0.0076,-0.0039,-0.004,-0.0041,0.0,0.0,0.0,0.0,0.0,0.0,0.0,0.0,0.0,0.0,0.0,0.1796,0.3578,0.3583,0.539,0.7071,0.7071,0.6964,0.681,0.6521,0.6193,0.5912,0.5766,0.0,0.5545,0.5545,0.5728,0.5979,0.6255,0.6455,0.6579,0.6518,0.6501,0.6446,0.631,0.63,0.6166,0.582,0.5793,0.5265,0.4048,0.3984,0.344,0.2277,0.2778,0.0,0.0,0.0,0.0,0.0,0.0,0.0,0.0,0.0,0.0,0.0,0.0,0.0,0.0,0.0,0.0,0.0,0.0,0.0,0.0,0.0,0.0,0.0,0.0,0.0,0.0,0.0,0.0,-1.0597,-1.1489,0.0,-1.1195,-1.1026,-1.0722,-1.0205,-0.8745,-0.7945,-0.8022,-0.7171,-0.6865,-0.7126,-0.7227,-0.7356,-0.7516,-0.7519,-0.759,-0.7736,-0.7736,-0.7787,-0.7833,-0.7833,-0.7833,-0.7784,-0.645,-0.5118,-0.3834,-0.294,-0.1763,-0.053,-0.0132,0.0,0.0,0.0,0.0,0.0,0.0,0.0,0.0,0.0,0.0,0.0,0.0,0.0,0.0,0.0,0.0,0.0,0.0,0.1838,0.3728,0.3632,0.5471,0.7261,0.7119,0.7055,0.6991,0.6922,0.6664,0.6383,0.6177,0.6166,0.6163,0.6071,0.6186,0.6369,0.6525,0.6634,0.6678,0.6624,0.6569,0.6491,0.6443,0.622,0.6023,0.5813,0.5715,0.5391,0.4731,0.4181,0.3856,0.3809,0.3351,0.3128,0.0,0.0,0.0,0.0,0.0,0.0,0.0,0.0,0.0,0.0,0.0,0.0,0.0,0.0,0.0,0.0,0.0,0.0,0.0,0.0,0.0,0.0,0.0,0.0,0.0,0.0,-0.9944,-1.1541,-1.2352,-1.2554,-1.2016,-1.1984,-1.1672,-1.087,-0.9635,-0.8837,-0.859,-0.7724,-0.7363,-0.7516,-0.8081,-0.8164,-0.7746,-0.8174,-0.8224,-0.7889,-0.7889,-0.7891,-0.7988,-0.7988,-0.7988,-0.7889,-0.6126,-0.482,-0.3865,-0.2063,-0.0789,0.0,0.0,0.0,0.0,0.0,0.0,0.0,0.0,0.0,0.0,0.0,0.0,0.0,0.0,0.0,0.0,0.0,0.0,0.0,0.0,0.1873,0.3755,0.3704,0.5616,0.7421,0.7316,0.725,0.725,0.725,0.7054,0.677,0.6529,0.6563,0.6576,0.647,0.6532,0.6664,0.6763,0.682,0.6831,0.6783,0.6685,0.6583,0.6521,0.6247,0.602,0.5813,0.5667,0.5454,0.511,0.4534,0.4281,0.4342,0.3477,0.3118,0.3306,0.0,0.0,0.0,0.0,0.0,0.0,0.0,0.0,0.0,0.0,0.0,0.0,0.0,0.0,0.0,0.0,0.0,0.0,0.0,0.0,0.0,0.0,0.0,-0.6912,-0.9099,-1.0644,-1.1009,-1.1775,-1.2195,-1.1928,-1.2694,-1.2637,-1.1295,-1.0935,-1.0204,-0.9001,-0.8077,-0.7672,-0.7814,-0.906,-0.9187,-0.7988,-0.9266,-0.9266,-0.7988,-0.7988,-0.7988,-0.7988,-0.7988,-0.7988,-0.7839,-0.5168,-0.4016,-0.3815,-0.1109,0.0,0.0,0.0,0.0,0.0,0.0,0.0,0.0,0.0,0.0,0.0,0.0,0.0,0.0,0.0,0.0,0.0,0.0,0.0,0.0,0.0,0.1902,0.3799,0.3798,0.5745,0.7604,0.76,0.76,0.76,0.76,0.736,0.7065,0.6923,0.6896,0.6842,0.6736,0.6841,0.0,0.6893,0.7011,0.7045,0.6906,0.6886,0.6807,0.6545,0.6385,0.6166,0.582,0.5667,0.5454,0.511,0.51,0.4649,0.3672,0.3197,0.2876,0.2718,0.0,0.0,0.0,0.0,0.0,0.0,0.0,0.0,0.0,0.0,0.0,0.0,0.0,0.0,0.0,0.0,0.0,0.0,0.0,0.0,0.0,0.0,-0.6693,-0.8435,-0.8492,-0.9323,-1.1978,-1.2138,-1.1999,-1.2044,-1.2476,-1.2313,-1.1204,-1.0267,-0.9604,-0.9374,-0.8343,-0.7821,-0.7924,-0.8315,-0.8336,-0.7988,-0.8382,-0.8382,-0.7988,-0.7988,-0.7988,-0.7988,-0.7988,-0.7988,-0.7839,-0.5168,-0.4016,-0.3815,-0.1109,0.0,0.0,0.0,0.0,0.0,0.0,0.0,0.0,0.0,0.0,0.0,0.0,0.0,0.0,0.0,0.0,0.0,0.0,0.0,0.0,0.0,0.197,0.3914,0.381,0.5802,0.7726,0.7624,0.76,0.76,0.76,0.7529,0.7424,0.7275,0.7156,0.7024,0.6984,0.7011,0.7038,0.7038,0.7071,0.7082,0.7041,0.6947,0.6851,0.6654,0.6446,0.6166,0.582,0.5667,0.5454,0.511,0.51,0.4918,0.4556,0.4308,0.3809,0.0,0.0,0.0,0.0,0.0,0.0,0.0,0.0,0.0,0.0,0.0,0.0,0.0,0.0,0.0,0.0,0.0,0.0,0.0,0.0,0.0,0.0,-0.59,-0.6985,-0.8684,-0.8645,-0.9227,-1.1453,-1.1538,-1.1472,-1.157,-1.1931,-1.1639,-1.052,-0.991,-0.9388,-0.8919,-0.8244,-0.7897,-0.7985,-0.8528,-0.8581,-0.7988,-0.9069,-0.9069,-0.7988,-0.8581,-0.8528,-0.7988,-0.7988,-0.7988,-0.7839,-0.5168,-0.4016,-0.3815,-0.1109,0.0,0.0,0.0,0.0,0.0,0.0,0.0,0.0,0.0,0.0,0.0,0.0,0.0,0.0,0.0,0.0,0.0,0.0,0.0,0.0147,0.0683,0.2405,0.4141,0.4631,0.6322,0.7885,0.7801,0.7784,0.7784,0.7784,0.7733,0.0,0.757,0.7377,0.7214,0.7105,0.7095,0.7095,0.7095,0.7095,0.7095,0.7095,0.7021,0.6913,0.681,0.6522,0.0,0.0,0.0,0.5542,0.524,0.5133,0.0,0.0,0.0,0.0,0.0,0.0,0.0,0.0,0.1391,0.1583,0.0,0.0,0.0,0.0,0.0,0.0,0.0,0.0,0.0,0.0,0.0,0.0,0.0,0.0,0.0,0.0,-0.6025,-0.6553,-0.7829,-0.8818,-0.9615,-1.0206,-1.0488,-1.0607,-1.0661,-1.1049,-1.0711,-0.9416,-0.9612,-0.9266,-0.8088,0.0,0.0,0.0,0.0,-0.9262,-0.8233,-1.0534,-1.0534,-0.8237,-0.941,-0.9316,-0.7988,-0.7988,-0.7988,-0.7839,-0.5168,-0.4016,-0.3815,-0.1109,0.0,0.0,0.0,0.0,0.0,0.0,0.0,0.0,0.0,0.0,0.0,0.0,0.0,0.0,0.0,0.0,0.0,0.0,0.0,0.0303,0.1661,0.3015,0.4318,0.5677,0.7033,0.7988,0.7988,0.7988,0.7988,0.7988,0.788,0.7831,0.7814,0.758,0.7343,0.7146,0.7122,0.7115,0.7098,0.7095,0.7095,0.7095,0.7095,0.0,0.69,0.6678,0.6491,0.631,0.5973,0.5684,0.5453,0.5281,0.5174,0.5174,0.5174,0.4442,0.2921,0.278,0.1859,0.0221,0.1166,0.1367,0.0,0.0,0.0,0.0,0.0,0.0,0.0,0.0,0.0,0.0,0.0,0.0,0.0,0.0,0.0,-0.4656,-0.5688,-0.6391,-0.5808,-0.6834,-0.8364,-1.0441,-0.996,-0.9498,-0.972,-0.9815,-0.9445,-0.8379,-0.8365,-0.8283,-0.7992,-0.7988,-0.7988,-0.7988,-0.8237,-0.8775,-0.9608,-1.0096,-1.0096,-0.9608,-0.985,0.0,-0.7988,-0.7988,-0.7988,-0.7839,-0.5168,-0.4016,-0.3815,-0.1109,0.0,0.0,0.0,0.0,0.0,0.0,0.0,0.0,0.0,0.0,0.0,0.0,0.0,0.0,0.0,0.0,0.0,0.0,0.0,0.0303,0.1661,0.3015,0.4318,0.5677,0.7033,0.7988,0.7988,0.7988,0.7988,0.7988,0.7965,0.7907,0.7831,0.7668,0.7502,0.735,0.7326,0.7282,0.7112,0.7095,0.7095,0.7095,0.7095,0.7038,0.69,0.6832,0.6675,0.6323,0.5973,0.5776,0.5718,0.5688,0.5671,0.5671,0.5671,0.5218,0.4306,0.3343,0.2359,0.1428,0.0709,0.0293,0.0,0.0,0.0,0.0,0.0,0.0,0.0,0.0,0.0,0.0,0.0,-0.5834,0.0,0.0,-0.5442,-0.4682,-0.5292,-0.5766,-0.5422,-0.5947,-0.7046,-0.8882,-0.8657,-0.8443,-0.8649,-0.8698,-0.8543,-0.8035,-0.7988,-0.7988,-0.7988,-0.7988,-0.7988,-0.7988,-0.7988,-0.8627,-0.9998,-1.0632,-1.0632,-0.9998,-1.0632,-0.9899,-0.7988,-0.7988,-0.7637,-0.6883,-0.4868,-0.3615,-0.2865,-0.0807,0.0,0.0,0.0,0.0,0.0,0.0,0.0,0.0,0.0,0.0,0.0,0.0,0.0,0.0,0.0,0.0,0.0,0.0,0.0504,0.131,0.2665,0.4017,0.5322,0.6681,0.7537,0.7988,0.7988,0.7988,0.7988,0.7988,0.7988,0.7965,0.7891,0.7868,0.7743,0.7519,0.7421,0.7343,0.7265,0.7142,0.7095,0.7095,0.7095,0.7068,0.6997,0.6927,0.68,0.6502,0.6335,0.6217,0.6139,0.6135,0.6135,0.6135,0.6135,0.5742,0.4886,0.3699,0.266,0.1771,0.0572,0.0,0.0,0.0,0.0,0.0,0.0,0.0,0.0,0.0,-0.7246,-0.6783,-0.6796,-0.667,-0.6008,-0.604,-0.5856,-0.5051,-0.5296,-0.5538,-0.5595,-0.5826,-0.6348,-0.7322,-0.755,-0.7695,-0.7841,-0.7917,-0.7988,-0.7988,-0.7988,-0.7988,-0.7988,-0.7988,-0.7988,-0.7988,-0.7988,-0.8627,-0.9998,-1.1023,-1.1023,-0.9998,-1.1023,-1.0288,-0.7988,-0.7988,-0.7285,-0.5929,-0.4318,-0.2864,-0.1511,-0.0454,0.0,0.0,0.0,0.0,0.0,0.0,0.0,0.0,0.0,0.0,0.0,0.0,0.0,0.0,0.0,0.0202,0.0404,0.0404,0.136,0.2715,0.4017,0.5172,0.6331,0.7686,0.7988,0.7988,0.7988,0.7988,0.7988,0.7988,0.7988,0.7988,0.7988,0.7988,0.7897,0.7682,0.7536,0.7448,0.7463,0.7282,0.7139,0.7139,0.7112,0.7095,0.7095,0.6967,0.6832,0.6753,0.6715,0.6647,0.6562,0.6555,0.6555,0.6555,0.6555,0.6175,0.5429,0.4254,0.3126,0.2123,0.0914,0.0219,-0.0474,-0.2045,-0.3423,-0.4733,-0.5876,-0.6889,0.0,0.0,-0.7555,-0.7121,-0.6544,-0.6147,-0.6249,-0.6437,-0.6264,-0.5232,-0.6239,-0.6781,-0.5756,-0.6644,-0.7433,-0.7573,-0.7699,-0.7848,-0.7948,-0.7978,-0.7988,-0.7988,-0.7988,-0.7988,-0.7988,-0.7988,-0.7988,-0.7988,-0.7988,-0.8627,-0.9998,-1.0145,-1.0145,-0.9998,-1.0145,-0.946,-0.7988,-0.7988,-0.7285,-0.5879,-0.3317,-0.146,-0.0202,-0.005,0.0,0.0,0.0,0.0,0.0,0.0,0.0,0.0,0.0,0.0,0.0,0.0,0.0,0.0,0.0,0.0807,0.1762,0.1762,0.2765,0.4067,0.5425,0.5879,0.6331,0.7686,0.7988,0.7988,0.7988,0.7988,0.7988,0.7988,0.7988,0.7988,0.7988,0.7988,0.7931,0.7814,0.7773,0.7716,0.759,0.7441,0.7346,0.7346,0.7221,0.7095,0.7095,0.6967,0.6879,0.6862,0.6776,0.6695,0.6675,0.6675,0.6675,0.6675,0.6675,0.6666,0.6688,0.5472,0.4392,0.3371,0.2178,0.1036,-0.2041,-0.3128,-0.3863,0.0,-0.5918,-0.6872,-0.7319,-0.7714,-0.7889,-0.7465,-0.7205,-0.6984,-0.6685,-0.6749,-0.652,0.0,-0.5921,-0.6224,-0.5894,-0.6228,-0.6859,-0.7617,-0.7777,-0.7834,-0.7899,-0.7938,-0.7988,-0.7988,-0.7988,-0.7988,-0.7988,-0.7988,-0.7988,-0.7988,-0.7988,-0.8627,-0.9998,-0.9998,-0.9998,-0.9998,-0.9998,-0.9316,-0.7988,-0.7988,-0.6828,-0.467,-0.2013,-0.0504,0.0,0.0,0.0,0.0,0.0,0.0,0.0,0.0,0.0,0.0,0.0,0.0,0.0,0.0,0.0,0.0,0.0,0.0958,0.2013,0.2013,0.3518,0.5275,0.5879,0.6581,0.7285,0.7889,0.7988,0.7988,0.7988,0.7988,0.7988,0.7988,0.7988,0.7988,0.7988,0.7988,0.7968,0.7904,0.7868,0.779,0.7729,0.7594,0.7237,0.6456,0.6902,0.6693,0.5179,0.6242,0.6742,0.6084,0.66,0.6913,0.6913,0.6913,0.6913,0.6913,0.6913,0.6943,0.7007,0.5859,0.4721,0.3591,0.2343,0.1152,-0.2996,-0.389,0.0,-0.5411,-0.6325,-0.7014,-0.713,-0.7676,-0.8031,-0.7423,-0.717,-0.6983,-0.6808,-0.6613,-0.6396,-0.6085,-0.6087,-0.6252,-0.6463,-0.6415,-0.6715,-0.7647,-0.7753,-0.7753,-0.7753,-0.7877,-0.7839,-0.7484,-0.7789,-0.7839,-0.7484,-0.7789,-0.7988,-0.7988,-0.7988,-0.8482,-0.946,-0.946,-0.946,-0.946,-0.946,-0.8924,-0.7992,-0.7222,-0.5615,-0.3342,-0.1021,0.0,0.0,0.0,0.0,0.0,0.0,0.0,0.0,0.0,0.0,0.0,0.0,0.0,0.0,0.0,0.0,0.005,0.0454,0.1511,0.2614,0.3016,0.4772,0.6531,0.6531,0.7285,0.7988,0.7988,0.7988,0.7988,0.7988,0.7988,0.7988,0.7988,0.7988,0.7988,0.7988,0.7988,0.7988,0.7988,0.7894,0.7875,0.7875,0.7746,0.7268,0.6239,0.6925,0.6676,0.4824,0.5897,0.6468,0.5897,0.6337,0.6782,0.7095,0.7095,0.7095,0.7095,0.7139,0.7204,0.7159,0.6388,0.5218,0.3622,0.2758,0.1514,-0.262,0.0,-0.5395,-0.6716,-0.7405,-0.7765,-0.7785,-0.8002,-0.7882,-0.6772,-0.5799,-0.5438,-0.6347,-0.5925,-0.5794,-0.6899,-0.7305,-0.7597,-0.7742,-0.7759,-0.7709,-0.7621,-0.7607,-0.7607,0.0,-0.7868,-0.7484,-0.6179,-0.7285,-0.7437,-0.6129,-0.7285,-0.7988,-0.7988,-0.7988,-0.8041,-0.8038,-0.8038,-0.8038,-0.8038,-0.8038,-0.8038,-0.7895,-0.5317,-0.3354,-0.1967,-0.0581,0.0,0.0,0.0,0.0,0.0,0.0,0.0,0.0,0.0,0.0,0.0,0.0,0.0,0.0,0.0,0.0,0.0252,0.1561,0.2864,0.4216,0.5525,0.6883,0.7939,0.7939,0.7988,0.7988,0.7988,0.7988,0.7988,0.7988,0.7988,0.7988,0.7988,0.7988,0.7988,0.7988,0.7988,0.7988,0.7988,0.7985,0.7982,0.7982,0.7899,0.775,0.756,0.759,0.7529,0.7285,0.6259,0.6068,0.6972,0.6027,0.5938,0.7051,0.7095,0.7095,0.7095,0.7288,0.7409,0.7409,0.7466,0.6255,0.3796,0.3773,0.2394,-0.2474,0.0,-0.4842,-0.5386,-0.6276,-0.7086,-0.7056,-0.7151,-0.7094,-0.6716,-0.5796,-0.5409,-0.6447,-0.5832,-0.5664,-0.7083,-0.738,-0.7567,-0.7867,-0.7875,-0.7756,-0.7617,-0.7682,0.0,0.0,0.0,0.0,-0.7378,-0.7739,-0.7789,-0.7335,-0.7736,-0.7988,-0.7988,-0.7988,-0.8039,-0.8194,-0.8194,-0.8241,-0.8333,-0.734,-0.6872,-0.6769,-0.3931,-0.2422,-0.195,-0.0584,0.0,0.0,0.0,0.0,0.0,0.0,0.0,0.0,0.0,0.0,0.0,0.0,0.0,0.0,0.0,0.0,0.0252,0.1611,0.2916,0.4268,0.5627,0.6983,0.7988,0.7988,0.7988,0.7988,0.7988,0.7988,0.7988,0.7988,0.7988,0.7988,0.7988,0.7988,0.7988,0.7988,0.7988,0.7988,0.7988,0.7988,0.7988,0.7988,0.7944,0.756,0.6642,0.7257,0.7006,0.527,0.5447,0.5805,0.6227,0.5809,0.6089,0.7398,0.7444,0.7444,0.7444,0.7495,0.7522,0.7522,0.7577,0.6735,0.5126,0.4238,0.2904,-0.2093,-0.3049,-0.3926,-0.4128,-0.4853,-0.5549,-0.5591,-0.5591,-0.5555,-0.5502,-0.485,-0.4624,-0.5729,-0.531,-0.5302,-0.69,-0.7221,-0.7444,-0.7847,-0.7872,-0.7777,-0.7685,-0.7709,-0.7719,0.0,0.0,0.0,-0.6617,-0.7434,-0.7584,-0.6625,-0.7484,-0.7988,-0.7988,-0.8092,-0.817,-0.832,-0.8374,-0.8128,-0.7685,-0.6729,-0.5776,-0.472,-0.2833,-0.1718,-0.1236,-0.0379,0.0,0.0,0.0,0.0,0.0,0.0,0.0,0.0,0.0,0.0,0.0,0.0,0.0,0.0,0.0,0.0303,0.0958,0.2314,0.3667,0.497,0.6329,0.7335,0.7988,0.7988,0.7988,0.7988,0.7988,0.7988,0.7988,0.7988,0.7988,0.7988,0.7988,0.7988,0.7988,0.7988,0.7587,0.7285,0.7285,0.688,0.6927,0.7889,0.7988,0.7651,0.6816,0.74,0.7194,0.552,0.5606,0.5923,0.6408,0.5499,0.5737,0.7503,0.712,0.712,0.76,0.7648,0.7675,0.7675,0.7248,0.6631,0.5821,0.4491,0.3477,-0.1435,-0.2083,-0.2759,-0.3137,-0.3335,-0.3464,-0.3552,-0.3587,-0.3555,-0.3322,-0.3094,-0.32,0.0,0.0,-0.4755,-0.6427,-0.6857,-0.7205,-0.7746,-0.7769,-0.7721,0.0,0.0,0.0,0.0,0.0,0.0,-0.421,0.0,-0.6828,-0.4316,-0.6634,-0.8002,-0.8002,-0.8201,-0.8337,-0.8344,-0.8383,-0.7706,-0.6323,-0.6162,-0.4678,-0.2027,-0.1952,-0.1204,0.0,0.0,0.0,0.0,0.0,0.0,0.0,0.0,0.0,0.0,0.0,0.0,0.0,0.0,0.0,0.0,0.0,0.0857,0.2163,0.3565,0.487,0.6179,0.7587,0.7988,0.7988,0.7988,0.7988,0.7988,0.7988,0.7988,0.7988,0.7988,0.7988,0.7988,0.7988,0.7988,0.7988,0.7889,0.6833,0.5979,0.5927,0.482,0.4968,0.7587,0.7889,0.7939,0.7988,0.7988,0.7931,0.7834,0.67,0.6455,0.7533,0.5282,0.5043,0.7527,0.6422,0.6325,0.7574,0.7657,0.7724,0.7724,0.6473,0.5879,0.5879,0.4518,0.3915,-0.015,-0.1194,-0.2064,-0.2154,-0.2859,-0.3552,-0.3595,-0.3543,-0.3418,-0.3331,-0.3002,-0.3067,0.0,0.0,0.0,-0.6311,-0.6014,0.0,-0.7603,-0.7018,0.0,-0.7679,0.0,-0.7847,-0.7818,-0.7566,0.0,0.0,-0.6129,-0.6631,-0.698,-0.779,-0.8211,-0.8211,-0.8353,-0.8482,-0.8598,-0.7651,-0.6944,-0.6558,-0.4297,-0.2868,-0.2097,-0.1,-0.0334,0.0,0.0,0.0,0.0,0.0,0.0,0.0,0.0,0.0,0.0,0.0,0.0,0.0,0.0,0.0,0.0,0.0,0.0252,0.0958,0.3265,0.4218,0.502,0.7332,0.7988,0.7988,0.7988,0.7988,0.7988,0.7988,0.7988,0.7988,0.7988,0.7988,0.7988,0.7988,0.7988,0.7686,0.6681,0.6232,0.5677,0.467,0.4216,0.4618,0.6279,0.6531,0.6883,0.7889,0.7988,0.7975,0.7934,0.6735,0.652,0.7831,0.6339,0.6191,0.7828,0.7576,0.7527,0.7877,0.6964,0.6435,0.6435,0.5159,0.4518,0.4468,0.3115,0.2514,0.0955,-0.0084,-0.1001,-0.101,-0.153,-0.2023,-0.2007,-0.1958,-0.2008,-0.2285,-0.2423,0.0,-0.3322,-0.3732,0.0,0.0,0.0,0.0,-0.6691,-0.6369,-0.6457,0.0,-0.7938,0.0,-0.787,-0.744,-0.7033,0.0,-0.6883,-0.6933,-0.7135,-0.788,-0.8323,-0.8323,-0.8472,-0.8655,-0.8808,-0.7392,-0.6366,-0.5697,-0.3351,-0.1845,-0.1231,-0.0392,0.0,0.0,0.0,0.0,0.0,0.0,0.0386,0.0928,0.0268,0.0421,0.088,0.0257,0.0,0.0,0.0,0.0,0.0,0.0,0.0404,0.126,0.3364,0.4418,0.5322,0.7434,0.7988,0.7988,0.7988,0.7988,0.7988,0.7988,0.7988,0.7988,0.7988,0.7988,0.7988,0.7988,0.7988,0.7587,0.6232,0.5525,0.467,0.3316,0.2614,0.2966,0.487,0.5627,0.6531,0.7839,0.7988,0.7988,0.7988,0.7285,0.7185,0.7939,0.6734,0.6581,0.7939,0.7437,0.7385,0.7988,0.6681,0.5979,0.5979,0.4069,0.3416,0.3966,0.3215,0.3217,0.1824,0.1044,0.0219,0.0045,0.0,0.0,0.0,0.0,-0.0181,-0.0819,0.0,-0.2105,-0.2279,-0.2966,-0.3383,-0.3102,0.0,-0.3694,-0.5543,-0.5776,-0.6313,-0.7836,-0.7988,-0.7988,-0.7988,-0.6933,-0.6734,-0.7889,-0.7988,-0.7494,-0.6353,-0.7598,-0.8319,-0.836,-0.8608,-0.8804,-0.8881,-0.726,-0.5753,-0.447,-0.2739,-0.1231,0.0,0.0,0.0,0.0,0.0,0.0,0.0,0.0224,0.1055,0.208,0.1039,0.1234,0.2032,0.0779,0.0154,0.0,0.0,0.0,0.0,0.0,0.0807,0.1963,0.3316,0.467,0.6029,0.7335,0.7889,0.7988,0.7988,0.7988,0.7988,0.7988,0.7988,0.7988,0.7988,0.7988,0.7988,0.7988,0.7988,0.7587,0.6232,0.5022,0.3767,0.2213,0.1008,0.1159,0.3665,0.5022,0.6329,0.7839,0.7988,0.7988,0.7988,0.7988,0.7988,0.7988,0.6933,0.6783,0.7939,0.6883,0.6833,0.7988,0.6681,0.5927,0.5727,0.3417,0.2764,0.3715,0.3915,0.4618,0.2275,0.1669,0.1244,0.0263,0.0,0.0,0.0,0.0,0.0,0.0,-0.0788,-0.1291,-0.1343,-0.2177,-0.2866,-0.2913,-0.2345,-0.2807,-0.5428,-0.4984,-0.5234,0.0,-0.7988,-0.7988,-0.7988,-0.7789,0.0,0.0,-0.7988,-0.7992,-0.7916,-0.826,-0.856,-0.8815,-0.8817,-0.8858,-0.8885,-0.6255,-0.4751,-0.447,-0.1679,-0.0224,0.0,0.0,0.0,0.0,0.0,0.0,0.0112,0.1343,0.1953,0.2279,0.3343,0.3097,0.2156,0.1937,0.1035,0.0,0.0,0.0,0.0,0.0,0.0151,0.0605,0.1963,0.3265,0.4618,0.5977,0.7135,0.7988,0.7988,0.7988,0.7988,0.7988,0.7988,0.7988,0.7988,0.7988,0.7988,0.7988,0.7988,0.7587,0.6232,0.5827,0.4822,0.2364,0.1812,0.2213,0.3815,0.4216,0.527,0.7736,0.7988,0.7988,0.7988,0.7988,0.7988,0.7988,0.7786,0.7736,0.7988,0.7786,0.7736,0.7988,0.6681,0.5475,0.4368,0.3865,0.3215,0.2363,0.3465,0.4116,0.3783,0.2683,0.1648,0.1091,0.0462,0.0,0.0,0.0,0.0,0.0,-0.084,-0.1111,-0.1093,-0.1534,0.0,-0.1448,-0.1033,-0.1727,-0.448,-0.436,0.0,-0.7694,-0.7988,-0.7988,0.0,-0.7988,-0.8022,-0.8153,-0.816,-0.8194,-0.832,-0.8479,-0.8706,-0.8875,-0.8885,-0.8885,-0.8885,-0.5977,-0.4526,-0.447,-0.1456,0.0,0.0,0.0,0.0,0.0,0.0,0.0448,0.1175,0.1901,0.3128,0.4519,0.4486,0.4503,0.4458,0.3689,0.2433,0.1155,0.1144,0.0619,0.0,0.0,0.0,0.0253,0.1579,0.2449,0.3365,0.5403,0.6473,0.7119,0.7809,0.7988,0.7988,0.7988,0.7988,0.7988,0.7988,0.7988,0.7988,0.7988,0.7988,0.7587,0.6232,0.5979,0.5074,0.2414,0.2614,0.3265,0.3915,0.4618,0.5824,0.7789,0.7988,0.7988,0.7988,0.7988,0.7988,0.7988,0.7988,0.7988,0.7988,0.7988,0.7988,0.7988,0.6681,0.5677,0.5022,0.4318,0.3665,0.3065,0.4418,0.5022,0.5107,0.3866,0.2444,0.1949,0.1084,0.0315,0.0071,0.0,0.0,0.0,-0.0866,-0.0866,-0.0866,0.0,-0.068,0.0,-0.021,-0.1177,-0.3594,-0.419,-0.5264,0.0,-0.7971,0.0,-0.7988,-0.8019,0.0,-0.8313,-0.833,-0.8367,-0.8367,-0.8615,-0.8815,-0.8878,-0.8885,-0.8885,-0.8885,-0.6311,-0.4804,-0.447,-0.1735,-0.028,0.0,0.0,0.0,0.0,0.0,0.084,0.2235,0.2571,0.43,0.6591,0.5753,0.5982,0.6565,0.5398,0.3781,0.2191,0.2182,0.1213,0.0,0.0,0.0,0.0204,0.1243,0.177,0.2445,0.4573,0.5611,0.631,0.7311,0.7835,0.8029,0.7995,0.7988,0.7988,0.7988,0.7988,0.7988,0.7988,0.7988,0.7686,0.6631,0.6431,0.5627,0.3217,0.3767,0.4418,0.4418,0.5322,0.6531,0.7839,0.7988,0.7988,0.7988,0.7988,0.7988,0.7988,0.7988,0.7988,0.7988,0.7988,0.7988,0.7988,0.6983,0.6279,0.5979,0.522,0.4718,0.4468,0.5827,0.6431,0.5342,0.5095,0.4555,0.2336,0.1709,0.1343,0.0243,0.0,0.0,-0.0085,-0.0112,-0.0112,-0.0112,-0.0113,-0.0088,0.0,0.0,-0.202,0.0,-0.4745,-0.6024,-0.7649,0.0,0.0,-0.7988,-0.8167,-0.8255,-0.832,-0.852,-0.8669,-0.8669,-0.8828,-0.8868,-0.8885,-0.8885,-0.8885,-0.8885,-0.7315,-0.5808,-0.447,-0.2794,-0.1287,0.0,0.0,0.0,0.0,0.0,0.084,0.2291,0.3688,0.525,0.6813,0.8042,0.7756,0.6674,0.657,0.4678,0.2173,0.2192,0.1223,0.0,0.0,0.0,0.0,0.0159,0.1009,0.2068,0.2279,0.4234,0.6265,0.621,0.7214,0.8214,0.8022,0.7988,0.7988,0.7988,0.7988,0.7988,0.7988,0.7988,0.7939,0.7839,0.7839,0.7335,0.5829,0.5727,0.5827,0.5827,0.5927,0.6531,0.7839,0.7988,0.7988,0.7988,0.7988,0.7988,0.7988,0.7988,0.7988,0.7988,0.7988,0.7988,0.7988,0.7889,0.7235,0.5979,0.7083,0.6983,0.5829,0.7185,0.7839,0.5898,0.5482,0.4737,0.3144,0.2223,0.1389,0.0241,0.0,0.0,0.0,0.0,0.0,0.0,0.0,-0.0143,-0.0605,-0.1011,-0.1984,-0.3962,-0.4145,-0.4946,-0.727,-0.7102,0.0,0.0,0.0,-0.8752,-0.9766,-1.0053,-1.0136,-1.0136,-0.934,-0.8885,-0.8885,-0.8885,-0.8885,-0.8885,-0.7426,-0.5975,-0.447,-0.2961,-0.1454,0.0,0.0,0.0,0.0,0.0,0.084,0.2347,0.3855,0.5363,0.6869,0.8322,0.8546,0.8036,0.8036,0.6688,0.4806,0.3899,0.2615,0.1192,0.0274,0.0,0.0,0.0,0.0379,0.0974,0.1783,0.2806,0.3865,0.4586,0.5829,0.7097,0.7822,0.7988,0.7988,0.7988,0.7988,0.7988,0.7988,0.7988,0.7988,0.7988,0.7988,0.7537,0.6179,0.6681,0.6933,0.6079,0.6681,0.7385,0.7939,0.7988,0.7988,0.7988,0.7988,0.7988,0.7988,0.7988,0.7988,0.7988,0.7988,0.7988,0.7988,0.7988,0.7739,0.7185,0.7739,0.7739,0.7235,0.7736,0.7988,0.6139,0.5808,0.5071,0.3706,0.2746,0.1721,0.0,0.0,0.0,0.0,0.0,0.0,0.0,0.0,-0.017,0.0,-0.1039,-0.1825,-0.3482,-0.3696,-0.4462,0.0,0.0,-0.6815,0.0,-0.8564,-0.9669,-1.1327,-1.1212,-1.1105,-1.1105,-0.9699,-0.8885,-0.8885,-0.8885,-0.8885,-0.8885,-0.7873,-0.6366,-0.447,-0.3409,-0.1846,0.0,0.0,0.0,0.0,0.0,0.084,0.2347,0.3855,0.5363,0.6869,0.8322,0.8885,0.8885,0.8885,0.7986,0.6533,0.553,0.3881,0.2038,0.1004,0.0334,0.0,0.0,0.0,0.0221,0.1156,0.1698,0.2339,0.3701,0.4748,0.5759,0.7169,0.7503,0.7494,0.7503,0.7494,0.7481,0.7444,0.7083,0.693,0.7335,0.7083,0.6628,0.6079,0.6783,0.7235,0.6681,0.7434,0.7988,0.7988,0.7988,0.7988,0.7988,0.7988,0.7988,0.7988,0.7988,0.7988,0.7988,0.7988,0.7988,0.7988,0.7988,0.7988,0.7988,0.7988,0.7988,0.7988,0.7988,0.8015,0.5915,0.6247,0.5952,0.3851,0.3274,0.2701,0.0493,0.0,0.0,0.0,0.0,0.0,0.0,0.0,0.0,0.0,-0.0917,-0.1651,-0.1797,-0.3694,-0.5175,0.0,0.0,-0.7434,-0.759,-0.9468,-1.1236,-1.2653,-1.1751,-1.1105,-1.1105,-0.9699,-0.8885,-0.8885,-0.8885,-0.8885,-0.8885,-0.8881,-0.7426,-0.4526,-0.447,-0.2908,0.0,0.0,0.0,0.0,0.0,0.084,0.2347,0.3855,0.5363,0.6869,0.8322,0.8885,0.8885,0.8885,0.7986,0.6702,0.67,0.4689,0.2179,0.218,0.1175,0.0,0.0,0.0,0.0,0.0,0.0996,0.2345,0.3811,0.4084,0.4399,0.5932,0.6303,0.6325,0.6316,0.6344,0.6259,0.605,0.497,0.4468,0.5777,0.492,0.4468,0.5777,0.6029,0.6481,0.7789,0.7988,0.7988,0.7988,0.7988,0.7988,0.7988,0.7988,0.7988,0.7988,0.7988,0.7988,0.7988,0.7988,0.7988,0.7988,0.7988,0.7988,0.7988,0.7988,0.7988,0.7988,0.7988,0.8123,0.5302,0.5177,0.4594,0.3248,0.2504,0.175,0.0316,0.0,0.0,0.0,0.0,0.0,0.0,0.0,-0.0172,-0.0673,-0.1035,0.0,0.0,0.0,0.0,-0.3957,-0.5452,-0.6853,0.0,0.0,-1.1708,-1.1392,-1.1914,-1.187,-1.1018,-0.9636,-0.8885,-0.8885,-0.8885,-0.8885,-0.8885,-0.8885,-0.7426,-0.4526,-0.4526,-0.2908,0.0,0.0,0.0,0.0,0.0,0.084,0.2347,0.3855,0.5363,0.6869,0.8322,0.8885,0.8885,0.8885,0.8602,0.8042,0.7035,0.5417,0.3576,0.2571,0.1175,0.0,0.0,0.0,0.0,0.0,0.0279,0.0942,0.2352,0.2661,0.2964,0.4413,0.5512,0.6295,0.6312,0.7093,0.7739,0.7607,0.6497,0.5655,0.5942,0.487,0.4166,0.4568,0.4618,0.4768,0.522,0.6077,0.6631,0.6631,0.7434,0.7988,0.7988,0.7988,0.7988,0.7988,0.7988,0.7988,0.7988,0.7988,0.7988,0.7988,0.7988,0.7988,0.7988,0.7988,0.8096,0.8197,0.8197,0.8275,0.0,0.4538,0.3886,0.2931,0.2161,0.1319,0.0244,0.0,0.0,0.0,0.0,0.0,0.0,-0.0224,-0.0486,-0.0667,-0.0927,0.0,0.0,0.0,0.0,-0.3955,0.0,0.0,0.0,-1.0543,-1.1579,-1.1346,-1.1751,-1.1659,-1.0874,-0.9509,-0.8767,-0.8767,-0.8824,-0.8885,-0.8885,-0.8885,-0.7426,-0.4526,-0.4526,-0.2908,0.0,0.0,0.0,0.0056,0.0616,0.1343,0.0,0.4468,0.5864,0.6869,0.8322,0.8885,0.8885,0.8885,0.8885,0.8771,0.7875,0.62,0.4359,0.3353,0.1678,0.0,0.0,0.0,0.0,0.0,0.0,0.0168,0.105,0.1268,0.1594,0.2984,0.4054,0.4911,0.5521,0.6318,0.6926,0.6804,0.5683,0.4677,0.4523,0.3387,0.267,0.3181,0.3232,0.3437,0.3947,0.515,0.5992,0.5992,0.7261,0.8102,0.7995,0.7988,0.7988,0.7988,0.7988,0.7988,0.7988,0.7988,0.7988,0.7988,0.7988,0.8019,0.8126,0.818,0.8255,0.835,0.835,0.8428,0.0,0.4288,0.3723,0.2904,0.2137,0.1298,0.0293,0.0029,0.0,0.0,0.0,0.0,0.0,-0.0617,-0.087,-0.0114,-0.0614,0.0,0.0,-0.1003,0.0,0.0,-0.6552,0.0,-0.9527,-1.0098,-1.0856,-1.2009,-1.1183,-1.0625,-1.0522,-0.925,-0.8482,-0.8482,-0.8757,-0.8854,-0.8868,-0.8878,-0.7482,-0.4639,-0.4528,-0.2964,-0.0168,-0.0056,0.0,0.0056,0.1454,0.218,0.2571,0.5415,0.6589,0.6813,0.8211,0.8771,0.8771,0.8771,0.8826,0.8885,0.8885,0.698,0.447,0.4247,0.2294,0.0,0.0,0.0,0.0,0.0,0.0,0.0,0.0,0.0,0.0336,0.1733,0.2124,0.2615,0.4161,0.4475,0.4451,0.4372,0.3191,0.2182,0.202,0.0905,0.0426,0.1648,0.1861,0.2285,0.3554,0.4966,0.5847,0.5847,0.7349,0.8228,0.8032,0.8022,0.8015,0.8008,0.8015,0.8022,0.8022,0.8022,0.8022,0.8022,0.8022,0.8143,0.8337,0.8418,0.8486,0.8499,0.8499,0.8581,0.3965,0.0,0.3101,0.2915,0.1944,0.1006,0.0,0.0319,0.0,0.0,0.0,0.0,0.0,-0.0598,-0.0845,-0.0131,0.0,0.0,-0.1355,0.0,0.0,-0.5518,-0.5239,-0.5802,-0.8171,-0.9422,-0.9817,-0.9076,-0.9827,-0.9878,-0.8925,-0.8626,-0.8482,-0.8482,-0.8554,-0.8645,-0.8764,-0.8824,-0.7986,-0.6144,-0.5027,-0.3521,-0.1622,-0.0504,0.0,0.0,0.0392,0.1847,0.4023,0.4749,0.5697,0.6758,0.7093,0.7204,0.7204,0.7204,0.7931,0.8885,0.8885,0.698,0.4136,0.1791,0.056,0.0,0.0,0.0,0.0,0.0,0.0,0.0,0.0,0.0,0.0112,0.0448,0.1399,0.2623,0.4169,0.45,0.4808,0.5753,0.3898,0.2161,0.2024,0.0905,0.0107,0.0426,0.048,0.0586,0.0905,0.3122,0.4639,0.4639,0.6901,0.8418,0.8381,0.8377,0.8333,0.8221,0.8316,0.8377,0.8377,0.8377,0.8377,0.8377,0.8377,0.8394,0.8431,0.8465,0.854,0.8655,0.8655,0.8737,0.3716,0.3409,0.298,0.2584,0.1791,0.0976,0.057,0.0,0.0,0.0,0.0,0.0,0.0,0.0,0.0,0.0,-0.1415,0.0,0.0,0.0,-0.4279,-0.5802,-0.5924,-0.6426,-0.7839,-0.8676,-0.8775,-0.8038,-0.8753,-0.8901,-0.8214,-0.8238,-0.8279,-0.8279,-0.8347,-0.8489,-0.871,-0.8794,-0.809,-0.67,-0.5196,-0.3688,-0.2124,-0.0672,0.0,0.0056,0.0728,0.1958,0.3519,0.4191,0.4973,0.5697,0.5697,0.5697,0.5753,0.6478,0.7204,0.7875,0.7875,0.5917,0.3074,0.0728,0.0,0.0,0.0,0.0,0.0,0.0,0.0,0.0,0.0,0.0,0.0,0.0,0.0616,0.1622,0.313,0.3465,0.3677,0.4412,0.3251,0.1981,0.12,0.0491,0.0,0.0,0.0,0.0218,0.0926,0.2862,0.4455,0.5204,0.7242,0.8557,0.8486,0.8611,0.8601,0.8381,0.8438,0.8482,0.8482,0.8482,0.8482,0.8482,0.855,0.8587,0.8587,0.8659,0.8733,0.8815,0.8815,0.8804,0.3658,0.3564,0.3277,0.2324,0.1769,0.1243,0.0,0.0,0.0,0.0,0.0,0.0,0.0,0.0,0.0,0.0,0.0,0.0,-0.3769,-0.5054,-0.5999,-0.6016,-0.6983,-0.7786,-0.7988,-0.7988,-0.7988,-0.7988,-0.7988,-0.7988,-0.7988,-0.7988,-0.7988,-0.7988,-0.8167,-0.8367,-0.8638,-0.8686,-0.8116,-0.7008,-0.5299,-0.3799,-0.2515,-0.0784,0.0,0.0056,0.1343,0.2012,0.2291,0.3632,0.4136,0.4136,0.4136,0.4136,0.4303,0.5528,0.6142,0.6311,0.6086,0.4355,0.1956,0.0504,0.0,0.0,0.0,0.0,0.0,0.0,0.0,0.0,0.0,0.0,0.0,0.0,0.0,0.0392,0.1901,0.2013,0.1956,0.218,0.2012,0.1454,0.0224,0.0,0.0,0.0,0.0,0.0448,0.1677,0.3255,0.4755,0.6065,0.7705,0.8693,0.8564,0.8791,0.8828,0.8567,0.8554,0.8554,0.8554,0.8554,0.8554,0.8554,0.8679,0.8747,0.8747,0.8821,0.8885,0.8885,0.8885,0.8885,0.3883,0.4124,0.4041,0.2891,0.2332,0.2003,0.174,0.0,0.0,0.0,0.0,0.0,0.0,0.0,-0.2448,0.0,0.0,-0.4894,0.0,0.0,-0.585,-0.5967,0.0,-0.6731,-0.7889,-0.7988,-0.7988,-0.7988,-0.7988,-0.7988,-0.7988,-0.7988,-0.7988,-0.7988,-0.8012,-0.816,-0.8336,-0.8584,-0.8612,-0.8361,-0.5768,-0.4359,-0.408,-0.1288,0.0,0.0,0.0224,0.1063,0.2235,0.2459,0.2571,0.2571,0.2571,0.2571,0.2571,0.2793,0.3742,0.4637,0.3351,0.257,0.1956,0.0504,0.0,0.0,0.0,0.0,0.0,0.0,0.0,0.0,0.0,0.0,0.0,0.0,0.0,0.0392,0.1901,0.1231,0.0728,0.1956,0.1175,0.028,0.0056,0.0,0.0,0.0,0.0,0.0056,0.0336,0.2734,0.4564,0.4786,0.7232,0.8841,0.8814,0.8858,0.8865,0.8817,0.8814,0.8814,0.8814,0.8814,0.8814,0.8814,0.8838,0.8848,0.8848,0.8871,0.8885,0.8885,0.8885,0.8885,0.3744,0.406,0.4108,0.3143,0.3039,0.3039,0.2578,0.0,0.0,0.0,0.0,0.0,0.0,0.0,-0.1684,-0.2728,0.0,-0.6554,-0.6135,-0.6611,-0.7014,-0.7077,-0.7083,-0.7335,-0.7939,-0.7988,-0.7988,-0.7988,-0.7988,-0.7988,-0.7988,-0.7988,-0.7988,-0.7988,-0.7988,-0.8022,-0.8143,-0.8364,-0.8513,-0.8538,-0.579,-0.4448,-0.4246,-0.1338,0.0,0.0,0.0,0.0392,0.1008,0.1008,0.1008,0.1008,0.1008,0.1008,0.1119,0.1901,0.2626,0.3129,0.2459,0.1677,0.0896,0.0224,0.0,0.0,0.0,0.0,0.0,0.0,0.0,0.0,0.0,0.0,0.0,0.0,0.0,0.0168,0.084,0.0504,0.0224,0.0896,0.0448,0.0,0.0,0.0,0.0,0.0,0.0,0.028,0.1063,0.2404,0.3854,0.5528,0.6924,0.8042,0.8826,0.8885,0.8885,0.8885,0.8885,0.8885,0.8885,0.8885,0.8885,0.8885,0.8885,0.8885,0.8885,0.8885,0.8885,0.8885,0.8885,0.8885,0.3708,0.3937,0.4078,0.36,0.0,0.378,0.3317,0.0,0.0,0.0,0.0,0.0,0.0,-0.0214,0.0,-0.3423,-0.5696,-0.7216,-0.7353,-0.7717,-0.7988,-0.7988,-0.7988,-0.7988,-0.7988,-0.7988,-0.7988,-0.7988,-0.7988,-0.7988,-0.7988,-0.7988,-0.7988,-0.7988,-0.7988,-0.7988,-0.7988,-0.8194,-0.8378,-0.8435,-0.6035,-0.4669,-0.414,-0.1604,-0.0279,0.0,0.0,0.0,0.0,0.0,0.0,0.0,0.0,0.0,0.0112,0.1287,0.1677,0.1677,0.1677,0.0952,0.0,0.0,0.0,0.0,0.0,0.0,0.0,0.0,0.0,0.0,0.0,0.0,0.0,0.0,0.0,0.0,0.0,0.0,0.0,0.0,0.0,0.0112,0.0448,0.0504,0.0616,0.1008,0.1064,0.1343,0.2124,0.2793,0.4019,0.5975,0.6813,0.7651,0.8826,0.8885,0.8885,0.8885,0.8885,0.8885,0.8885,0.8885,0.8885,0.8885,0.8885,0.8885,0.8885,0.8885,0.8885,0.8885,0.8885,0.8885,0.4031,0.4089,0.4261,0.4532,0.4103,0.0,0.4042,0.2558,0.0,0.259,0.0,0.0,0.0,-0.0899,-0.2139,-0.359,-0.4999,-0.5984,-0.6101,-0.7229,-0.7988,-0.7988,-0.7988,-0.7988,-0.7988,-0.7988,-0.7988,-0.7988,-0.7988,-0.7988,-0.7988,-0.7988,-0.7988,-0.7988,-0.7988,-0.7988,-0.7988,-0.8194,-0.8327,-0.8289,-0.6857,-0.5469,-0.4139,-0.2566,-0.1159,0.0,0.0,0.0,0.0,0.0,0.0,0.0,0.0,0.0,0.0,0.0112,0.0168,0.0168,0.0168,0.0112,0.0,0.0,0.0,0.0,0.0,0.0,0.0,0.0,0.0,0.0,0.0,0.0,0.0,0.0,0.0,0.0,0.0,0.0,0.0,0.0,0.0,0.0448,0.1789,0.2068,0.2515,0.3968,0.4191,0.3688,0.2347,0.4634,0.5919,0.4804,0.7091,0.8771,0.8881,0.8885,0.8885,0.8885,0.8885,0.8885,0.8885,0.8885,0.8885,0.8885,0.8885,0.8885,0.8885,0.8885,0.8885,0.8885,0.8885,0.8885,0.4271,0.4325,0.4409,0.4549,0.4647,0.0,0.0,0.4174,0.3199,0.3214,0.2084,0.0,0.0,0.0,-0.2093,-0.2592,-0.3813,-0.472,-0.4758,-0.5924,-0.6731,-0.6731,-0.7487,-0.7988,-0.7988,-0.7988,-0.7988,-0.7988,-0.7988,-0.7988,-0.7988,-0.7988,-0.7988,-0.7988,-0.7988,-0.7988,-0.7988,-0.8099,-0.8126,-0.8079,-0.69,-0.5499,-0.4006,-0.2615,-0.1248,0.0,0.0,0.0,0.0,0.0,0.0,0.0,0.0,0.0,0.0,0.0,0.0,0.0,0.0,0.0,0.0,0.0,0.0,0.0,0.0,0.0,0.0,0.0,0.0,0.0,0.0,0.0,0.0,0.0,0.0,0.0,0.0,0.0,0.028,0.1175,0.0616,0.0784,0.3186,0.285,0.2738,0.4247,0.4526,0.4303,0.3688,0.3798,0.4411,0.5753,0.7706,0.8885,0.8885,0.8885,0.8885,0.8885,0.8885,0.8885,0.8885,0.8885,0.8885,0.8885,0.8885,0.8885,0.8885,0.8885,0.8984,0.9072,0.9072,0.9123,0.4545,0.4447,0.4416,0.0,0.0,0.0,0.5857,0.5193,0.4414,0.4164,0.2914,0.0,0.0216,0.0,0.0,-0.1372,-0.2477,-0.3368,-0.336,-0.452,-0.5525,-0.5929,-0.6833,-0.7537,-0.7939,-0.7988,-0.7988,-0.7988,-0.7988,-0.7988,-0.7988,-0.7988,-0.7988,-0.7988,-0.7988,-0.7988,-0.7988,-0.7988,-0.7988,-0.7992,-0.7211,-0.6076,-0.4597,-0.3244,-0.1916,-0.0597,-0.0163,0.0,0.0,0.0,0.0,0.0,0.0,0.0,0.0,0.0,0.0,0.0,0.0,0.0,0.0,0.0,0.0,0.0,0.0,0.0,0.0,0.0,0.0,0.0,0.0,0.0,0.0,0.0,0.0,0.0,0.0,0.0,0.028,0.1287,0.0672,0.0952,0.3968,0.3632,0.3575,0.5584,0.5864,0.5697,0.5252,0.4689,0.5144,0.7254,0.8385,0.9025,0.9076,0.9079,0.9079,0.9079,0.9079,0.9035,0.8888,0.8885,0.8885,0.8885,0.8885,0.8885,0.8885,0.8984,0.9055,0.921,0.9258,0.934,0.4861,0.4462,0.0,0.0,0.0,0.0,0.6163,0.5395,0.4728,0.5415,0.3659,0.1583,0.023,0.0,0.0,0.0,-0.113,-0.1962,-0.1962,-0.3115,-0.4468,-0.5827,-0.5979,-0.6531,-0.7889,-0.7988,-0.7988,-0.7988,-0.7988,-0.7988,-0.7988,-0.7988,-0.7988,-0.7988,-0.7988,-0.7988,-0.7988,-0.7988,-0.7988,-0.7988,-0.7988,-0.7305,-0.5938,-0.4644,-0.3286,-0.1913,-0.0586,0.0,0.0,0.0,0.0,0.0,0.0,0.0,0.0,0.0,0.0,0.0,0.0,0.0,0.0,0.0,0.0,0.0,0.0,0.0,0.0,0.0,0.0,0.0,0.0,0.0,0.0,0.0,0.0,0.0,0.0,0.0,0.0,0.0,0.0,0.0952,0.4024,0.4526,0.5475,0.8436,0.8885,0.8377,0.6869,0.7986,0.8994,0.914,0.921,0.9272,0.9367,0.9381,0.9381,0.9381,0.9381,0.9249,0.8898,0.8888,0.8888,0.8888,0.8888,0.8888,0.8888,0.9086,0.9214,0.9217,0.9313,0.9384,0.5362,0.0,0.0,0.0,0.0,0.0,0.0,0.6247,0.0,0.0,0.3034,0.1606,0.0236,0.0,0.0,0.0,-0.0344,-0.0596,-0.0604,-0.1762,-0.3116,-0.4418,-0.5425,-0.6531,-0.7889,-0.7988,-0.7988,-0.7988,-0.7988,-0.7988,-0.7988,-0.7988,-0.7988,-0.7988,-0.7988,-0.7988,-0.7988,-0.7988,-0.7988,-0.7988,-0.7988,-0.7306,-0.5979,-0.5571,-0.4145,-0.1982,-0.1566,-0.0895,0.0,0.0,0.0,0.0,0.0,0.0,0.0,0.0,0.0,0.0,0.0,0.0,0.0,0.0,0.0,0.0,0.0,0.0,0.0,0.0,0.0,0.0,0.0,0.0,0.0,0.0,0.0,0.0,0.0,0.0,0.028,0.1343,0.0728,0.1288,0.5361,0.5196,0.5475,0.8436,0.8885,0.8412,0.703,0.8176,0.8744,0.7838,0.8669,0.9334,0.9378,0.9381,0.9381,0.9381,0.9381,0.9344,0.9252,0.9249,0.9249,0.9249,0.9249,0.9249,0.9249,0.9293,0.9367,0.9476,0.952,0.9595,0.5486,0.0,0.0,0.0,0.0,0.0,0.0,0.0,0.0,0.0,0.2757,0.1596,0.0241,0.0,0.0,0.0,0.0,0.0,0.0,-0.0706,-0.1711,-0.3065,-0.437,-0.5724,-0.7083,-0.7686,-0.7988,-0.7988,-0.7988,-0.7988,-0.7988,-0.7988,-0.7988,-0.7988,-0.7988,-0.7988,-0.7988,-0.7988,-0.7988,-0.7988,-0.7988,-0.7587,-0.6781,-0.6232,-0.5105,-0.3526,-0.2455,-0.1242,0.0,0.0,0.0,0.0,0.0,0.0,0.0,0.0,0.0,0.0,0.0,0.0,0.0,0.0,0.0,0.0,0.0,0.0,0.0,0.0,0.0,0.0,0.0,0.0,0.0,0.0,0.0,0.0,0.0,0.0,0.028,0.1175,0.0616,0.1232,0.5139,0.5085,0.5475,0.8436,0.8988,0.8713,0.7939,0.8685,0.8951,0.8151,0.8935,0.9496,0.9551,0.9554,0.9554,0.9554,0.9554,0.9554,0.9554,0.9442,0.9381,0.9381,0.9381,0.9381,0.9381,0.9442,0.952,0.9612,0.9666,0.9741,0.0,0.0,0.0,0.0,0.0,0.0,0.0,0.0,0.5251,0.4031,0.0,0.1779,0.0441,0.0097,0.0,0.0,0.0,0.0,0.0,0.0,-0.0504,-0.1862,-0.3065,-0.4368,-0.5879,-0.7083,-0.7889,-0.7988,-0.7988,-0.7988,-0.7988,-0.7988,-0.7988,-0.7988,-0.7988,-0.7988,-0.7988,-0.7988,-0.7988,-0.7988,-0.7988,-0.7988,-0.7939,-0.6734,-0.6029,-0.5677,-0.3118,-0.1221,0.0,0.0,0.0,0.0,0.0,0.0,0.0,0.0,0.0,0.0,0.0,0.0,0.0,0.0,0.0,0.0,0.0,0.0,0.0,0.0,0.0,0.0,0.0,0.0,0.0,0.0,0.0,0.0,0.0,0.0,0.0,0.0,0.0,0.0896,0.3801,0.4414,0.5532,0.8507,0.9059,0.9204,0.9238,0.93,0.9445,0.9612,0.9629,0.9683,0.9812,0.9822,0.9822,0.9822,0.9822,0.9822,0.9822,0.9564,0.9422,0.9422,0.9422,0.9422,0.9422,0.9561,0.9629,0.9632,0.9761,0.9822,0.0,0.5103,0.0,0.0,0.0,0.0,0.0,0.0,0.54,0.5197,0.4324,0.3181,0.18,0.0699,0.0,0.0,0.0,0.0,0.0,0.0,-0.0504,-0.1862,-0.2264,-0.3367,-0.5777,-0.6279,-0.6883,-0.7939,-0.7988,-0.7988,-0.7988,-0.7988,-0.7988,-0.7988,-0.7988,-0.7988,-0.7988,-0.7988,-0.7988,-0.7988,-0.7988,-0.7988,-0.7988,-0.7686,-0.6426,-0.4318,-0.2715,-0.1262,0.0,0.0,0.0,0.0,0.0,0.0,0.0,0.0,0.0,0.0,0.0,0.0,0.0,0.0,0.0,0.0,0.0,0.0,0.0,0.0,0.0,0.0,0.0,0.0,0.0,0.0,0.0,0.0,0.0,0.0,0.0,0.0,0.0,0.056,0.2403,0.3688,0.5553,0.8689,0.9035,0.9096,0.9401,0.9405,0.9483,0.9747,0.9774,0.9788,0.9819,0.9822,0.9822,0.9822,0.9822,0.9822,0.9822,0.9761,0.9727,0.9727,0.9727,0.9727,0.9727,0.9758,0.9774,0.9778,0.9805,0.9822,0.0,0.0,0.0,0.0,0.0,0.0,0.0,0.0,0.6374,0.6438,0.5113,0.3472,0.2136,0.1402,0.0756,0.0101,0.0,0.0,0.0,0.0,-0.0252,-0.0958,-0.1611,-0.2565,-0.3969,-0.5225,-0.6279,-0.6983,-0.7637,-0.7988,-0.7988,-0.7988,-0.7988,-0.7988,-0.7988,-0.7988,-0.7988,-0.7988,-0.7988,-0.7988,-0.7988,-0.7988,-0.7988,-0.7988,-0.688,-0.487,-0.3516,-0.2213,-0.0907,-0.0252,0.0,0.0,0.0,0.0,0.0,0.0,0.0,0.0,0.0,0.0,0.0,0.0,0.0,0.0,0.0,0.0,0.0,0.0,0.0,0.0,0.0,0.0,0.0,0.0,0.0,0.0,0.0,0.0,0.0,0.0,0.0,0.0449,0.1921,0.3852,0.5799,0.7393,0.8533,0.9225,0.9429,0.9534,0.9649,0.9805,0.9822,0.9822,0.9822,0.9822,0.9822,0.9822,0.9822,0.9822,0.9822,0.9822,0.9822,0.9822,0.9822,0.9822,0.9822,0.9822,0.9822,0.9822,0.9822,0.9822,0.0,0.0,0.0,0.0,0.0,0.0,0.0,0.0,0.7333,0.7333,0.5625,0.3798,0.269,0.2182,0.1605,0.0504,0.0151,0.0,0.0,0.0,0.0,0.0,-0.0958,-0.1762,-0.1962,-0.4021,-0.5527,-0.5979,-0.7033,-0.7736,-0.7988,-0.7988,-0.7988,-0.7988,-0.7988,-0.7988,-0.7988,-0.7988,-0.7988,-0.7988,-0.7988,-0.7988,-0.7988,-0.7988,-0.7285,-0.5929,-0.4568,-0.3215,-0.1913,-0.0555,0.0,0.0,0.0,0.0,0.0,0.0,0.0,0.0,0.0,0.0,0.0,0.0,0.0,0.0,0.0,0.0,0.0,0.0,0.0,0.0,0.0,0.0,0.0,0.0,0.0,0.0,0.0,0.0,0.0,0.0,0.0,0.0511,0.2063,0.4083,0.5709,0.6472,0.8117,0.9344,0.9445,0.9669,0.9822,0.9822,0.9822,0.9822,0.9822,0.9822,0.9822,0.9822,0.9822,0.9822,0.9822,0.9822,0.9822,0.9822,0.9822,0.9822,0.9822,0.9822,0.9822,0.9822,0.9822,0.9822,0.0,0.0,0.0,0.0,0.0,0.0,0.0,0.0,0.7125,0.0,0.6202,0.5358,0.5257,0.3381,0.1829,0.1757,0.0756,0.0,0.0,0.0,0.0,0.0,-0.0151,-0.0706,-0.1862,-0.2314,-0.3518,-0.5827,-0.6179,-0.6781,-0.7939,-0.7988,-0.7988,-0.7988,-0.7988,-0.7988,-0.7988,-0.7988,-0.7988,-0.7988,-0.7988,-0.7988,-0.7988,-0.7988,-0.7285,-0.5929,-0.4568,-0.3215,-0.1913,-0.0555,0.0,0.0,0.0,0.0,0.0,0.0,0.0,0.0,0.0,0.0,0.0,0.0,0.0,0.0,0.0,0.0,0.0,0.0,0.0,0.0,0.0,0.0,0.0,0.0,0.0,0.0,0.0,0.0,0.0,0.0,0.0,0.0642,0.2543,0.3175,0.4688,0.8408,0.8981,0.9181,0.9696,0.9795,0.9822,0.9822,0.9822,0.9822,0.9822,0.9822,0.9822,0.9822,0.9822,0.9822,0.9822,0.9822,0.9822,0.9822,0.9822,0.9822,0.9822,0.9822,0.9822,0.9822,0.9822,0.9822,0.0,0.0,0.0,0.0,0.0,0.0,0.0,0.0,0.7001,0.7082,0.6745,0.6273,0.5699,0.4718,0.3578,0.2128,0.1451,0.0857,0.0101,0.0,0.0,0.0,0.0,-0.0252,-0.0807,-0.1561,-0.2465,-0.3668,-0.5175,-0.6279,-0.6833,-0.7587,-0.7988,-0.7988,-0.7988,-0.7988,-0.7988,-0.7988,-0.7988,-0.7988,-0.7988,-0.7988,-0.7988,-0.7988,-0.7686,-0.7033,-0.5724,-0.437,-0.3015,-0.1661,-0.0656,0.0,0.0,0.0,0.0,0.0,0.0,0.0,0.0,0.0,0.0,0.0,0.0,0.0,0.0,0.0,0.0,0.0,0.0,0.0,0.0,0.0,0.0,0.0,0.0,0.0,0.0,0.0,0.0,0.0,0.0,0.0297,0.118,0.1309,0.1981,0.3852,0.7136,0.9527,0.9788,0.9822,0.9822,0.9822,0.9822,0.9822,0.9822,0.9822,0.9822,0.9822,0.9822,0.9822,0.9822,0.9822,0.9822,0.9822,0.9822,0.9822,0.9822,0.9822,0.9822,0.9822,0.9822,0.9822,0.0,0.0,0.0,0.0,0.0,0.0,0.0,0.0,0.6916,0.0,0.7071,0.6862,0.5969,0.5805,0.5002,0.269,0.2138,0.1511,0.0202,0.0,0.0,0.0,0.0,0.0,0.0,-0.0907,-0.1611,-0.1962,-0.3869,-0.5275,-0.5979,-0.6933,-0.7637,-0.7988,-0.7988,-0.7988,-0.7988,-0.7988,-0.7988,-0.7988,-0.7988,-0.7988,-0.7988,-0.7988,-0.7988,-0.7939,-0.6581,-0.5425,-0.4418,-0.3065,-0.1711,-0.0555,-0.0907,-0.0605,-0.0051,-0.0361,-0.0315,0.0,0.0,0.0,0.0,0.0,0.0,0.0,0.0,0.0,0.0,0.0,0.0,0.0,0.0,0.0,0.0,0.0,0.0,0.0,0.0,0.0,0.0,0.0,0.0,0.0,0.0,0.0,0.0,0.0,0.5586,0.9822,0.9822,0.9822,0.9822,0.9822,0.9822,0.9822,0.9822,0.9822,0.9822,0.9822,0.9822,0.9822,0.9822,0.9822,0.9822,0.9822,0.9822,0.9822,0.9822,0.9822,0.9822,0.9822,0.9822,0.9822,0.0,0.0,0.0,0.0,0.0,0.0,0.0,0.0,0.6886,0.6896,0.7004,0.7098,0.7017,0.6239,0.5206,0.3898,0.2732,0.1511,0.0202,0.0,0.0,0.0,0.0,0.0,0.0,-0.005,-0.0656,-0.1913,-0.2113,-0.3317,-0.5879,-0.6079,-0.6681,-0.7939,-0.7988,-0.7988,-0.7988,-0.7988,-0.7988,-0.7988,-0.7988,-0.7988,-0.7988,-0.7988,-0.7988,-0.7939,-0.6581,-0.5979,-0.5777,-0.4468,-0.3115,-0.2013,-0.3316,-0.2213,-0.0152,-0.144,-0.1101,0.0,0.0,0.0,0.0,0.0,0.0,0.0,0.0,0.0,0.0,0.0,0.0,0.0,0.0,0.0,0.0,0.0,0.0,0.0,0.0,0.0,0.0,0.0,0.0,0.0,0.0,0.0,0.0,0.0,0.5586,0.9822,0.9822,0.9822,0.9822,0.9822,0.9822,0.9822,0.9822,0.9822,0.9822,0.9822,0.9822,0.9822,0.9822,0.9822,0.9822,0.9822,0.9822,0.9822,0.9822,0.9822,0.9822,0.9822,0.9822,0.9822,0.0,0.0,0.0,0.0,0.0,0.0,0.5952,0.6278,0.6556,0.6742,0.6859,0.6991,0.7078,0.6898,0.6343,0.5029,0.3869,0.2669,0.1337,0.0501,0.0,0.0,0.0,0.0,0.0,0.0,-0.0202,-0.0656,-0.1511,-0.2414,-0.3369,-0.427,-0.492,-0.542,-0.542,-0.542,-0.542,-0.542,-0.5874,-0.6731,-0.6731,-0.7182,-0.7988,-0.7988,-0.7988,-0.7988,-0.7487,-0.6783,-0.5979,-0.5475,-0.447,-0.3316,-0.3815,-0.3416,-0.2516,-0.2129,-0.1711,-0.1172,-0.0322,0.0,0.0,0.0,0.0,0.0,0.0,0.0,0.0,0.0,0.0,0.0,0.0,0.0,0.0,0.0,0.0,0.0,0.0,0.0,0.0,0.0,0.0,0.0,0.0,0.0,0.0,0.0,0.2032,0.5035,0.9265,0.9822,0.9822,0.9822,0.9822,0.9822,0.9822,0.9822,0.9822,0.9822,0.9822,0.9822,0.9822,0.9822,0.9822,0.9822,0.9822,0.9822,0.9822,0.9822,0.9822,0.9822,0.9822,0.9822,0.0,0.0,0.0,0.0,0.0,0.0,0.5616,0.5966,0.6254,0.6502,0.6712,0.6767,0.6465,0.6523,0.6206,0.5007,0.3885,0.272,0.1371,0.0496,0.0,0.0,0.0,0.0,0.0,0.0,0.0,0.0,-0.0807,-0.1511,-0.1962,-0.2865,-0.3516,-0.3966,-0.4016,-0.4016,-0.4016,-0.4016,-0.4468,-0.5322,-0.5322,-0.5774,-0.6678,-0.7132,-0.7335,-0.7335,-0.7789,-0.7487,-0.6681,-0.6681,-0.5877,-0.4718,-0.517,-0.4518,-0.3265,-0.2815,-0.2112,-0.1224,-0.032,0.0,0.0,0.0,0.0,0.0,0.0,0.0,0.0,0.0,0.0,0.0,0.0,0.0,0.0,0.0,0.0,0.0,0.0,0.0,0.0,0.0,0.0,0.0,0.0,0.0,0.0,0.0,0.0,0.1602,0.5953,0.8407,0.9822,0.9822,0.9822,0.9822,0.9822,0.9822,0.9822,0.9822,0.9822,0.9822,0.9822,0.9822,0.9822,0.9822,0.9822,0.9822,0.9822,0.9822,0.9822,0.9822,0.9822,0.9822,0.0,0.0,0.0,0.0,0.0,0.0,0.542,0.0,0.6044,0.6245,0.6474,0.6347,0.5326,0.5135,0.4773,0.3744,0.2717,0.1532,0.0244,0.0,0.0,0.0,0.0,0.0,0.0,0.0,0.0,0.0,0.0,-0.0555,-0.1862,-0.1963,-0.2514,-0.3865,-0.3865,-0.3865,-0.3865,-0.3865,-0.3915,-0.3966,-0.3966,-0.3966,-0.4066,-0.5322,-0.5929,-0.6029,-0.7335,-0.7939,-0.7939,-0.7988,-0.7235,-0.6179,-0.7437,-0.5572,-0.2264,-0.3465,-0.2317,-0.0053,0.0,0.0,0.0,0.0,0.0,0.0,0.0,0.0,0.0,0.0,0.0,0.0,0.0,0.0,0.0,0.0,0.0,0.0,0.0,0.0,0.0,0.0,0.0,0.0,0.0,0.0,0.0,0.0,0.0,0.0,0.0,0.5586,0.9576,0.9758,0.9822,0.9822,0.9822,0.9822,0.9822,0.9822,0.9822,0.9822,0.9822,0.9822,0.9822,0.9822,0.9822,0.9822,0.9822,0.9822,0.9822,0.9822,0.9822,0.9822,0.289,0.0,0.0,0.0,0.0,0.0,0.0,0.0,0.5332,0.5698,0.601,0.6175,0.6137,0.5474,0.4607,0.364,0.2546,0.1727,0.1361,0.0571,0.0,0.0,0.0,0.0,0.0,0.0,0.0,0.0,0.0,-0.0151,-0.0555,-0.0555,-0.0706,-0.1109,-0.1109,-0.1109,-0.1109,-0.1109,-0.1611,-0.2564,-0.2564,-0.3065,-0.4016,-0.4368,-0.4568,-0.4618,-0.5977,-0.6531,-0.6631,-0.7587,-0.7786,-0.7385,-0.6783,-0.5877,-0.4722,-0.3116,-0.206,-0.133,-0.032,0.0,0.0,0.0,0.0,0.0,0.0,0.0,0.0,0.0,0.0,0.0,0.0,0.0,0.0,0.0,0.0,0.0,0.0,0.0,0.0,0.0,0.0,0.0,0.0,0.0,0.0,0.0,0.0,0.0,0.0,0.1601,0.4545,0.9268,0.9822,0.9822,0.9822,0.9822,0.9822,0.9822,0.9822,0.9822,0.9822,0.9822,0.9822,0.9822,0.9822,0.9822,0.9822,0.9822,0.9822,0.9822,0.9822,0.9822,0.0,0.0,0.0,0.0,0.0,0.0,0.447,0.4741,0.4935,0.5318,0.5637,0.5768,0.5495,0.5054,0.4387,0.3357,0.2343,0.1569,0.1104,0.042,0.0,0.0,0.0,0.0,0.0,0.0,0.0,0.0,0.0,0.0,0.0,0.0,0.0,0.0,0.0,0.0,0.0,0.0,-0.0404,-0.1159,-0.1159,-0.1561,-0.2363,-0.2914,-0.3165,-0.3215,-0.457,-0.5172,-0.5222,-0.6024,-0.6678,-0.7083,-0.6282,-0.5325,-0.4121,-0.2565,-0.165,-0.1065,-0.0267,0.0,0.0,0.0,0.0,0.0,0.0,0.0,0.0,0.0,0.0,0.0,0.0,0.0,0.0,0.0,0.0,0.0,0.0,0.0,0.0,0.0,0.0,0.0,0.0,0.0,0.0,0.0,0.0,0.0,0.0,0.0,0.1479,0.528,0.816,0.9822,0.9822,0.9822,0.9822,0.9822,0.9822,0.9822,0.9822,0.9822,0.9822,0.9822,0.9822,0.9822,0.9822,0.9822,0.9822,0.9822,0.9822,0.9822,0.0,0.0,0.0,0.0,0.0,0.0,0.4669,0.4765,0.4765,0.4999,0.5311,0.5246,0.4278,0.4395,0.426,0.3173,0.2281,0.1359,0.0319,0.0092,0.0,0.0,0.0,0.0,0.0,0.0,0.0,0.0,0.0,0.0,0.0,0.0,0.0,0.0,0.0,0.0,0.0,0.0,0.0,0.0,0.0,0.0,-0.0051,-0.1209,-0.1762,-0.1862,-0.3215,-0.3765,-0.3765,-0.3915,-0.4718,-0.5777,-0.5627,-0.4119,-0.1963,-0.1812,-0.1031,0.0,0.0,0.0,0.0,0.0,0.0,0.0,0.0,0.0,0.0,0.0,0.0,0.0,0.0,0.0,0.0,0.0,0.0,0.0,0.0,0.0,0.0,0.0,0.0,0.0,0.0,0.0,0.0,0.0,0.0,0.0,0.0,0.0,0.0,0.0,0.5219,0.9019,0.9761,0.9822,0.9822,0.9822,0.9822,0.9822,0.9822,0.9822,0.9822,0.9822,0.9822,0.9822,0.9822,0.9822,0.9822,0.9822,0.9822,0.9822,0.1839,0.0,0.0,0.0,0.0,0.0,0.4102,0.4513,0.4707,0.4765,0.4921,0.5,0.4909,0.5071,0.4882,0.3792,0.2991,0.2188,0.1388,0.0528,0.0,0.0,0.0,0.0,0.0,0.0,0.0,0.0,0.0,0.0,0.0,0.0,0.0,0.0,0.0,0.0,0.0,0.0,0.0,0.0,0.0,0.0,0.0,-0.0252,-0.0404,-0.0454,-0.1812,-0.2413,-0.2464,-0.3565,-0.4166,-0.4268,-0.3217,-0.2465,-0.1862,-0.0807,-0.0205,0.0,0.0,0.0,0.0,0.0,0.0,0.0,0.0,0.0,0.0,0.0,0.0,0.0,0.0,0.0,0.0,0.0,0.0,0.0,0.0,0.0,0.0,0.0,0.0,0.0,0.0,0.0,0.0,0.0,0.0,0.0,0.0,0.0,0.0,0.0,0.1171,0.4055,0.9329,0.9822,0.9822,0.9822,0.9822,0.9822,0.9822,0.9822,0.9822,0.9822,0.9822,0.9822,0.9822,0.9822,0.9822,0.9822,0.9822,0.9822,0.1679,0.0,0.0,0.2815,0.0,0.0,0.0,0.4496,0.4511,0.466,0.4752,0.485,0.4968,0.5145,0.5071,0.4541,0.382,0.3067,0.2252,0.0907,0.0,0.0,0.0,0.0,0.0,0.0,0.0,0.0,0.0,0.0,0.0,0.0,0.0,0.0,0.0,0.0,0.0,0.0,0.0,0.0,0.0,0.0,0.0,0.0,0.0,-0.0051,-0.0706,-0.1008,-0.1058,-0.1712,-0.2013,-0.2013,-0.2013,-0.1611,-0.0907,-0.0252,0.0,0.0,0.0,0.0,0.0,0.0,0.0,0.0,0.0,0.0,0.0,0.0,0.0,0.0,0.0,0.0,0.0,0.0,0.0,0.0,0.0,0.0,0.0,0.0,0.0,0.0,0.0,0.0,0.0,0.0,0.0,0.0,0.0,0.0,0.0,0.0,0.0,0.2646,0.9265,0.9822,0.9822,0.9822,0.9822,0.9822,0.9822,0.9822,0.9822,0.9822,0.9822,0.9822,0.9822,0.9822,0.9822,0.9822,0.9822,0.9822,0.0,0.0,0.0,0.0,0.0,0.3639,0.0,0.0,0.0,0.4609,0.4646,0.0,0.0,0.0,0.4972,0.4972,0.4368,0.3576,0.2725,0.1208,0.0163,0.0,0.0,0.0,0.0,0.0,0.0,0.0,0.0,0.0,0.0,0.0,0.0,0.0,0.0,0.0,0.0,0.0,0.0,0.0,0.0,0.0,0.0,0.0,0.0,0.0,0.0,0.0,0.0,0.0,0.0,-0.0101,-0.1209,-0.0958,0.0,0.0,0.0,0.0,0.0,0.0,0.0,0.0,0.0,0.0,0.0,0.0,0.0,0.0,0.0,0.0,0.0,0.0,0.0,0.0,0.0,0.0,0.0,0.0,0.0,0.0,0.0,0.0,0.0,0.0,0.0,0.0,0.0,0.0,0.0,0.0,0.0,0.0,0.0,0.2155,0.7484,0.9083,0.9822,0.9822,0.9822,0.9822,0.9822,0.9822,0.9822,0.9822,0.9822,0.9822,0.9822,0.9822,0.9822,0.9822,0.9822,0.9822,0.0,0.0,0.0,0.0,0.4074,0.4388,0.451,0.0,0.4775,0.4566,0.0,0.0,0.0,0.0,0.0,0.4566,0.3952,0.3179,0.2369,0.1524,0.0746,0.0076,0.0,0.0,0.0,0.0,0.0,0.0,0.0,0.0,0.0,0.0,0.0,0.0,0.0,0.0,0.0,0.0,0.0,0.0,0.0,0.0,0.0,0.0,0.0,0.0,0.0,0.0,0.0,0.0,0.0,0.0,-0.0151,-0.0151,0.0,0.0,0.0,0.0,0.0,0.0,0.0,0.0,0.0,0.0,0.0,0.0,0.0,0.0,0.0,0.0,0.0,0.0,0.0,0.0,0.0,0.0,0.0,0.0,0.0,0.0,0.0,0.0,0.0,0.0,0.0,0.0,0.0,0.0,0.0,0.0,0.0,0.0,0.0,0.0308,0.1048,0.6444,0.9822,0.9822,0.9822,0.9822,0.9822,0.9822,0.9822,0.9822,0.9822,0.9822,0.9822,0.9822,0.9822,0.9822,0.9822,0.9822,0.0,0.0,0.0,0.0,0.0,0.0,0.464,0.4691,0.4672,0.4631,0.0,0.0,0.0,0.0,0.0,0.0,0.4295,0.3808,0.2843,0.2249,0.1443,0.0141,0.0,0.0,0.0,0.0,0.0,0.0,0.0,0.0,0.0,0.0,0.0,0.0,0.0,0.0,0.0,0.0,0.0,0.0,0.0,0.0,0.0,0.0,0.0,0.0,0.0,0.0,0.0,0.0,0.0,0.0,0.0,0.0,0.0,0.0,0.0,0.0,0.0,0.0,0.0,0.0,0.0,0.0,0.0,0.0,0.0,0.0,0.0,0.0,0.0,0.0,0.0,0.0,0.0,0.0,0.0,0.0,0.0,0.0,0.0,0.0,0.0,0.0,0.0,0.0,0.0,0.0,0.0,0.0,0.0,0.0,0.0,0.0,0.0,0.6014,0.9822,0.9822,0.9822,0.9822,0.9822,0.9822,0.9822,0.9822,0.9822,0.9822,0.9822,0.9822,0.9822,0.9822,0.9822,0.9822,0.3228,0.0,0.0,0.4404,0.4478,0.4512,0.4736,0.4718,0.4682,0.4684,0.473,0.0,0.0,0.0,0.0,0.0,0.0,0.4343,0.0,0.2752,0.189,0.0415,0.0098,0.0,0.0,0.0,0.0,0.0,0.0,0.0,0.0,0.0,0.0,0.0,0.0,0.0,0.0,0.0,0.0,0.0,0.0,0.0,0.0,0.0,0.0,0.0,0.0,0.0,0.0,0.0,0.0,0.0,0.0,0.0,0.0,0.0,0.0,0.0,0.0,0.0,0.0,0.0,0.0,0.0,0.0,0.0,0.0,0.0,0.0,0.0,0.0,0.0,0.0,0.0,0.0,0.0,0.0,0.0,0.0,0.0,0.0,0.0,0.0,0.0,0.0,0.0,0.0,0.0,0.0,0.0,0.0,0.0,0.0,0.074,0.2523,0.7055,0.9822,0.9822,0.9822,0.9822,0.9822,0.9822,0.9822,0.9822,0.9822,0.9822,0.9822,0.9822,0.9822,0.9822,0.9822,0.9822,0.429,0.4961,0.5087,0.5306,0.5443,0.5356,0.4675,0.4806,0.4999,0.4748,0.5064,0.5279,0.0,0.0,0.0,0.0,0.0,0.0,0.0,0.0,0.0,0.0,0.0,0.0,0.0,0.0,0.0,0.0,0.0,0.0,0.0,0.0,0.0,0.0,0.0,0.0,0.0,0.0,0.0,0.0,0.0,0.0,0.0,0.0,0.0,0.0,0.0,0.0,0.0,0.0,0.0,0.0,0.0,0.0,0.0,0.0,0.0,0.0,0.0,0.0,0.0,0.0,0.0,0.0,0.0,0.0,0.0,0.0,0.0,0.0,0.0,0.0,0.0,0.0,0.0,0.0,0.0,0.0,0.0,0.0,0.0,0.0,0.0,0.0,0.0,0.0,0.0,0.0,0.0,0.0,0.0,0.0,0.0,0.2584,0.8958,0.9697,0.9822,0.9822,0.9822,0.9822,0.9822,0.9822,0.9822,0.9822,0.9822,0.9822,0.9822,0.9822,0.9822,0.9822,0.9822,0.9822,0.4532,0.5599,0.622,0.5868,0.5766,0.5559,0.4911,0.4955,0.5015,0.4752,0.5081,0.5303,0.0,0.0,0.0,0.0,0.0,0.0,0.0,0.0,0.0,0.0,0.0,0.0,0.0,0.0,0.0,0.0,0.0,0.0,0.0,0.0,0.0,0.0,0.0,0.0,0.0,0.0,0.0,0.0,0.0,0.0,0.0,0.0,0.0,0.0,0.0,0.0,0.0,0.0,0.0,0.0,0.0,0.0,0.0,0.0,0.0,0.0,0.0,0.0,0.0,0.0,0.0,0.0,0.0,0.0,0.0,0.0,0.0,0.0,0.0,0.0,0.0,0.0,0.0,0.0,0.0,0.0,0.0,0.0,0.0,0.0,0.0,0.0,0.0,0.0,0.0,0.0,0.0,0.0,0.0,0.0,0.0,0.2646,0.9265,0.9822,0.9822,0.9822,0.9822,0.9822,0.9822,0.9822,0.9822,0.9822,0.9822,0.9822,0.9822,0.9822,0.9822,0.9822,0.9822,0.9822,0.4781,0.6046,0.6953,0.6407,0.6193,0.5952,0.5304,0.5352,0.5433,0.5081,0.5313,0.5528,0.0,0.0,0.0,0.0,0.0,0.0,0.0,0.2271,0.0,0.0,0.0,0.0,0.0,0.0,0.0,0.0,0.0,0.0,0.0,0.0,0.0,0.0,0.0,0.0,0.0,0.0,0.0,0.0,0.0,0.0,0.0,0.0,0.0,0.0,0.0,0.0,0.0,0.0,0.0,0.0,0.0,0.0,0.0,0.0,0.0,0.0,0.0,0.0,0.0,0.0,0.0,0.0,0.0,0.0,0.0,0.0,0.0,0.0,0.0,0.0,0.0,0.0,0.0,0.0,0.0,0.0,0.0176,0.0771,0.0425,0.0,0.0,0.0,0.0,0.0,0.0,0.0,0.0,0.2031,0.2584,0.0247,0.2093,0.5219,0.9451,0.9822,0.9822,0.9822,0.9822,0.9822,0.9822,0.9822,0.9822,0.9822,0.9822,0.9822,0.9822,0.9822,0.9822,0.9822,0.9822,0.9822]}]]